[[{"header":{"parameterUnit":"m.s-1","parameterCategory":1,"la1":31.0,"la2":29.5877,"lo1":-88.7671,"lo2":-86.6584,"dy":0.0162,"dx":0.0185,"nx":115,"ny":88,"refTime":"2026-05-06T12:00:00:Z","depth":0,"parameterNumber":2,"parameterNumberName":"U-component_of_WINDS"},"data":[0.0,0.0,0.0,0.0,0.0,0.0,0.0,0.0,0.0,0.0,0.0,0.0,0.0,0.0,0.0,0.0,0.0,0.0,0.0,0.0,0.0,0.0,0.0,0.0,0.0,0.0,0.0,0.0,0.0,0.0,0.0,0.0,0.0,0.0,0.0,0.0,0.0,0.0,0.0,0.0,0.0,0.0,0.0,0.0,0.0,0.0,0.0,0.0,0.0,0.0,0.0,0.0,0.0,0.0,0.0,0.0,0.0,0.0,0.0,0.0,0.0,0.0,0.0,0.0,0.0,0.0,0.0,0.0,0.0,0.0,0.0,0.0,0.0,0.0,0.0,0.0,0.0,0.0,0.0,0.0,0.0,0.0,0.0,0.0,0.0,0.0,0.0,0.0,0.0,0.0,0.0,0.0,0.0,0.0,0.0,0.0,0.0,0.0,0.0,0.0,0.0,0.0,0.0,0.0,0.0,0.0,0.0,0.0,0.0,0.0,0.0,0.0,0.0,0.0,0.0,0.0,0.0,0.0,0.0,0.0,0.0,0.0,0.0,0.0,0.0,0.0,0.0,0.0,0.0,0.0,0.0,0.0,0.0,0.0,0.0,0.0,0.0,0.0,0.0,0.0,0.0,0.0,0.0,0.0,0.0,0.0,0.0,0.0,0.0,0.0,0.0,0.0,0.0,0.0,0.0,0.0,0.0,0.0,0.0,0.0,0.0,0.0,0.0,0.0,0.0,0.0,0.0,0.0,0.0,0.0,0.0,0.0,0.0,0.0,0.0,0.0,0.0,0.0,0.0,0.0,0.0,0.0,0.0,0.0,0.0,0.0,0.0,0.0,0.0,0.0,0.0,0.0,0.0,0.0,0.0,0.0,0.0,0.0,0.0,0.0,0.0,0.0,0.0,0.0,0.0,0.0,0.0,0.0,0.0,0.0,0.0,0.0,0.0,0.0,0.0,0.0,0.0,0.0,0.0,0.0,0.0,0.0,0.0,0.0,0.0,0.0,0.0,0.0,0.0,0.0,0.0,0.0,0.0,0.0,0.0,0.0,0.0,0.0,0.0,0.0,0.0,0.0,0.0,0.0,0.0,0.0,0.0,0.0,0.0,0.0,0.0,0.0,0.0,0.0,0.0,0.0,0.0,0.0,0.0,0.0,0.0,0.0,0.0,0.0,0.0,0.0,0.0,0.0,0.0,0.0,0.0,0.0,0.0,0.0,0.0,0.0,0.0,0.0,0.0,0.0,0.0,0.0,0.0,0.0,0.0,0.0,0.0,0.0,0.0,0.0,0.0,0.0,0.0,0.0,0.0,0.0,0.0,0.0,0.0,0.0,0.0,0.0,0.0,0.0,0.0,0.0,0.0,0.0,0.0,0.0,0.0,0.0,0.0,0.0,0.0,0.0,0.0,0.0,0.0,0.0,0.0,0.0,0.0,0.0,0.0,0.0,0.0,0.0,0.0,0.0,0.0,0.0,0.0,0.0,0.0,0.0,0.0,0.0,0.0,0.0,0.0,0.0,0.0,0.0,0.0,0.0,0.0,0.0,0.0,0.0,0.0,0.0,0.0,0.0,0.0,0.0,0.0,0.0,0.0,0.0,0.0,0.0,0.0,0.0,0.0,0.0,0.0,0.0,0.0,0.0,0.0,0.0,0.0,0.0,0.0,0.0,0.0,0.0,0.0,0.0,0.0,0.0,0.0,0.0,0.0,0.0,0.0,0.0,0.0,0.0,0.0,0.0,0.0,0.0,0.0,0.0,0.0,0.0,0.0,0.0,0.0,0.0,0.0,0.0,0.0,0.0,0.0,0.0,0.0,0.0,0.0,0.0,0.0,0.0,0.0,0.0,0.0,0.0,0.0,0.0,0.0,0.0,0.0,0.0,0.0,0.0,0.0,0.0,0.0,0.0,0.0,0.0,0.0,0.0,0.0,0.0,0.0,0.0,0.0,0.0,0.0,0.0,0.0,0.0,0.0,0.0,0.0,0.0,0.0,0.0,0.0,0.0,0.0,0.0,0.0,0.0,0.0,0.0,0.0,0.0,0.0,0.0,0.0,0.0,0.0,0.0,0.0,0.0,0.0,0.0,0.0,0.0,0.0,0.0,0.0,0.0,0.0,0.0,0.0,0.0,0.0,0.0,0.0,0.0,0.0,0.0,0.0,0.0,0.0,0.0,0.0,0.0,0.0,0.0,0.0,0.0,0.0,0.0,0.0,0.0,0.0,0.0,0.0,0.0,0.0,0.0,0.0,0.0,0.0,0.0,0.0,0.0,0.0,0.0,0.0,0.0,0.0,0.0,0.0,0.0,0.0,0.0,0.0,0.0,0.0,0.0,0.0,0.0,0.0,0.0,0.0,0.0,0.0,0.0,0.0,0.0,0.0,0.0,0.0,0.0,0.0,0.0,0.0,0.0,0.0,0.0,0.0,0.0,0.0,0.0,0.0,0.0,0.0,0.0,0.0,0.0,0.0,0.0,0.0,0.0,0.0,0.0,0.0,0.0,0.0,0.0,0.0,0.0,0.0,0.0,0.0,0.0,0.0,0.0,0.0,0.0,0.0,0.0,0.0,0.0,0.0,0.0,0.0,0.0,0.0,0.0,0.0,0.0,0.0,0.0,0.0,0.0,0.0,0.0,0.0,0.0,0.0,0.0,0.0,0.0,0.0,0.0,0.0,0.0,0.0,0.0,0.0,0.0,0.0,0.0,0.0,0.0,0.0,0.0,0.0,0.0,0.0,0.0,0.0,0.0,0.0,0.0,0.0,0.0,0.0,0.0,0.0,0.0,0.0,0.0,0.0,0.0,0.0,0.0,0.0,0.0,0.0,0.0,0.0,0.0,0.0,0.0,0.0,0.0,0.0,0.0,0.0,0.0,0.0,0.0,0.0,0.0,0.0,0.0,0.0,0.0,0.0,0.0,0.0,0.0,0.0,0.0,0.0,0.0,0.0,0.0,0.0,0.0,0.0,0.0,0.0,0.0,0.0,0.0,0.0,0.0,0.0,0.0,0.0,0.0,0.0,0.0,0.0,0.0,0.0,0.0,0.0,0.0,0.0,0.0,0.0,0.0,0.0,0.0,0.0,0.0,0.0,0.0,0.0,0.0,0.0,0.0,0.0,0.0,0.0,0.0,0.0,0.0,0.0,0.0,0.0,0.0,0.0,0.0,0.0,0.0,0.0,0.0,0.0,0.0,0.0,0.0,0.0,0.0,0.0,0.0,0.0,0.0,0.0,0.0,0.0,0.0,0.0,0.0,0.0,0.0,0.0,0.0,0.0,0.0,0.0,0.0,0.0,0.0,0.0,0.0,0.0,0.0,0.0,0.0,0.0,0.0,0.0,0.0,0.0,0.0,0.0,0.0,0.0,0.0,0.0,0.0,0.0,0.0,0.0,0.0,0.0,0.0,0.0,0.0,0.0,0.0,0.0,0.0,0.0,0.0,0.0,0.0,0.0,0.0,0.0,0.0,0.0,0.0,0.0,0.0,0.0,0.0,0.0,0.0,0.0,0.0,0.0,0.0,0.0,0.0,0.0,0.0,0.0,0.0,0.0,0.0,0.0,0.0,0.0,0.0,0.0,0.0,0.0,0.0,0.0,0.0,0.0,0.0,0.0,0.0,0.0,0.0,0.0,0.0,0.0,0.0,0.0,0.0,0.0,0.0,0.0,0.0,0.0,0.0,0.0,0.0,0.0,0.0,0.0,0.0,0.0,0.0,0.0,0.0,0.0,0.0,0.0,0.0,0.0,0.0,0.0,0.0,0.0,0.0,0.0,0.0,0.0,0.0,0.0,0.0,0.0,0.0,0.0,0.0,0.0,0.0,0.0,0.0,0.0,0.0,0.0,0.0,0.0,0.0,0.0,0.0,0.0,0.0,0.0,0.0,0.0,0.0,0.0,0.0,0.0,0.0,0.0,0.0,0.0,0.0,0.0,0.0,0.0,0.0,0.0,0.0,0.0,0.0,0.0,0.0,0.0,0.0,0.0,0.0,0.0,0.0,0.0,0.0,0.0,0.0,0.0,0.0,0.0,0.0,0.0,0.0,0.0,0.0,0.0,0.0,0.0,0.0,0.0,0.0,0.0,0.0,0.0,0.0,0.0,0.0,0.0,0.0,0.0,0.0,0.0,0.0,0.0,0.0,0.0,0.0,0.0,0.0,0.0,0.0,0.0,0.0,0.0,0.0,0.0,0.0,0.0,0.0,0.0,0.0,0.0,0.0,0.0,0.0,0.0,0.0,0.0,0.0,0.0,0.0,0.0,0.0,0.0,0.0,0.0,0.0,-3.4175,0.0,0.0,0.0,0.0,0.0,0.0,0.0,0.0,0.0,0.0,0.0,0.0,0.0,0.0,0.0,0.0,0.0,0.0,0.0,0.0,0.0,0.0,0.0,0.0,0.0,0.0,0.0,0.0,0.0,0.0,0.0,0.0,0.0,0.0,0.0,0.0,0.0,0.0,0.0,0.0,0.0,0.0,0.0,0.0,0.0,0.0,0.0,0.0,0.0,0.0,0.0,0.0,0.0,0.0,0.0,0.0,0.0,0.0,0.0,0.0,0.0,0.0,0.0,0.0,0.0,0.0,0.0,0.0,0.0,0.0,0.0,0.0,0.0,0.0,0.0,0.0,0.0,0.0,0.0,0.0,0.0,0.0,0.0,0.0,0.0,0.0,0.0,0.0,0.0,0.0,0.0,0.0,0.0,0.0,0.0,0.0,0.0,0.0,0.0,0.0,0.0,0.0,0.0,0.0,0.0,0.0,0.0,0.0,0.0,0.0,-3.4605,-3.5386,-3.4914,-3.4482,-3.4134,0.0,0.0,0.0,0.0,0.0,0.0,0.0,0.0,0.0,0.0,0.0,0.0,0.0,0.0,0.0,0.0,0.0,0.0,0.0,0.0,0.0,0.0,0.0,0.0,0.0,0.0,0.0,0.0,0.0,0.0,0.0,0.0,0.0,0.0,0.0,0.0,0.0,0.0,0.0,0.0,0.0,0.0,0.0,0.0,0.0,0.0,0.0,0.0,0.0,0.0,0.0,0.0,0.0,0.0,0.0,0.0,0.0,0.0,0.0,0.0,0.0,0.0,0.0,0.0,0.0,0.0,0.0,0.0,0.0,0.0,0.0,0.0,0.0,0.0,0.0,0.0,0.0,0.0,0.0,0.0,0.0,0.0,0.0,0.0,0.0,0.0,0.0,0.0,0.0,0.0,0.0,0.0,0.0,0.0,0.0,0.0,0.0,0.0,0.0,0.0,0.0,0.0,0.0,0.0,0.0,0.0,0.0,0.0,0.0,0.0,0.0,0.0,-3.5315,-3.4817,-3.4046,0.0,0.0,0.0,0.0,0.0,0.0,0.0,0.0,0.0,0.0,0.0,0.0,0.0,0.0,0.0,0.0,0.0,0.0,0.0,0.0,0.0,0.0,0.0,0.0,0.0,0.0,0.0,0.0,0.0,0.0,0.0,0.0,0.0,0.0,0.0,0.0,0.0,0.0,0.0,0.0,0.0,0.0,0.0,0.0,0.0,0.0,0.0,0.0,0.0,0.0,0.0,0.0,0.0,0.0,0.0,0.0,0.0,0.0,0.0,0.0,0.0,0.0,0.0,0.0,0.0,0.0,0.0,0.0,0.0,0.0,0.0,0.0,0.0,0.0,0.0,0.0,0.0,0.0,0.0,0.0,0.0,0.0,0.0,0.0,0.0,0.0,0.0,0.0,0.0,0.0,0.0,0.0,0.0,0.0,0.0,0.0,0.0,0.0,0.0,0.0,0.0,0.0,0.0,0.0,0.0,0.0,0.0,0.0,0.0,0.0,-3.4895,-3.5413,-3.5964,0.0,-3.4806,0.0,0.0,0.0,0.0,0.0,0.0,0.0,0.0,0.0,0.0,0.0,0.0,0.0,0.0,0.0,0.0,0.0,0.0,0.0,0.0,0.0,0.0,0.0,0.0,0.0,0.0,0.0,0.0,0.0,0.0,0.0,0.0,0.0,0.0,0.0,0.0,0.0,0.0,0.0,0.0,0.0,0.0,0.0,0.0,0.0,0.0,0.0,0.0,0.0,0.0,0.0,0.0,0.0,0.0,0.0,0.0,0.0,0.0,0.0,0.0,0.0,0.0,0.0,0.0,0.0,0.0,0.0,0.0,0.0,0.0,0.0,0.0,0.0,0.0,0.0,0.0,0.0,0.0,0.0,0.0,0.0,0.0,0.0,0.0,0.0,0.0,0.0,0.0,0.0,0.0,0.0,0.0,0.0,0.0,0.0,0.0,0.0,0.0,0.0,0.0,0.0,0.0,0.0,0.0,0.0,0.0,0.0,0.0,0.0,0.0,-3.4481,-3.5208,-3.5103,-3.5108,0.0,0.0,0.0,0.0,0.0,0.0,0.0,0.0,0.0,0.0,0.0,0.0,0.0,0.0,0.0,0.0,0.0,0.0,0.0,0.0,0.0,0.0,0.0,0.0,0.0,0.0,0.0,0.0,0.0,0.0,0.0,0.0,0.0,0.0,0.0,0.0,0.0,0.0,0.0,0.0,0.0,0.0,0.0,0.0,0.0,0.0,0.0,0.0,0.0,0.0,0.0,0.0,0.0,0.0,0.0,0.0,0.0,0.0,0.0,0.0,0.0,0.0,0.0,0.0,0.0,0.0,0.0,0.0,0.0,0.0,0.0,0.0,0.0,0.0,0.0,0.0,0.0,0.0,0.0,0.0,0.0,0.0,0.0,0.0,0.0,0.0,0.0,0.0,0.0,0.0,0.0,0.0,0.0,0.0,0.0,0.0,0.0,0.0,0.0,0.0,0.0,0.0,0.0,0.0,0.0,0.0,0.0,0.0,0.0,0.0,-3.3081,-3.4063,-3.51,-3.4834,-3.485,-3.5228,0.0,0.0,0.0,0.0,0.0,0.0,0.0,0.0,0.0,0.0,0.0,0.0,0.0,0.0,0.0,0.0,0.0,0.0,0.0,0.0,0.0,0.0,0.0,0.0,0.0,0.0,0.0,0.0,0.0,0.0,0.0,0.0,0.0,0.0,0.0,0.0,0.0,0.0,0.0,0.0,0.0,0.0,0.0,0.0,0.0,0.0,0.0,0.0,0.0,0.0,0.0,0.0,0.0,0.0,0.0,0.0,0.0,0.0,0.0,0.0,0.0,0.0,0.0,0.0,0.0,0.0,0.0,0.0,0.0,0.0,0.0,0.0,0.0,0.0,0.0,0.0,0.0,0.0,0.0,0.0,0.0,0.0,0.0,0.0,0.0,0.0,0.0,0.0,0.0,0.0,0.0,0.0,0.0,0.0,0.0,0.0,0.0,0.0,0.0,0.0,0.0,0.0,0.0,0.0,0.0,0.0,0.0,0.0,0.0,-3.2511,-3.3878,-3.5345,-3.5809,-3.5685,0.0,0.0,0.0,0.0,0.0,0.0,0.0,0.0,0.0,0.0,0.0,0.0,0.0,0.0,0.0,0.0,0.0,0.0,0.0,0.0,0.0,0.0,0.0,0.0,0.0,0.0,0.0,0.0,0.0,0.0,0.0,0.0,0.0,0.0,0.0,0.0,0.0,0.0,0.0,0.0,0.0,0.0,0.0,0.0,0.0,0.0,0.0,0.0,0.0,0.0,0.0,0.0,0.0,0.0,0.0,0.0,0.0,0.0,0.0,0.0,0.0,0.0,0.0,0.0,0.0,0.0,0.0,0.0,0.0,0.0,0.0,0.0,0.0,0.0,0.0,0.0,0.0,0.0,0.0,0.0,0.0,0.0,0.0,0.0,0.0,0.0,0.0,0.0,0.0,0.0,0.0,0.0,0.0,0.0,0.0,0.0,0.0,0.0,0.0,0.0,0.0,0.0,0.0,0.0,0.0,0.0,0.0,0.0,0.0,-3.1006,-3.2803,-3.4314,-3.5494,-3.4995,-3.4813,0.0,0.0,0.0,0.0,0.0,0.0,0.0,0.0,0.0,0.0,0.0,0.0,0.0,0.0,0.0,0.0,0.0,0.0,0.0,0.0,0.0,0.0,0.0,0.0,0.0,0.0,0.0,0.0,0.0,0.0,0.0,0.0,0.0,0.0,0.0,0.0,0.0,0.0,0.0,0.0,0.0,0.0,0.0,0.0,0.0,0.0,0.0,0.0,0.0,0.0,0.0,0.0,0.0,0.0,0.0,0.0,0.0,0.0,0.0,0.0,0.0,0.0,0.0,0.0,0.0,0.0,0.0,0.0,0.0,0.0,0.0,0.0,0.0,0.0,0.0,0.0,0.0,0.0,0.0,0.0,0.0,0.0,0.0,0.0,0.0,0.0,0.0,0.0,0.0,0.0,0.0,0.0,0.0,0.0,0.0,0.0,0.0,0.0,0.0,0.0,0.0,0.0,0.0,0.0,0.0,0.0,0.0,0.0,0.0,-3.1437,0.0,-3.4786,0.0,-3.4699,-3.4517,0.0,0.0,0.0,0.0,0.0,0.0,0.0,0.0,0.0,0.0,0.0,0.0,0.0,0.0,0.0,0.0,0.0,0.0,0.0,0.0,0.0,0.0,0.0,0.0,0.0,0.0,0.0,0.0,0.0,0.0,0.0,0.0,0.0,0.0,0.0,0.0,0.0,0.0,0.0,0.0,0.0,0.0,0.0,0.0,0.0,0.0,0.0,0.0,0.0,0.0,0.0,0.0,0.0,0.0,0.0,0.0,0.0,0.0,0.0,0.0,0.0,0.0,0.0,0.0,0.0,0.0,0.0,0.0,0.0,0.0,0.0,0.0,0.0,0.0,0.0,0.0,0.0,0.0,0.0,0.0,0.0,0.0,0.0,0.0,0.0,0.0,0.0,0.0,0.0,0.0,0.0,0.0,0.0,0.0,0.0,0.0,0.0,0.0,0.0,0.0,0.0,0.0,0.0,0.0,0.0,0.0,0.0,0.0,-3.081,-3.2692,-3.4163,-3.5127,-3.5426,-3.5091,-3.4882,0.0,0.0,0.0,0.0,0.0,0.0,0.0,0.0,0.0,0.0,0.0,0.0,0.0,0.0,0.0,0.0,0.0,0.0,0.0,0.0,0.0,0.0,0.0,0.0,0.0,0.0,0.0,0.0,0.0,0.0,0.0,0.0,0.0,0.0,0.0,0.0,0.0,0.0,0.0,0.0,0.0,0.0,0.0,0.0,0.0,0.0,0.0,0.0,0.0,0.0,0.0,0.0,0.0,0.0,0.0,0.0,0.0,0.0,0.0,0.0,0.0,0.0,0.0,0.0,0.0,0.0,0.0,0.0,0.0,0.0,0.0,0.0,0.0,0.0,0.0,0.0,0.0,0.0,0.0,0.0,0.0,0.0,0.0,0.0,0.0,0.0,0.0,0.0,0.0,0.0,0.0,0.0,0.0,0.0,0.0,0.0,0.0,0.0,0.0,0.0,0.0,0.0,0.0,0.0,0.0,0.0,0.0,0.0,0.0,-3.4452,-3.4777,-3.5577,-3.6809,-3.5974,-3.5217,0.0,0.0,0.0,0.0,0.0,0.0,0.0,0.0,0.0,0.0,0.0,0.0,0.0,0.0,0.0,0.0,0.0,0.0,0.0,0.0,0.0,0.0,0.0,0.0,0.0,0.0,0.0,0.0,0.0,0.0,0.0,0.0,0.0,0.0,0.0,0.0,0.0,0.0,0.0,0.0,0.0,0.0,0.0,0.0,0.0,0.0,0.0,0.0,0.0,0.0,0.0,0.0,0.0,0.0,0.0,0.0,0.0,0.0,0.0,0.0,0.0,0.0,0.0,0.0,0.0,0.0,0.0,0.0,0.0,0.0,0.0,0.0,0.0,0.0,0.0,0.0,0.0,0.0,0.0,0.0,0.0,0.0,0.0,0.0,0.0,0.0,0.0,0.0,0.0,0.0,0.0,0.0,0.0,0.0,0.0,0.0,0.0,0.0,0.0,0.0,0.0,0.0,0.0,0.0,0.0,0.0,0.0,0.0,0.0,-3.6946,-3.642,-3.6855,-3.8367,-3.722,-3.6188,-3.5388,0.0,0.0,0.0,0.0,0.0,0.0,0.0,0.0,0.0,0.0,0.0,0.0,0.0,0.0,0.0,0.0,0.0,0.0,0.0,0.0,0.0,0.0,0.0,0.0,0.0,0.0,0.0,0.0,0.0,0.0,0.0,0.0,0.0,0.0,0.0,0.0,0.0,0.0,0.0,0.0,0.0,0.0,0.0,0.0,0.0,0.0,0.0,0.0,0.0,0.0,0.0,0.0,0.0,0.0,0.0,0.0,0.0,0.0,0.0,0.0,0.0,0.0,0.0,0.0,0.0,0.0,0.0,0.0,0.0,0.0,0.0,0.0,0.0,0.0,0.0,0.0,0.0,0.0,0.0,0.0,0.0,0.0,0.0,0.0,0.0,0.0,0.0,0.0,0.0,0.0,0.0,0.0,0.0,0.0,0.0,0.0,0.0,0.0,0.0,0.0,0.0,0.0,0.0,0.0,0.0,0.0,0.0,0.0,-4.0118,-3.9042,-3.8878,-3.9843,-3.8783,-3.7674,0.0,0.0,0.0,0.0,0.0,0.0,0.0,0.0,0.0,0.0,0.0,0.0,0.0,0.0,0.0,0.0,0.0,0.0,0.0,0.0,0.0,0.0,0.0,0.0,0.0,0.0,0.0,0.0,0.0,0.0,0.0,0.0,0.0,0.0,0.0,0.0,0.0,0.0,0.0,0.0,0.0,0.0,0.0,0.0,0.0,0.0,0.0,0.0,0.0,0.0,0.0,0.0,0.0,0.0,0.0,0.0,0.0,0.0,0.0,0.0,0.0,0.0,0.0,0.0,0.0,0.0,0.0,0.0,0.0,0.0,0.0,0.0,0.0,0.0,0.0,0.0,0.0,0.0,0.0,0.0,0.0,0.0,0.0,0.0,0.0,0.0,0.0,0.0,0.0,0.0,0.0,0.0,0.0,0.0,0.0,0.0,0.0,0.0,0.0,0.0,0.0,0.0,0.0,0.0,0.0,0.0,0.0,0.0,0.0,-4.1307,-4.1802,-4.21,-4.2223,-4.0731,-3.8986,0.0,0.0,0.0,0.0,0.0,0.0,0.0,0.0,0.0,0.0,0.0,0.0,0.0,0.0,0.0,0.0,0.0,0.0,0.0,0.0,0.0,0.0,0.0,0.0,0.0,0.0,0.0,0.0,0.0,0.0,0.0,0.0,0.0,0.0,0.0,0.0,0.0,0.0,0.0,0.0,0.0,0.0,0.0,0.0,0.0,0.0,0.0,0.0,0.0,0.0,0.0,0.0,0.0,0.0,0.0,0.0,0.0,0.0,0.0,0.0,0.0,0.0,0.0,0.0,0.0,0.0,0.0,0.0,0.0,0.0,0.0,0.0,0.0,0.0,0.0,0.0,0.0,0.0,0.0,0.0,0.0,0.0,0.0,0.0,0.0,0.0,0.0,0.0,0.0,0.0,0.0,0.0,0.0,0.0,0.0,0.0,0.0,0.0,0.0,0.0,0.0,0.0,0.0,0.0,0.0,0.0,0.0,0.0,-3.9383,-4.3155,-4.4444,-4.529,-4.5664,-4.287,-4.0581,0.0,0.0,0.0,0.0,0.0,0.0,0.0,0.0,0.0,0.0,0.0,0.0,0.0,0.0,0.0,0.0,0.0,0.0,0.0,0.0,0.0,0.0,0.0,0.0,0.0,0.0,0.0,0.0,0.0,0.0,0.0,0.0,0.0,0.0,0.0,0.0,0.0,0.0,0.0,0.0,0.0,0.0,0.0,0.0,0.0,0.0,0.0,0.0,0.0,0.0,0.0,0.0,0.0,0.0,0.0,0.0,0.0,0.0,0.0,0.0,0.0,0.0,0.0,0.0,0.0,0.0,0.0,0.0,0.0,0.0,0.0,0.0,0.0,0.0,0.0,0.0,0.0,0.0,0.0,0.0,0.0,0.0,0.0,0.0,0.0,0.0,0.0,0.0,0.0,0.0,0.0,0.0,0.0,0.0,0.0,0.0,0.0,0.0,0.0,0.0,0.0,0.0,0.0,0.0,0.0,0.0,0.0,0.0,-4.1359,-4.499,-4.6702,-4.8071,-4.893,-4.5004,-4.2317,0.0,0.0,0.0,0.0,0.0,0.0,0.0,0.0,0.0,0.0,0.0,0.0,0.0,0.0,0.0,0.0,0.0,0.0,0.0,0.0,0.0,0.0,0.0,0.0,0.0,0.0,0.0,0.0,0.0,0.0,0.0,0.0,0.0,0.0,0.0,0.0,0.0,0.0,0.0,0.0,0.0,0.0,0.0,0.0,0.0,0.0,0.0,0.0,0.0,0.0,0.0,0.0,0.0,0.0,0.0,0.0,0.0,0.0,0.0,0.0,0.0,0.0,0.0,0.0,0.0,0.0,0.0,0.0,0.0,0.0,0.0,0.0,0.0,0.0,0.0,0.0,0.0,0.0,0.0,0.0,0.0,0.0,0.0,0.0,0.0,0.0,0.0,0.0,0.0,0.0,0.0,0.0,0.0,0.0,0.0,0.0,0.0,0.0,0.0,0.0,0.0,0.0,0.0,0.0,0.0,0.0,0.0,0.0,-4.2468,-4.587,-4.7752,-4.9077,-4.9764,-4.6606,-4.3867,0.0,0.0,0.0,0.0,0.0,0.0,0.0,0.0,0.0,0.0,0.0,0.0,0.0,0.0,0.0,0.0,0.0,0.0,0.0,0.0,0.0,0.0,0.0,0.0,0.0,0.0,0.0,0.0,0.0,0.0,0.0,0.0,0.0,0.0,0.0,0.0,0.0,0.0,0.0,0.0,0.0,0.0,0.0,0.0,0.0,0.0,0.0,0.0,-3.9665,0.0,0.0,0.0,0.0,0.0,0.0,0.0,0.0,0.0,0.0,0.0,0.0,0.0,0.0,0.0,0.0,0.0,0.0,0.0,0.0,0.0,0.0,0.0,0.0,0.0,0.0,0.0,0.0,0.0,0.0,0.0,0.0,0.0,0.0,0.0,0.0,0.0,0.0,0.0,0.0,0.0,0.0,0.0,0.0,0.0,0.0,0.0,0.0,0.0,0.0,0.0,0.0,0.0,0.0,0.0,0.0,0.0,0.0,0.0,-4.3021,-4.6436,-4.7946,-4.9083,-4.9876,-4.775,-4.5259,0.0,0.0,0.0,0.0,0.0,0.0,0.0,0.0,0.0,0.0,0.0,0.0,0.0,0.0,0.0,0.0,0.0,0.0,0.0,0.0,0.0,0.0,0.0,0.0,0.0,0.0,0.0,0.0,0.0,0.0,0.0,0.0,0.0,0.0,0.0,0.0,0.0,0.0,0.0,0.0,0.0,0.0,0.0,0.0,0.0,0.0,0.0,0.0,0.0,0.0,0.0,0.0,0.0,0.0,0.0,0.0,0.0,0.0,0.0,0.0,0.0,0.0,0.0,0.0,0.0,0.0,0.0,0.0,0.0,0.0,0.0,0.0,0.0,0.0,0.0,0.0,0.0,0.0,0.0,0.0,0.0,0.0,0.0,0.0,0.0,0.0,0.0,0.0,0.0,0.0,0.0,0.0,0.0,0.0,0.0,0.0,0.0,0.0,0.0,0.0,0.0,0.0,0.0,0.0,0.0,0.0,0.0,-4.0312,-4.3546,-4.7163,-4.8165,-4.9033,-4.996,-4.8602,-4.6361,-4.3142,0.0,0.0,0.0,0.0,0.0,0.0,0.0,0.0,0.0,0.0,0.0,0.0,0.0,0.0,0.0,0.0,0.0,0.0,0.0,0.0,0.0,0.0,0.0,0.0,0.0,0.0,0.0,0.0,0.0,0.0,0.0,0.0,0.0,0.0,0.0,0.0,0.0,0.0,-3.6904,-3.7909,0.0,0.0,0.0,0.0,0.0,0.0,0.0,0.0,-4.181,0.0,0.0,0.0,0.0,0.0,0.0,0.0,0.0,0.0,0.0,0.0,0.0,0.0,0.0,0.0,0.0,0.0,0.0,0.0,0.0,0.0,0.0,0.0,0.0,0.0,0.0,0.0,0.0,0.0,0.0,0.0,0.0,0.0,0.0,0.0,0.0,0.0,0.0,0.0,0.0,0.0,0.0,0.0,0.0,0.0,0.0,0.0,0.0,0.0,0.0,0.0,0.0,0.0,0.0,0.0,0.0,-3.9338,-4.1697,-4.4785,-4.8652,-4.9885,-5.0296,-4.9988,-4.9206,-4.7058,-4.3465,0.0,0.0,0.0,0.0,0.0,0.0,0.0,0.0,0.0,0.0,0.0,0.0,0.0,0.0,0.0,0.0,0.0,0.0,0.0,0.0,0.0,0.0,0.0,0.0,0.0,0.0,0.0,0.0,0.0,0.0,0.0,0.0,0.0,0.0,0.0,0.0,0.0,0.0,0.0,-3.8691,-3.9141,0.0,0.0,0.0,0.0,0.0,0.0,0.0,0.0,-4.3508,0.0,0.0,0.0,0.0,0.0,0.0,0.0,0.0,0.0,0.0,0.0,0.0,0.0,0.0,0.0,0.0,0.0,0.0,0.0,0.0,0.0,0.0,0.0,0.0,0.0,0.0,0.0,0.0,0.0,0.0,0.0,0.0,0.0,0.0,0.0,0.0,0.0,0.0,0.0,0.0,0.0,0.0,0.0,0.0,0.0,0.0,0.0,0.0,0.0,0.0,0.0,0.0,0.0,0.0,0.0,-3.9866,-4.2528,-4.5526,-4.8923,-4.9087,-4.9337,-4.9932,-4.8159,-4.5928,0.0,0.0,0.0,0.0,0.0,0.0,0.0,0.0,0.0,0.0,0.0,0.0,0.0,0.0,0.0,0.0,0.0,0.0,0.0,0.0,0.0,0.0,0.0,0.0,0.0,0.0,0.0,0.0,0.0,0.0,0.0,0.0,0.0,0.0,0.0,0.0,0.0,0.0,0.0,0.0,-4.016,-4.1306,-4.2979,0.0,0.0,0.0,0.0,0.0,0.0,-4.4582,-4.3973,0.0,0.0,0.0,0.0,0.0,0.0,0.0,0.0,0.0,0.0,0.0,0.0,0.0,0.0,0.0,0.0,0.0,0.0,0.0,0.0,0.0,0.0,0.0,0.0,0.0,0.0,0.0,0.0,0.0,0.0,0.0,0.0,0.0,0.0,0.0,0.0,0.0,0.0,0.0,0.0,0.0,0.0,0.0,0.0,0.0,0.0,0.0,0.0,0.0,0.0,0.0,0.0,0.0,0.0,0.0,-4.0247,-4.2968,-4.5886,-4.8919,-4.8016,-4.8163,-4.9535,-4.6888,-4.4754,0.0,0.0,0.0,0.0,0.0,0.0,0.0,0.0,0.0,0.0,0.0,0.0,0.0,0.0,0.0,0.0,0.0,0.0,0.0,0.0,0.0,0.0,0.0,0.0,0.0,0.0,0.0,0.0,0.0,0.0,0.0,0.0,0.0,0.0,0.0,0.0,0.0,0.0,0.0,0.0,0.0,-4.2869,-4.4729,-4.4666,0.0,0.0,0.0,0.0,-4.6677,-4.5932,0.0,0.0,0.0,0.0,0.0,0.0,0.0,0.0,0.0,0.0,0.0,0.0,0.0,0.0,0.0,0.0,0.0,0.0,0.0,0.0,0.0,0.0,0.0,0.0,0.0,0.0,0.0,0.0,0.0,0.0,0.0,0.0,0.0,0.0,0.0,0.0,0.0,0.0,0.0,0.0,0.0,0.0,0.0,0.0,0.0,0.0,0.0,0.0,0.0,0.0,0.0,0.0,0.0,0.0,0.0,0.0,-4.0791,-4.3175,-4.5931,-4.8859,-4.8432,-4.8181,-4.8409,-4.6452,-4.456,0.0,0.0,0.0,0.0,0.0,0.0,0.0,0.0,0.0,0.0,0.0,0.0,0.0,0.0,0.0,0.0,0.0,0.0,0.0,0.0,0.0,0.0,0.0,0.0,0.0,0.0,0.0,0.0,0.0,0.0,0.0,0.0,0.0,0.0,0.0,0.0,0.0,0.0,0.0,0.0,0.0,-4.1734,-4.4014,-4.4109,-4.4041,0.0,0.0,-4.8857,-4.9098,-4.9534,0.0,0.0,0.0,0.0,0.0,0.0,0.0,0.0,0.0,0.0,0.0,0.0,0.0,0.0,0.0,0.0,0.0,0.0,0.0,0.0,0.0,0.0,0.0,0.0,0.0,0.0,0.0,0.0,0.0,0.0,0.0,0.0,0.0,0.0,0.0,0.0,0.0,0.0,0.0,0.0,0.0,0.0,0.0,0.0,0.0,0.0,0.0,0.0,0.0,0.0,0.0,0.0,0.0,0.0,0.0,-3.8293,-4.1174,-4.4064,-4.675,-4.8935,-4.7853,-4.7551,-4.8192,-4.5132,-4.3024,0.0,0.0,0.0,0.0,0.0,0.0,0.0,0.0,0.0,0.0,0.0,0.0,0.0,0.0,0.0,0.0,0.0,0.0,0.0,0.0,0.0,0.0,0.0,0.0,0.0,0.0,0.0,0.0,0.0,0.0,0.0,0.0,0.0,0.0,0.0,0.0,0.0,0.0,0.0,0.0,0.0,0.0,-4.6313,-4.6664,0.0,0.0,0.0,-4.8239,-4.8335,0.0,0.0,0.0,0.0,0.0,0.0,0.0,0.0,0.0,0.0,0.0,0.0,0.0,0.0,0.0,0.0,0.0,0.0,0.0,0.0,0.0,0.0,0.0,0.0,0.0,0.0,0.0,0.0,0.0,0.0,0.0,0.0,0.0,0.0,0.0,0.0,0.0,0.0,0.0,0.0,0.0,0.0,0.0,0.0,0.0,0.0,0.0,0.0,0.0,0.0,0.0,0.0,0.0,0.0,0.0,0.0,0.0,-4.1324,-4.4722,-4.7171,-4.855,-4.728,-4.6843,-4.7431,-4.4086,0.0,0.0,0.0,0.0,0.0,0.0,0.0,0.0,0.0,0.0,0.0,0.0,0.0,0.0,0.0,0.0,0.0,0.0,0.0,0.0,0.0,0.0,0.0,0.0,0.0,0.0,0.0,-3.1279,0.0,0.0,0.0,0.0,0.0,0.0,0.0,0.0,0.0,0.0,0.0,0.0,0.0,0.0,-4.5697,-4.7453,-4.8418,-4.9165,0.0,0.0,-4.8486,-4.8717,-4.9302,-4.8829,0.0,0.0,0.0,0.0,0.0,0.0,0.0,0.0,0.0,0.0,0.0,0.0,0.0,0.0,0.0,0.0,0.0,0.0,0.0,0.0,0.0,0.0,0.0,0.0,0.0,0.0,0.0,0.0,0.0,0.0,0.0,0.0,0.0,0.0,0.0,0.0,0.0,0.0,0.0,0.0,0.0,0.0,0.0,0.0,0.0,0.0,0.0,0.0,0.0,0.0,0.0,0.0,0.0,0.0,0.0,-4.135,-4.4722,-4.6843,-4.7419,-4.6787,-4.6294,-4.5773,-4.3859,-4.1967,0.0,0.0,0.0,0.0,0.0,0.0,0.0,0.0,0.0,0.0,0.0,0.0,0.0,0.0,0.0,0.0,0.0,0.0,0.0,0.0,0.0,0.0,0.0,0.0,0.0,0.0,0.0,0.0,0.0,0.0,0.0,0.0,0.0,0.0,0.0,0.0,0.0,0.0,0.0,0.0,0.0,-4.4551,-4.5602,-4.7658,-4.9292,0.0,0.0,-5.1614,-5.2156,-5.3044,-5.2615,-4.9326,0.0,0.0,0.0,0.0,0.0,0.0,0.0,0.0,0.0,0.0,0.0,0.0,0.0,0.0,0.0,0.0,0.0,0.0,0.0,0.0,0.0,0.0,0.0,0.0,0.0,0.0,0.0,0.0,0.0,0.0,0.0,0.0,0.0,0.0,0.0,0.0,0.0,0.0,0.0,0.0,0.0,0.0,0.0,0.0,0.0,0.0,0.0,0.0,0.0,0.0,0.0,0.0,0.0,-3.8834,-4.1123,-4.4668,-4.6761,-4.7283,-4.6761,-4.6212,-4.5637,-4.3572,-4.1908,0.0,0.0,0.0,0.0,0.0,0.0,0.0,0.0,0.0,0.0,0.0,0.0,0.0,0.0,0.0,0.0,0.0,0.0,0.0,0.0,0.0,0.0,0.0,0.0,0.0,0.0,0.0,0.0,-3.7168,-3.7429,-3.675,0.0,0.0,0.0,0.0,0.0,0.0,0.0,0.0,0.0,0.0,-4.5985,-4.8383,-5.0001,0.0,0.0,-5.2156,-5.2339,-5.1962,-5.261,-5.1929,-4.8384,-4.7677,0.0,0.0,0.0,0.0,0.0,0.0,0.0,0.0,0.0,0.0,0.0,0.0,0.0,0.0,0.0,0.0,0.0,0.0,0.0,0.0,0.0,0.0,0.0,0.0,0.0,0.0,0.0,0.0,0.0,0.0,0.0,0.0,0.0,0.0,0.0,0.0,0.0,0.0,0.0,0.0,0.0,0.0,0.0,0.0,0.0,0.0,0.0,0.0,0.0,0.0,0.0,0.0,-3.8636,-4.0763,-4.4353,-4.6421,-4.6756,-4.6421,-4.595,-4.5323,-4.3624,-4.213,0.0,0.0,0.0,0.0,0.0,0.0,0.0,0.0,0.0,0.0,0.0,0.0,0.0,0.0,0.0,0.0,0.0,0.0,0.0,0.0,0.0,0.0,0.0,0.0,0.0,0.0,0.0,0.0,-3.7874,-3.79,-3.709,0.0,0.0,0.0,0.0,0.0,0.0,0.0,0.0,0.0,0.0,-4.7553,-4.9945,-5.1347,-5.223,-5.2439,-5.2619,-5.2387,-5.1471,-5.2018,-5.1519,-4.8706,0.0,0.0,0.0,0.0,0.0,0.0,0.0,0.0,0.0,0.0,0.0,0.0,0.0,0.0,0.0,0.0,0.0,0.0,0.0,0.0,0.0,0.0,0.0,0.0,0.0,0.0,0.0,-3.0037,0.0,0.0,-2.9316,0.0,0.0,0.0,0.0,0.0,0.0,0.0,0.0,0.0,0.0,0.0,0.0,0.0,0.0,0.0,0.0,0.0,0.0,0.0,0.0,0.0,0.0,-3.8454,-4.0143,-4.3752,-4.5663,-4.5634,-4.5663,-4.5375,-4.4774,-4.4147,-4.271,-4.0166,0.0,0.0,0.0,0.0,0.0,0.0,0.0,0.0,0.0,0.0,0.0,0.0,0.0,0.0,0.0,0.0,0.0,0.0,0.0,0.0,0.0,0.0,0.0,0.0,0.0,0.0,-3.4763,-3.6044,-3.7037,0.0,0.0,0.0,0.0,0.0,0.0,0.0,0.0,0.0,0.0,-4.6671,-4.9018,-4.9241,-5.0946,-5.2002,-5.1457,-5.1868,-5.1912,-5.1076,-5.1838,-5.2178,0.0,0.0,0.0,0.0,0.0,0.0,0.0,0.0,0.0,0.0,0.0,0.0,0.0,0.0,0.0,0.0,0.0,0.0,0.0,0.0,0.0,0.0,0.0,0.0,0.0,0.0,0.0,-3.1632,-3.1163,0.0,0.0,0.0,0.0,0.0,0.0,0.0,0.0,0.0,0.0,0.0,-3.6387,-3.7013,0.0,0.0,0.0,0.0,0.0,0.0,0.0,0.0,0.0,0.0,0.0,0.0,-3.8759,-4.0512,-4.3854,-4.5611,-4.5611,-4.5611,-4.5268,-4.4668,-4.4173,-4.2501,-3.9599,0.0,0.0,0.0,0.0,0.0,0.0,0.0,0.0,0.0,0.0,0.0,0.0,0.0,0.0,0.0,0.0,0.0,0.0,0.0,0.0,0.0,0.0,0.0,0.0,0.0,-3.6698,0.0,0.0,0.0,0.0,0.0,0.0,0.0,0.0,0.0,0.0,0.0,-4.2891,-4.5494,-4.6702,-4.8135,-5.0323,-5.1315,-5.2002,0.0,0.0,0.0,0.0,0.0,0.0,0.0,0.0,0.0,0.0,0.0,0.0,0.0,0.0,-4.6691,-4.4829,-4.4841,-4.5401,-4.6195,0.0,0.0,0.0,0.0,0.0,0.0,0.0,0.0,0.0,0.0,0.0,0.0,0.0,0.0,-3.4154,0.0,-3.3073,0.0,0.0,0.0,0.0,0.0,0.0,0.0,0.0,-3.8282,-3.9317,-3.944,-3.9799,-3.9792,0.0,-3.8463,-3.6206,0.0,0.0,0.0,0.0,0.0,0.0,0.0,0.0,-3.9,-4.0361,-4.3567,-4.5323,-4.5323,-4.5268,-4.514,-4.4668,-4.399,-4.2397,-4.0008,-3.8434,-3.6418,0.0,0.0,0.0,0.0,0.0,0.0,0.0,0.0,0.0,0.0,0.0,0.0,0.0,0.0,0.0,0.0,0.0,0.0,0.0,0.0,0.0,0.0,0.0,-3.7717,0.0,0.0,0.0,0.0,0.0,0.0,0.0,0.0,0.0,-4.0491,-4.2536,-4.4941,-4.7432,-4.8164,-4.9173,-5.1016,0.0,0.0,0.0,0.0,0.0,0.0,0.0,-5.1265,-5.0646,-5.0191,-4.9978,-5.0138,-5.0445,-5.0668,-5.0875,0.0,0.0,-4.7808,-4.775,-4.8335,-4.9375,-4.9922,-5.0194,-5.0005,-5.0354,-5.0745,0.0,0.0,0.0,0.0,0.0,0.0,0.0,0.0,-3.7117,-3.7617,0.0,-3.637,0.0,0.0,0.0,0.0,0.0,-3.7637,0.0,0.0,-4.2703,-4.3717,-4.2787,-4.2682,-4.2216,-4.1402,-4.0305,-3.9107,-3.7854,-3.4822,0.0,0.0,0.0,0.0,0.0,0.0,-3.9231,-3.9873,-4.3047,-4.4694,-4.4694,-4.4694,-4.4694,-4.4696,-4.3597,-4.2526,-4.135,-3.9703,-3.7978,-3.6227,-3.5077,0.0,0.0,0.0,0.0,0.0,0.0,0.0,0.0,0.0,0.0,0.0,0.0,0.0,0.0,0.0,0.0,0.0,0.0,0.0,0.0,-3.7299,0.0,0.0,0.0,0.0,0.0,0.0,0.0,0.0,0.0,0.0,-4.2457,-4.5248,-4.7836,-4.9029,0.0,0.0,0.0,0.0,-5.1788,-5.0766,-5.0794,-5.0602,-4.9498,-5.0492,-5.1654,-5.2602,0.0,0.0,-5.3211,-5.2565,-5.2278,-5.2787,-5.3073,-5.2561,-5.0455,-5.0077,-5.03,-5.0953,-5.2368,-5.3207,-5.2892,-5.3645,-5.4401,-4.0523,0.0,0.0,0.0,0.0,-3.9445,-3.9491,-3.9677,-3.9992,-3.9994,-3.9688,-3.9095,0.0,0.0,0.0,0.0,0.0,0.0,-4.0517,-4.1828,-4.3562,-4.4294,-4.425,-4.4587,-4.4405,-4.3755,-4.3023,-4.2056,-4.0932,-3.9462,-3.7149,-3.4202,0.0,0.0,0.0,0.0,-4.0026,-4.1285,-4.3517,-4.4694,-4.4694,-4.4694,-4.4694,-4.4694,-4.4016,-4.3101,-4.1977,-4.1063,-3.9573,-3.7482,-3.6671,0.0,0.0,0.0,0.0,0.0,0.0,0.0,0.0,0.0,0.0,0.0,0.0,0.0,0.0,0.0,0.0,0.0,0.0,0.0,-3.8449,-3.9651,-3.9886,0.0,0.0,0.0,0.0,0.0,0.0,0.0,0.0,0.0,-4.6179,-4.6652,-4.7695,0.0,0.0,-4.9994,-5.0656,-5.1237,-5.1569,-5.1456,-5.1871,0.0,-5.204,-5.2235,-5.2458,-5.2738,-5.3726,-5.446,-5.446,-5.5154,-5.5604,-5.527,-5.5253,-5.5086,-5.4514,-5.4022,-5.3979,-5.4573,-5.5415,-5.5987,-5.5863,-5.6145,-5.6316,-4.3986,-4.2761,-4.1888,-4.1618,-4.1788,-4.2127,-4.2357,-4.2604,-4.3022,-4.3127,-4.2962,-4.1972,-4.1437,-4.1226,-4.0159,0.0,0.0,0.0,-4.2651,-4.4219,-4.5019,-4.5545,-4.5794,-4.5787,-4.5552,-4.5088,-4.4278,-4.3572,-4.2892,-4.1852,-4.0117,-3.764,0.0,0.0,-3.7694,-3.9818,-4.1311,-4.219,-4.3804,-4.4694,-4.4694,-4.4694,-4.4694,-4.4668,-4.4173,-4.3441,-4.2526,-4.1951,-4.0801,-3.8998,-3.8344,-3.7194,0.0,0.0,0.0,0.0,0.0,0.0,0.0,0.0,0.0,0.0,0.0,-3.3718,-3.2934,0.0,0.0,0.0,-3.7769,-3.9024,-4.1115,-4.1607,0.0,0.0,0.0,0.0,0.0,0.0,0.0,-4.3494,-4.5678,-4.7513,-4.8406,-4.8163,-4.8563,-5.0126,-4.9991,-4.9965,-5.06,0.0,-5.1789,-5.1818,-5.2399,-5.2872,-5.3044,-5.341,-5.3862,-5.4515,-5.5282,-5.5993,-5.6275,-5.7056,-5.7453,-5.7072,-5.6765,-5.6466,-5.6226,-5.5909,-5.5931,-5.6773,-5.7244,-5.7573,-5.7812,-5.7902,-5.7902,-4.6626,-4.61,-4.3255,-4.2563,-4.3369,-4.44,-4.5117,-4.5636,-4.5922,-4.6489,-4.6975,-4.4797,-4.4123,-4.475,-4.3022,0.0,-4.3769,-4.4097,-4.5037,-4.6578,-4.6866,-4.71,-4.7252,-4.6477,-4.5983,-4.5686,-4.4565,-4.4042,-4.4016,-4.2736,-4.2061,-4.2061,-4.0744,-4.0026,-4.0,-4.1724,-4.2735,-4.2813,-4.4066,-4.4694,-4.4694,-4.4694,-4.4668,-4.4643,-4.4147,-4.3572,-4.2971,-4.2448,-4.1638,-4.054,-3.9939,-3.9102,-3.7978,0.0,0.0,0.0,0.0,0.0,0.0,0.0,0.0,0.0,0.0,0.0,0.0,0.0,0.0,0.0,-4.0488,0.0,-4.3807,-4.3335,0.0,0.0,0.0,-4.3192,-4.3977,-4.4724,-4.5654,-4.6953,0.0,0.0,-4.9557,-4.9831,-5.0326,-5.1405,-5.146,-5.1266,-5.1017,-5.1766,-5.2267,-5.2124,-5.2565,-5.301,-5.3264,-5.4174,-5.5367,-5.6734,-5.7274,-5.7411,-5.7915,-5.8132,-5.8144,-5.7892,-5.7453,-5.6855,-5.6256,-5.6166,-5.6555,-5.7723,-5.7962,-5.8201,-5.871,-5.886,-5.886,-4.6506,-4.6576,-4.5598,-4.5456,-4.5902,-4.5917,-4.6043,-4.6162,-4.6459,-4.6476,-4.6188,-4.5841,-4.5571,-4.5309,-4.515,-4.5417,-4.6073,-4.6373,-4.6752,-4.7096,-4.7644,-4.7696,-4.7278,-4.7064,-4.6934,-4.6865,-4.5767,-4.5428,-4.5794,-4.4642,-4.4248,-4.4639,-4.3908,-4.2788,-4.1388,-4.2242,-4.2995,-4.3623,-4.4328,-4.4694,-4.4694,-4.4694,-4.4513,-4.4095,-4.3938,-4.3441,-4.2422,-4.2239,-4.1847,-4.1115,-4.0148,-3.9285,-3.8527,-3.6227,0.0,0.0,0.0,0.0,0.0,0.0,0.0,0.0,0.0,-3.5678,-3.4476,0.0,-3.9102,0.0,-4.216,-4.4095,-4.4567,-4.5154,0.0,0.0,-4.5229,-4.5644,-4.5574,-4.7092,-4.8098,-4.7926,-4.9827,-5.1072,-5.0989,-5.1794,-5.2546,-5.3023,-5.1906,-5.1183,-5.1514,-5.2433,-5.3102,-5.349,-5.425,-5.4814,-5.4874,-5.511,-5.5764,-5.7075,-5.7231,-5.7471,-5.8107,-5.811,-5.7952,-5.7453,-5.6825,-5.6376,-5.6218,-5.6218,-5.6436,-5.7154,-5.7334,-5.7543,-5.8201,-5.8351,-5.8501,-4.6421,-4.6566,-4.6541,-4.6541,-4.6566,-4.6793,-4.6894,-4.692,-4.7281,-4.7078,-4.6654,-4.6696,-4.6649,-4.6515,-4.6829,-4.7184,-4.7496,-4.7644,-4.7702,-4.7728,-4.8041,-4.8015,-4.7702,-4.7383,-4.7278,-4.7252,-4.6421,-4.6159,-4.6421,-4.582,-4.5558,-4.5611,-4.5242,-4.4405,-4.3178,-4.3412,-4.3778,-4.4251,-4.4565,-4.4694,-4.4668,-4.4487,-4.4199,-4.3939,-4.3441,-4.2786,-4.2023,-4.1734,-4.129,-4.0687,-4.0057,-3.9537,-3.9102,-3.7168,-3.5783,0.0,0.0,0.0,0.0,0.0,0.0,0.0,0.0,0.0,0.0,0.0,-4.0566,-4.1089,-4.3572,-4.5286,-4.5549,-4.6491,-4.6975,-4.6759,-4.7432,-4.7997,-4.8206,-4.9223,-5.0019,-5.018,-5.1542,-5.2491,-5.2407,-5.2995,-5.3499,-5.3669,-5.2771,-5.2296,-5.2658,-5.3329,-5.3917,-5.4338,-5.5218,-5.5993,-5.6222,-5.6187,-5.643,-5.7034,-5.7207,-5.7304,-5.763,-5.769,-5.7453,-5.6795,-5.6406,-5.6128,-5.5807,-5.5748,-5.5867,-5.6137,-5.6256,-5.6585,-5.7453,-5.7663,-5.7812,-4.6361,-4.6421,-4.6721,-4.6661,-4.6471,-4.7227,-4.7551,-4.7551,-4.7793,-4.7793,-4.7561,-4.7317,-4.7383,-4.7645,-4.7997,-4.8114,-4.8114,-4.8198,-4.8172,-4.8172,-4.8172,-4.8172,-4.8146,-4.7675,-4.744,-4.7414,-4.6865,-4.663,-4.6708,-4.6552,-4.6238,-4.5741,-4.5663,-4.5323,-4.4748,-4.4694,-4.4694,-4.4694,-4.4694,-4.4696,-4.4617,-4.4121,-4.386,-4.3677,-4.2735,-4.1999,-4.1568,-4.1041,-4.0513,-3.9934,-3.9849,-3.9854,-3.9795,-3.8221,-3.74,0.0,-3.6078,0.0,0.0,0.0,0.0,0.0,0.0,0.0,0.0,-4.0877,-4.2105,-4.3232,-4.497,-4.6277,-4.6784,-4.7649,-4.8489,-4.9226,-4.9666,-5.0161,-5.0934,-5.1072,-5.1544,-5.2602,-5.2826,-5.3164,-5.3697,-5.3838,-5.3922,-5.3978,-5.395,-5.3922,-5.4064,-5.4345,-5.4597,-5.4796,-5.5709,-5.6448,-5.6786,-5.6908,-5.6888,-5.7027,-5.6982,-5.7004,-5.7154,-5.7034,-5.6795,-5.6316,-5.6158,-5.5888,-5.5269,-5.5209,-5.5209,-5.5269,-5.5299,-5.5658,-5.6675,-5.7027,-5.7056,-4.684,-4.7027,-4.7087,-4.7112,-4.7053,-4.7189,-4.7146,-4.6958,-4.7018,-4.7112,-4.724,-4.7257,-4.7265,-4.7324,-4.7645,-4.7821,-4.7821,-4.8055,-4.8172,-4.8172,-4.8172,-4.8172,-4.8172,-4.8068,-4.8015,-4.7989,-4.744,-4.7414,-4.7858,-4.6917,-4.6421,-4.629,-4.5846,-4.5268,-4.472,0.0,0.0,0.0,-4.4694,-4.4513,-4.4042,-4.3991,-4.3468,-4.2578,-4.2342,0.0,-4.0694,-4.0732,-4.0513,-3.9955,-3.9667,0.0,0.0,0.0,0.0,0.0,0.0,0.0,0.0,0.0,0.0,0.0,-4.1788,-4.1512,-4.0428,-4.2195,-4.3932,-4.5103,-4.676,-4.8029,-4.8597,-4.9638,-5.0354,-5.0519,-5.1044,-5.1456,-5.1623,-5.2043,-5.2491,-5.2686,-5.3585,-5.4259,-5.44,-5.485,-5.5131,-5.5074,-5.5159,-5.5391,-5.5794,-5.5138,-5.5024,-5.5851,-5.6277,-5.6372,-5.6354,-5.6043,-5.6196,-5.6728,-5.6645,-5.6555,-5.6885,-5.6615,-5.6346,-5.6188,-5.5748,-5.5359,-5.5209,-5.5209,-5.5209,-5.5209,-5.5209,-5.5418,-5.6218,-5.6552,-5.6805,-4.7053,-4.7205,-4.7383,-4.7324,0.0,-4.7383,-4.7324,-4.7257,-4.7053,-4.7112,-4.7205,-4.7383,-4.7442,-4.7442,-4.7795,-4.7938,-4.7938,-4.8114,-4.8172,-4.8172,-4.8172,-4.8172,-4.8172,-4.8172,-4.8172,-4.8172,-4.7885,-4.7911,-4.8146,-4.7597,-4.7179,-4.6891,-4.6342,-4.5741,-4.5111,-4.4824,-4.4694,-4.4694,-4.4694,-4.4591,-4.4304,-4.3755,-4.318,-4.2605,-4.203,0.0,0.0,0.0,0.0,0.0,0.0,0.0,0.0,0.0,0.0,-4.2312,-4.203,-4.215,-4.3095,-4.3671,-4.4208,-4.4787,-4.5117,-4.438,-4.2272,-4.3987,-4.5529,-4.649,-4.7865,-4.9063,-4.9912,-5.0823,-5.1348,-5.1348,-5.1623,-5.1787,-5.1843,-5.2321,-5.2826,-5.322,-5.4007,-5.4681,-5.5018,-5.5271,-5.5496,-5.5496,-5.5496,-5.5729,-5.6222,-5.5908,-5.5908,-5.7076,-5.6919,-5.6715,-5.6634,-5.6436,-5.6043,-5.6175,-5.5897,-5.5837,-5.6107,-5.5897,-5.5688,-5.5658,-5.5388,-5.5209,-5.5209,-5.5209,-5.5209,-5.5209,-5.5209,-5.5269,-5.5628,-5.584,-5.5951,-4.7324,-4.7383,-4.7703,-4.7645,-4.7383,-4.7703,-4.7762,-4.7762,0.0,0.0,0.0,-4.7703,-4.7821,-4.7795,-4.8055,-4.8172,-4.8172,-4.8172,-4.8172,-4.8172,-4.8172,-4.8172,-4.8172,-4.8172,-4.8172,-4.8172,-4.8172,-4.8172,-4.8172,-4.8172,-4.7885,-4.7278,-4.6761,-4.6133,-4.548,-4.4903,-4.4694,-4.4694,-4.4694,-4.467,-4.4565,-4.3598,-4.3075,-4.297,-4.21,-4.1482,-4.1095,-4.0686,-4.0408,-4.035,-4.0282,-4.0725,-4.1619,-4.2128,-4.2838,-4.376,-4.4142,-4.4762,-4.5801,-4.6308,-4.7003,-4.7864,-4.7931,-4.7035,-4.4848,-4.5981,-4.7162,-4.7972,-4.8953,-4.9996,-5.1017,-5.1513,-5.1787,-5.1787,-5.1787,-5.1815,-5.1983,-5.2489,-5.3135,-5.3754,-5.44,-5.4992,-5.5558,-5.5554,-5.5613,-5.5787,-5.5787,-5.5933,-5.6509,-5.6765,-5.6962,-5.7684,-5.7517,-5.7339,-5.7116,-5.7012,-5.6645,-5.5688,-5.5448,-5.5329,-5.5239,-5.5209,-5.5179,-5.534,-5.528,-5.528,-5.533,-5.533,-5.528,-5.528,-5.5259,-5.5209,-5.5209,-5.5209,-5.5289,-4.7821,-4.8055,-4.8114,-4.8114,-4.8055,-4.8114,-4.8114,-4.8114,-4.8055,-4.8055,-4.8055,-4.8114,-4.8114,-4.8114,-4.8198,-4.8172,-4.8172,-4.8172,-4.8172,-4.8172,-4.8172,-4.8172,-4.8172,-4.8172,-4.8172,-4.8172,-4.8172,-4.8172,-4.8172,-4.8172,-4.7885,-4.7278,-4.6761,-4.595,-4.4931,-4.472,-4.4694,-4.4694,-4.4694,-4.4487,-4.399,-4.3807,-4.3431,-4.2926,-4.2905,-4.2692,-4.2214,-4.248,-4.2582,-4.2479,-4.266,-4.3356,-4.4603,-4.5259,-4.6223,-4.757,-4.8307,-4.865,-4.8706,-4.9184,-4.9319,-4.9108,-4.9171,-4.8757,-4.776,-4.8124,-4.8998,-5.0232,-5.0928,-5.1565,-5.195,-5.1841,-5.1787,-5.1787,-5.1787,-5.1983,-5.2461,-5.3135,-5.381,-5.4401,-5.499,-5.5588,-5.6078,-5.5845,-5.5961,-5.668,-5.6623,-5.668,-5.7528,-5.7918,-5.7739,-5.7517,-5.7689,-5.7683,-5.7334,-5.7124,-5.6825,-5.6218,-5.6038,-5.5777,-5.5269,-5.5209,-5.528,-5.5481,-5.5481,-5.5581,-5.578,-5.5681,-5.5581,-5.5531,-5.5381,-5.5229,-5.5229,-5.528,-5.533,-4.8055,-4.8172,-4.8172,-4.8172,-4.8172,-4.8172,-4.8172,-4.8172,-4.8172,-4.8172,-4.8172,-4.8172,-4.8172,-4.8172,-4.8172,-4.8172,-4.8172,-4.8172,-4.8172,-4.8172,-4.8172,-4.8172,-4.8172,-4.8172,-4.8172,-4.8172,-4.8172,-4.8172,-4.8172,-4.8172,-4.8041,-4.7754,-4.6917,-4.6055,-4.5245,-4.4879,-4.4694,-4.4694,-4.4694,-4.4591,-4.433,-4.3965,-4.3742,-4.36,-4.3384,-4.3286,-4.3407,-4.3659,-4.4026,-4.448,-4.4908,-4.5625,-4.6697,-4.7258,-4.7941,-4.8799,-4.9245,-4.9498,-4.9513,-4.996,-5.0281,-5.024,-5.0283,-5.0392,-5.0588,-5.0157,-5.0197,-5.0857,-5.1285,-5.1732,-5.2113,-5.195,-5.1787,-5.1787,-5.2068,-5.2405,-5.2742,-5.3613,-5.4431,-5.5026,-5.5622,-5.6222,-5.6794,-5.6623,-5.6623,-5.7247,-5.7247,-5.764,-5.814,-5.847,-5.8545,-5.8302,-5.819,-5.7969,-5.7723,-5.7663,-5.7244,-5.6346,-5.6218,-5.5897,-5.5329,-5.5179,-5.5229,-5.533,-5.5511,-5.5631,-5.578,-5.583,-5.583,-5.578,-5.5581,-5.5481,-5.5581,-5.5731,-5.583,-4.8172,-4.8172,-4.8172,-4.8172,-4.8172,-4.8172,-4.8172,-4.8172,-4.8172,-4.8172,-4.8172,-4.8172,-4.8172,-4.8172,-4.8172,-4.8172,-4.8172,-4.8172,-4.8172,-4.8172,-4.8172,-4.8172,-4.8172,-4.8172,-4.8172,-4.8172,-4.8172,-4.8172,-4.8172,-4.8172,-4.8041,-4.7728,-4.6787,-4.6003,-4.5428,-4.4957,-4.4694,-4.4694,-4.4694,-4.4694,-4.4696,-4.4229,-4.4216,-4.4668,-4.4337,-4.4403,-4.5202,-4.536,-4.5746,-4.6546,-4.7067,-4.7688,-4.8402,-4.8936,-4.9224,-4.938,-4.9851,-5.0147,-5.0143,-5.0233,-5.0623,-5.1141,-5.1216,-5.1699,-5.2581,-5.1928,-5.1431,-5.1459,-5.1614,-5.1869,-5.2195,-5.2174,-5.1983,-5.204,-5.2405,-5.2882,-5.3331,-5.4121,-5.497,-5.5736,-5.6336,-5.6851,-5.7303,-5.736,-5.736,-5.7528,-5.8029,-5.836,-5.847,-5.8828,-5.9099,-5.9009,-5.868,-5.8411,-5.8351,-5.8171,-5.7633,-5.6526,-5.6256,-5.5897,-5.5439,-5.5229,-5.533,-5.5431,-5.5631,-5.583,-5.588,-5.5979,-5.6077,-5.6077,-5.588,-5.578,-5.5929,-5.6206,-5.6354,-4.8172,-4.8172,-4.8172,-4.8172,-4.8172,-4.8172,-4.8172,-4.8172,-4.8172,-4.8172,-4.8224,-4.8172,-4.8198,-4.8172,-4.8172,-4.8172,-4.8172,-4.8172,-4.8172,-4.8172,-4.8172,-4.8172,-4.8172,-4.8172,-4.8172,-4.8172,-4.8172,-4.8172,-4.8172,-4.8172,-4.7649,-4.6682,-4.6003,-4.5454,-4.4824,-4.472,-4.4694,-4.4694,-4.4694,-4.4694,-4.4696,-4.4653,-4.5194,-4.6412,-4.653,-4.708,-4.8001,-4.8411,-4.8609,-4.888,-4.9179,-4.9432,-4.9775,-5.0557,-5.0773,-5.015,-5.1288,-5.188,-5.14,-5.0466,-5.0548,-5.1571,-5.1983,-5.2449,-5.3216,-5.3302,-5.3256,-5.3097,-5.2791,-5.2525,-5.2684,-5.2648,-5.2573,-5.2656,-5.2797,-5.3359,-5.4685,-5.4824,-5.5219,-5.696,-5.7133,-5.7472,-5.7918,-5.7751,-5.7584,-5.8085,-5.8555,-5.8936,-5.8936,-5.8991,-5.9099,-5.9099,-5.9009,-5.8979,-5.889,-5.8471,-5.7812,-5.7094,-5.6496,-5.5957,-5.5469,-5.5381,-5.5631,-5.5681,-5.6028,-5.6274,-5.647,-5.6567,-5.6372,-5.6323,-5.6176,-5.5979,-5.6028,-5.6415,-5.6592,-4.8172,-4.8172,-4.8172,-4.8172,-4.8172,-4.8172,-4.8172,-4.8172,-4.8172,-4.8381,-4.8695,-4.8721,-4.8512,-4.8198,-4.8172,-4.8172,-4.8172,-4.8172,-4.8172,-4.8172,-4.8172,-4.8172,-4.8172,-4.8172,-4.8172,-4.8172,-4.8172,-4.8172,-4.812,-4.7858,-4.7257,-4.6499,-4.5898,-4.5451,-4.519,-4.4905,-4.4694,-4.4694,-4.4694,-4.4938,-4.5475,-4.5727,-4.6192,-4.6861,-4.7521,-4.8311,-4.9103,-4.9522,-4.9868,-5.0261,-5.0759,-5.0971,-5.0895,-5.1121,-5.0996,-5.0496,-5.1107,-5.153,-5.156,-5.1572,-5.2082,-5.3147,-5.3015,-5.318,-5.384,-5.4061,-5.4081,-5.3867,-5.3189,-5.2988,-5.3568,-5.3109,-5.2786,-5.3236,-5.3854,-5.4531,-5.4823,-5.5729,-5.6669,-5.7637,-5.7807,-5.8029,-5.8555,-5.8525,-5.847,-5.8719,-5.8991,-5.9099,-5.9099,-5.9099,-5.9099,-5.9099,-5.9099,-5.9099,-5.9039,-5.856,-5.7872,-5.7214,-5.6585,-5.5957,-5.5439,-5.528,-5.5431,-5.5731,-5.6028,-5.6323,-5.647,-5.6664,-5.6616,-5.6616,-5.6567,-5.6421,-5.6274,-5.6531,-5.6677,-4.8172,-4.8172,-4.8172,-4.8172,-4.8172,-4.8172,-4.8172,-4.8172,-4.8172,-4.8512,-4.9035,-4.8904,-4.8695,-4.846,-4.8433,-4.8355,-4.8198,-4.8172,-4.8172,-4.8172,-4.8172,-4.8094,-4.7989,-4.812,-4.8094,-4.7963,-4.7937,-4.7937,-4.7885,-4.7362,-4.6891,-4.6421,-4.5741,-4.532,-4.5349,-4.485,-4.4694,-4.4748,-4.4938,-4.5422,-4.6189,-4.7017,-4.7461,-4.7531,-4.809,-4.8816,-4.9568,-5.011,-5.0471,-5.0774,-5.1363,-5.1602,-5.1386,-5.1105,-5.0911,-5.0892,-5.0964,-5.1335,-5.1954,-5.2595,-5.3357,-5.425,-5.4012,-5.3985,-5.4471,-5.4568,-5.4444,-5.4252,-5.3553,-5.3468,-5.4129,-5.3481,-5.3191,-5.3755,-5.4685,-5.5089,-5.5146,-5.6343,-5.7192,-5.7774,-5.7971,-5.8342,-5.8722,-5.88,-5.8854,-5.8746,-5.9033,-5.9153,-5.9099,-5.9099,-5.9099,-5.9207,-5.9207,-5.9063,-5.883,-5.8231,-5.7603,-5.6997,-5.6338,-5.579,-5.537,-5.536,-5.5481,-5.5929,-5.6077,-5.6274,-5.6567,-5.6713,-5.681,-5.681,-5.6761,-5.6713,-5.6567,-5.6713,-5.6761,-4.8172,-4.8172,-4.8172,-4.8172,-4.8172,-4.8172,-4.8172,-4.8172,-4.8172,-4.8512,-4.8982,-4.8538,-4.8538,-4.9008,-4.9008,-4.8721,-4.8224,-4.8172,-4.8172,-4.8172,-4.8172,-4.7885,-4.744,-4.7911,-4.7911,-4.7545,-4.7409,-4.7414,-4.7336,-4.6813,-4.6499,-4.6395,-4.5349,-4.48,-4.48,-4.4774,-4.4722,-4.483,-4.5529,-4.6191,-4.684,-4.8489,-4.903,-4.8576,-4.8278,-4.8693,-4.9599,-5.0276,-5.0471,-5.0272,-5.0683,-5.087,-5.0793,-5.0603,-5.088,-5.1569,-5.1429,-5.1858,-5.296,-5.3327,-5.3913,-5.4745,-5.473,-5.4866,-5.525,-5.4794,-5.4436,-5.4304,-5.4097,-5.4052,-5.4296,-5.3912,-5.3831,-5.4356,-5.4576,-5.5137,-5.6006,-5.629,-5.6581,-5.7153,-5.7706,-5.8005,-5.8141,-5.8414,-5.8474,-5.8488,-5.8924,-5.9369,-5.9207,-5.9099,-5.9207,-5.9422,-5.9446,-5.9212,-5.8314,-5.7858,-5.7169,-5.659,-5.6203,-5.5651,-5.5641,-5.5681,-5.5929,-5.6127,-5.6372,-5.6567,-5.6713,-5.681,-5.681,-5.681,-5.681,-5.6713,-5.6664,-5.6761,-5.681,-4.8172,-4.8172,-4.8172,-4.8172,-4.8172,-4.8172,-4.8172,-4.8172,-4.8172,-4.8512,-4.8982,-4.8852,-4.9087,-4.9584,-4.9244,-4.8747,-4.8224,-4.8172,-4.8172,-4.8172,-4.8172,-4.8068,-4.7937,-4.8094,-4.8094,-4.7858,-4.7492,-4.7127,-4.6787,-4.6578,-4.629,-4.5846,-4.514,-4.4694,-4.4776,-4.51,-4.5261,-4.5368,-4.6401,-4.7359,-4.8038,-4.8982,-4.9475,-4.9626,-5.0084,-5.0481,-5.0879,-5.0982,-5.0823,-5.0431,-5.0656,-5.068,-5.0453,-5.0969,-5.1535,-5.2007,-5.2714,-5.3506,-5.4255,-5.463,-5.512,-5.5761,-5.535,-5.5078,-5.5229,-5.5078,-5.4875,-5.4845,-5.4947,-5.5048,-5.4926,-5.4488,-5.4486,-5.5376,-5.5619,-5.5731,-5.6214,-5.6598,-5.6885,-5.7072,-5.7363,-5.7453,-5.7596,-5.8083,-5.8407,-5.8255,-5.8894,-5.9362,-5.9422,-5.9369,-5.9476,-5.972,-5.9796,-5.938,-5.8179,-5.7907,-5.7484,-5.6819,-5.6295,-5.6012,-5.588,-5.5929,-5.6077,-5.6225,-5.6519,-5.6664,-5.6713,-5.681,-5.681,-5.681,-5.681,-5.681,-5.681,-5.681,-5.681,-4.8172,-4.8172,-4.8172,-4.8172,-4.8172,-4.8172,-4.8172,-4.8172,-4.8198,-4.8616,-4.9191,-4.8982,-4.9296,-4.9897,-4.9218,-4.8721,-4.846,-4.8277,-4.8172,-4.8172,-4.8172,-4.8094,-4.7963,-4.8094,-4.8068,-4.7885,-4.7545,-4.7048,-4.6525,-4.6499,-4.6215,-4.5721,-4.5411,-4.5284,-4.5368,-4.5742,-4.606,-4.6478,-4.7485,-4.8546,-4.9348,-4.9893,-5.0342,-5.0847,-5.1331,-5.1315,-5.0908,-5.078,-5.0572,-5.0271,-5.0514,-5.0555,-5.0453,-5.1243,-5.1977,-5.2557,-5.3533,-5.4449,-5.5085,-5.5489,-5.578,-5.6176,-5.5731,-5.533,-5.533,-5.5259,-5.5209,-5.5229,-5.533,-5.5481,-5.5381,-5.4896,-5.4945,-5.5745,-5.5924,-5.5916,-5.5975,-5.6467,-5.6713,-5.6735,-5.6555,-5.6585,-5.6877,-5.7565,-5.7948,-5.7941,-5.8957,-5.9713,-5.969,-5.9667,-5.9773,-6.0008,-5.9901,-5.9375,-5.8491,-5.8055,-5.7365,-5.6677,-5.6503,-5.6248,-5.6127,-5.6176,-5.6225,-5.6372,-5.6519,-5.6616,-5.6713,-5.6761,-5.681,-5.681,-5.681,-5.681,-5.681,-5.681,-5.681,-4.8172,-4.8172,-4.8172,-4.8172,-4.8172,-4.8172,-4.8172,-4.8172,-4.8172,-4.8721,-4.9374,-4.8669,-4.9113,-5.008,-4.8956,-4.8512,-4.8852,-4.8433,-4.8172,-4.8172,-4.8172,-4.7911,-4.7545,-4.7911,-4.7806,-4.7362,-4.7336,-4.7048,-4.666,-4.6668,-4.652,-4.6211,-4.6435,-4.6463,-4.6428,-4.6766,-4.7256,-4.7943,-4.8795,-4.9727,-5.0639,-5.1173,-5.1712,-5.2033,-5.1849,-5.106,-4.9644,-4.9924,-5.005,-4.9799,-5.0212,-5.0555,-5.0882,-5.1488,-5.2181,-5.3151,-5.3822,-5.458,-5.543,-5.5601,-5.5731,-5.5929,-5.5731,-5.5531,-5.5431,-5.533,-5.5289,-5.5299,-5.5289,-5.5259,-5.5289,-5.5158,-5.5218,-5.5248,-5.5418,-5.5375,-5.5475,-5.5837,-5.6218,-5.6158,-5.5858,-5.5568,-5.6149,-5.7097,-5.7695,-5.8118,-5.9197,-6.0219,-6.0039,-5.9986,-6.0144,-6.0233,-6.0071,-5.9572,-5.8919,-5.8189,-5.7278,-5.653,-5.6506,-5.6372,-5.6372,-5.6372,-5.647,-5.6567,-5.6616,-5.6713,-5.6713,-5.681,-5.681,-5.681,-5.681,-5.681,-5.681,-5.681,-5.681,-4.8172,-4.8172,-4.8172,-4.8172,-4.8172,-4.8172,-4.8172,-4.8172,-4.8172,-4.8381,-4.8616,-4.8329,-4.8721,-4.9244,-4.859,-4.8512,-4.9008,-4.846,-4.8172,-4.8172,-4.8172,-4.8068,-4.7885,-4.7702,-4.731,-4.6948,-4.7381,-4.7573,-4.745,-4.7582,-4.7756,-4.7893,-4.7658,-4.7553,-4.7536,-4.8296,-4.8745,-4.8745,-5.0095,-5.1028,-5.1356,-5.1987,-5.2337,-5.2306,-5.217,-5.1774,-5.1213,-5.1088,-5.0853,-5.0401,-5.0939,-5.1309,-5.1616,-5.2222,-5.3122,-5.4104,-5.4679,-5.5299,-5.5956,-5.583,-5.5631,-5.5681,-5.5631,-5.5481,-5.5381,-5.5431,-5.5591,-5.5739,-5.5478,-5.5329,-5.5688,-5.5448,-5.5359,-5.5807,-5.5505,-5.5424,-5.5667,-5.5628,-5.5508,-5.5589,-5.5891,-5.6233,-5.6696,-5.7556,-5.8571,-5.8538,-5.9618,-6.0324,-6.0272,-6.0302,-6.0407,-6.0555,-6.0269,-5.9962,-5.9358,-5.8731,-5.7967,-5.7144,-5.6825,-5.6598,-5.6567,-5.6567,-5.6664,-5.6713,-5.6761,-5.681,-5.681,-5.681,-5.681,-5.681,-5.681,-5.681,-5.681,-5.681,-5.681,-4.8172,-4.8172,-4.8172,-4.8172,-4.8172,-4.8172,-4.8172,-4.8172,-4.8172,-4.8303,-4.846,-4.8277,-4.8643,-4.9087,-4.8564,-4.8538,-4.8956,-4.846,-4.8172,-4.812,-4.7937,-4.7885,-4.7832,-4.7519,-4.7424,-4.7494,-4.7687,-4.8023,-4.842,-4.8381,-4.8676,-4.9186,-4.9003,-4.8845,-4.8894,-4.963,-4.995,-5.0143,-5.1152,-5.1834,-5.2063,-5.2473,-5.2608,-5.2442,-5.2352,-5.2215,-5.2109,-5.1941,-5.1572,-5.1092,-5.1143,-5.1437,-5.2155,-5.2673,-5.3422,-5.4467,-5.4941,-5.5429,-5.6189,-5.5979,-5.5731,-5.5731,-5.5581,-5.5431,-5.533,-5.5481,-5.557,-5.5679,-5.5448,-5.5359,-5.5628,-5.5478,-5.5418,-5.5769,-5.5448,-5.5388,-5.5688,-5.5448,-5.5439,-5.575,-5.6344,-5.6798,-5.7374,-5.8664,-5.9572,-5.9448,-5.9949,-6.0534,-6.0534,-6.0534,-6.069,-6.065,-6.0342,-6.0034,-5.9778,-5.9224,-5.8639,-5.7962,-5.7297,-5.6959,-5.6713,-5.6713,-5.6761,-5.6761,-5.681,-5.681,-5.681,-5.681,-5.681,-5.681,-5.681,-5.681,-5.681,-5.681,-5.681,-4.8289,-4.8289,-4.8289,-4.8405,-4.8347,-4.8347,-4.8347,-4.8347,-4.8172,-4.8518,-4.8865,-4.8466,-4.8721,-4.9322,-4.8564,-4.8486,-4.8852,-4.846,-4.8172,-4.8041,-4.7759,-4.7529,-4.7529,-4.7591,-4.8122,-4.8843,-4.8436,-4.8725,-4.9803,-4.9496,-4.9386,-5.0392,-5.0419,-5.0319,-5.0453,-5.0745,-5.1246,-5.1649,-5.1956,-5.2276,-5.2639,-5.2776,-5.276,-5.2684,-5.2534,-5.2443,-5.2337,-5.2306,-5.2002,-5.1343,-5.1026,-5.1424,-5.2381,-5.2729,-5.3453,-5.4591,-5.4714,-5.5371,-5.6066,-5.6127,-5.5979,-5.5929,-5.5631,-5.536,-5.5531,-5.5481,-5.5471,-5.5499,-5.5349,-5.5289,-5.5379,-5.5239,-5.5269,-5.5259,-5.531,-5.534,-5.5319,-5.54,-5.5852,-5.6515,-5.697,-5.7425,-5.8064,-5.9614,-6.0055,-5.9972,-6.03,-6.0598,-6.0742,-6.0742,-6.0794,-6.064,-6.0424,-6.0301,-6.0116,-5.9593,-5.907,-5.8762,-5.8165,-5.7672,-5.7241,-5.7148,-5.6871,-5.6871,-5.6871,-5.684,-5.681,-5.681,-5.681,-5.681,-5.681,-5.681,-5.681,-5.681,-5.681,-4.9556,-4.9556,-4.9556,-4.9499,-4.9442,-4.9098,-4.9098,-4.9385,-4.8579,-4.8626,-4.888,-4.8484,-4.8414,-4.859,-4.8414,-4.8277,-4.8472,-4.8367,-4.8172,-4.821,-4.803,-4.7937,-4.8106,-4.8444,-4.9169,-4.9941,-5.0077,-5.0731,-5.1953,-5.1856,-5.202,-5.225,-5.2144,-5.1952,-5.1739,-5.1926,-5.2063,-5.2063,-5.2367,-5.2518,-5.2745,-5.3145,-5.3191,-5.279,-5.3069,-5.2993,-5.267,-5.2608,-5.2563,-5.2382,-5.2169,-5.2229,-5.2715,-5.3191,-5.3837,-5.4591,-5.5033,-5.549,-5.6128,-5.6176,-5.6028,-5.6028,-5.5979,-5.5929,-5.5631,-5.5929,-5.5972,-5.5912,-5.569,-5.5641,-5.579,-5.5529,-5.537,-5.5431,-5.5651,-5.5852,-5.6305,-5.6537,-5.6829,-5.7567,-5.8267,-5.8725,-5.9246,-5.9942,-6.0671,-6.0496,-6.0588,-6.0794,-6.0794,-6.0794,-6.0794,-6.0794,-6.0671,-6.0609,-6.0424,-5.9901,-5.9562,-5.947,-5.9008,-5.8547,-5.8116,-5.7869,-5.7426,-5.6994,-5.7025,-5.7025,-5.6902,-5.681,-5.681,-5.681,-5.681,-5.681,-5.681,-5.681,-5.681,-5.0152,-5.0152,-5.0348,-5.0292,-5.0152,-4.9813,-4.9756,-4.984,-4.9328,-4.9156,-4.9385,-4.9156,-4.8926,-4.8983,-4.8983,-4.9072,-4.9274,-4.9274,-4.9445,-4.9732,-5.0049,-4.9886,-4.9639,-4.983,-5.0511,-5.1409,-5.1594,-5.2349,-5.3308,-5.3516,-5.3694,-5.3899,-5.3445,-5.3024,-5.2734,-5.2505,-5.2427,-5.22,-5.2337,-5.2458,-5.2549,-5.2886,-5.2977,-5.2776,-5.3129,-5.3067,-5.276,-5.2729,-5.2729,-5.2729,-5.2729,-5.2852,-5.316,-5.3606,-5.4253,-5.5037,-5.5357,-5.58,-5.6335,-5.6323,-5.6225,-5.6274,-5.6323,-5.6176,-5.6028,-5.6176,-5.6172,-5.6073,-5.5862,-5.5922,-5.6033,-5.5983,-5.6104,-5.6364,-5.6596,-5.6859,-5.7061,-5.7223,-5.778,-5.8461,-5.9021,-5.9624,-5.989,-6.0475,-6.0732,-6.0763,-6.0732,-6.0794,-6.0794,-6.0794,-6.0794,-6.0794,-6.0794,-6.0732,-6.0701,-6.0301,-6.0116,-6.0024,-5.987,-5.9378,-5.8885,-5.8547,-5.8011,-5.7518,-5.7364,-5.7179,-5.7025,-5.6902,-5.681,-5.681,-5.681,-5.681,-5.681,-5.681,-5.681,-5.0628,-5.0684,-5.0934,-5.0934,-5.0684,-5.0517,-5.0405,-5.0292,-5.001,-4.9953,-5.0066,-5.001,-4.9897,-5.0066,-4.9983,-5.0349,-5.0796,-5.0712,-5.1127,-5.1537,-5.1909,-5.1868,-5.1258,-5.1371,-5.2023,-5.2924,-5.3145,-5.3795,-5.4506,-5.4341,-5.4635,-5.5027,-5.4173,-5.3729,-5.3638,-5.3101,-5.2596,-5.252,-5.2459,-5.2414,-5.2489,-5.2657,-5.2763,-5.2715,-5.276,-5.2821,-5.2729,-5.2729,-5.2729,-5.2729,-5.276,-5.3129,-5.3683,-5.399,-5.47,-5.5485,-5.5807,-5.6176,-5.6638,-5.6567,-5.6519,-5.6616,-5.6323,-5.6176,-5.6274,-5.6274,-5.6157,-5.6051,-5.6028,-5.607,-5.6232,-5.6647,-5.707,-5.7403,-5.8053,-5.8064,-5.7669,-5.7811,-5.8522,-5.9368,-5.9542,-6.0003,-6.0444,-6.0794,-6.0794,-6.0794,-6.0794,-6.0794,-6.0794,-6.0794,-6.0794,-6.0794,-6.0794,-6.0794,-6.0763,-6.0732,-6.0671,-6.0578,-6.0517,-6.0178,-5.9532,-5.9101,-5.8627,-5.8258,-5.8011,-5.7641,-5.7179,-5.7056,-5.6994,-5.681,-5.681,-5.681,-5.681,-5.681,-5.681,-5.2221,-5.2221,-5.2275,-5.2275,-5.2113,-5.1402,-5.1375,-5.1623,-5.0488,-5.046,-5.0572,-5.0235,-5.032,-5.0657,-5.0768,-5.0906,-5.1593,-5.1674,-5.1837,-5.2373,-5.2625,-5.2968,-5.2961,-5.3053,-5.3477,-5.4142,-5.4531,-5.5089,-5.5758,-5.5883,-5.5919,-5.5558,-5.5206,-5.4929,-5.4375,-5.3991,-5.3899,-5.3499,-5.3285,-5.2902,-5.2702,-5.2993,-5.3038,-5.279,-5.2729,-5.2729,-5.2729,-5.2729,-5.2729,-5.2821,-5.3221,-5.3576,-5.3929,-5.473,-5.5376,-5.5745,-5.6269,-5.6625,-5.6779,-5.6713,-5.6713,-5.6761,-5.6664,-5.6567,-5.6421,-5.6567,-5.6372,-5.6176,-5.6176,-5.6499,-5.6857,-5.714,-5.7637,-5.8226,-5.8929,-5.943,-5.9256,-5.9318,-5.9717,-6.0229,-6.0444,-6.0588,-6.0763,-6.0794,-6.0794,-6.0794,-6.0794,-6.0794,-6.0794,-6.0794,-6.0794,-6.0794,-6.0794,-6.0794,-6.0794,-6.0794,-6.0794,-6.0794,-6.0794,-6.0763,-6.0147,-5.9747,-5.9285,-5.8916,-5.8658,-5.8196,-5.7734,-5.7487,-5.7457,-5.7148,-5.6933,-5.7025,-5.7118,-5.6994,-5.7087,-5.2894,-5.2894,-5.3054,-5.2919,-5.268,-5.2408,-5.2355,-5.2301,-5.2085,-5.1759,-5.1759,-5.1759,-5.1785,-5.1702,-5.2002,-5.2459,-5.3016,-5.3413,-5.3675,-5.4009,-5.4124,-5.4309,-5.454,-5.4628,-5.4827,-5.496,-5.54,-5.5998,-5.6372,-5.6572,-5.6313,-5.5684,-5.5407,-5.4714,-5.4222,-5.3883,-5.3316,-5.3024,-5.2979,-5.2764,-5.2671,-5.2825,-5.3038,-5.2745,-5.2729,-5.2729,-5.2729,-5.2729,-5.2729,-5.2944,-5.3652,-5.4206,-5.433,-5.513,-5.5776,-5.6238,-5.6484,-5.681,-5.681,-5.681,-5.6761,-5.681,-5.681,-5.6713,-5.6616,-5.6713,-5.6664,-5.6531,-5.6776,-5.7254,-5.7828,-5.8338,-5.8715,-5.9072,-5.9788,-6.024,-6.027,-6.027,-6.0363,-6.0701,-6.0763,-6.0763,-6.0794,-6.0794,-6.0794,-6.0794,-6.0794,-6.0794,-6.0794,-6.0794,-6.0794,-6.0794,-6.0794,-6.0794,-6.0794,-6.0794,-6.0794,-6.0794,-6.0794,-6.0794,-6.0547,-6.027,-6.0024,-5.9655,-5.9224,-5.8885,-5.8504,-5.8227,-5.8011,-5.7949,-5.7826,-5.7641,-5.7641,-5.7857,-5.7931,-5.3107,-5.3107,-5.3372,-5.3266,-5.2947,-5.3237,-5.3184,-5.2996,-5.3576,-5.3261,-5.2996,-5.3629,-5.3366,-5.3208,-5.3471,-5.4149,-5.4764,-5.525,-5.53,-5.5371,-5.523,-5.5239,-5.5368,-5.5467,-5.5274,-5.4965,-5.5597,-5.6066,-5.5993,-5.6326,-5.593,-5.5499,-5.4991,-5.456,-5.3837,-5.3193,-5.2963,-5.2826,-5.2704,-5.2505,-5.2458,-5.2458,-5.2594,-5.2684,-5.2729,-5.2729,-5.276,-5.2852,-5.2914,-5.2944,-5.4145,-5.476,-5.5037,-5.5499,-5.6084,-5.6779,-5.6779,-5.681,-5.681,-5.681,-5.681,-5.681,-5.681,-5.681,-5.6761,-5.6792,-5.6854,-5.7161,-5.7531,-5.8208,-5.8885,-5.9235,-5.9686,-5.9993,-6.0486,-6.0732,-6.0794,-6.0794,-6.0763,-6.0763,-6.0794,-6.0794,-6.0794,-6.0794,-6.0794,-6.0794,-6.0794,-6.0794,-6.0794,-6.0794,-6.0794,-6.0794,-6.0794,-6.0794,-6.0794,-6.0794,-6.0794,-6.0794,-6.0794,-6.0794,-6.0794,-6.0609,-6.0363,-6.0178,-5.9839,-5.9501,-5.9162,-5.8824,-5.8701,-5.8731,-5.8516,-5.8177,-5.8331,-5.8731,-5.8781,-5.3319,-5.3136,-5.3372,-5.3448,-5.3372,-5.3448,-5.3605,-5.371,-5.389,-5.3867,-5.3785,-5.4097,-5.4458,-5.456,-5.4713,-5.52,-5.5651,-5.588,-5.5929,-5.5857,-5.5591,-5.5384,-5.5414,-5.5511,-5.5101,-5.4765,-5.5119,-5.5289,-5.4922,-5.4896,-5.513,-5.4914,-5.4683,-5.4498,-5.4345,-5.4268,-5.3714,-5.3208,-5.3193,-5.3039,-5.2655,-5.2608,-5.267,-5.279,-5.2821,-5.2852,-5.2944,-5.3283,-5.356,-5.3683,-5.4853,-5.5376,-5.5592,-5.6115,-5.6594,-5.6748,-5.681,-5.681,-5.681,-5.681,-5.681,-5.681,-5.681,-5.681,-5.681,-5.6871,-5.7087,-5.7703,-5.8208,-5.8885,-5.9562,-5.9809,-6.0086,-6.0455,-6.0671,-6.0794,-6.0794,-6.0794,-6.0794,-6.0794,-6.0794,-6.0794,-6.0794,-6.0794,-6.0794,-6.0794,-6.0794,-6.0794,-6.0794,-6.0794,-6.0794,-6.0794,-6.0794,-6.0794,-6.0794,-6.0794,-6.0794,-6.0794,-6.0794,-6.0794,-6.0794,-6.0794,-6.064,-6.0455,-6.0363,-6.0178,-5.9839,-5.9439,-5.9386,-5.9375,-5.9047,-5.872,-5.9159,-5.9568,-5.9282,-5.3477,-5.3189,-5.35,-5.3658,-5.3658,-5.4282,-5.4539,-5.456,-5.4968,-5.4917,-5.4764,-5.5069,-5.522,-5.525,-5.5451,-5.583,-5.6096,-5.6225,-5.6225,-5.6073,-5.5621,-5.5302,-5.5381,-5.5476,-5.4849,-5.4451,-5.4635,-5.4786,-5.4402,-5.462,-5.4468,-5.4191,-5.416,-5.4052,-5.3868,-5.3914,-5.3806,-5.3437,-5.3498,-5.3406,-5.279,-5.2729,-5.2852,-5.316,-5.3252,-5.3406,-5.3775,-5.3945,-5.4237,-5.4422,-5.5161,-5.5592,-5.5899,-5.6347,-5.681,-5.681,-5.681,-5.681,-5.681,-5.681,-5.681,-5.681,-5.681,-5.681,-5.681,-5.6902,-5.7364,-5.8196,-5.8916,-5.9562,-6.024,-6.027,-6.0486,-6.0671,-6.0794,-6.0794,-6.0794,-6.0794,-6.0794,-6.0794,-6.0794,-6.0794,-6.0794,-6.0794,-6.0794,-6.0794,-6.0794,-6.0794,-6.0794,-6.0794,-6.0794,-6.0949,-6.0949,-6.1052,-6.1052,-6.1052,-6.0949,-6.0897,-6.0897,-6.0897,-6.0794,-6.0794,-6.0794,-6.0701,-6.0671,-6.0609,-6.0393,-5.9963,-5.9992,-6.002,-5.9784,-5.9692,-6.0121,-6.0296,-6.0109,-5.3326,-5.304,-5.3652,-5.3838,-5.3942,-5.5048,-5.5481,-5.5451,-5.5998,-5.5948,-5.5551,-5.6047,-5.6047,-5.569,-5.5747,-5.603,-5.6255,-5.6225,-5.6194,-5.6133,-5.5919,-5.5643,-5.5691,-5.5633,-5.5407,-5.4652,-5.4745,-5.4528,-5.3944,-5.4052,-5.3914,-5.3699,-5.3545,-5.3498,-5.3252,-5.3791,-5.3406,-5.3283,-5.3375,-5.3345,-5.2883,-5.276,-5.3037,-5.3652,-5.3745,-5.3945,-5.4437,-5.4775,-5.4914,-5.5099,-5.553,-5.593,-5.6023,-5.6502,-5.6779,-5.681,-5.681,-5.681,-5.681,-5.681,-5.681,-5.681,-5.681,-5.6871,-5.721,-5.7518,-5.8011,-5.8854,-5.9593,-6.0147,-6.0609,-6.0763,-6.0763,-6.0763,-6.0794,-6.0794,-6.0794,-6.0794,-6.0794,-6.0794,-6.0794,-6.0794,-6.0794,-6.0794,-6.0794,-6.0794,-6.0794,-6.0794,-6.0794,-6.0794,-6.0845,-6.1052,-6.1206,-6.1277,-6.1328,-6.143,-6.1277,-6.1206,-6.1103,-6.1103,-6.0949,-6.0794,-6.0794,-6.0845,-6.0763,-6.0701,-6.0547,-6.064,-6.0741,-6.0687,-6.0524,-6.0575,-6.085,-6.1177,-6.1215,-5.2451,-5.2717,-5.3552,-5.4149,-5.4633,-5.535,-5.5731,-5.5929,-5.6274,-5.6372,-5.6195,-5.6567,-5.6664,-5.6445,-5.5892,-5.5773,-5.579,-5.5759,-5.5773,-5.5865,-5.6129,-5.6282,-5.6498,-5.6638,-5.593,-5.5191,-5.5345,-5.4483,-5.3653,-5.333,-5.316,-5.316,-5.3576,-5.3637,-5.3714,-5.4268,-5.4191,-5.3699,-5.3714,-5.3468,-5.2944,-5.2852,-5.3221,-5.3652,-5.3899,-5.4237,-5.4945,-5.5376,-5.5592,-5.5653,-5.6238,-5.6625,-5.6717,-5.6748,-5.681,-5.681,-5.681,-5.681,-5.681,-5.681,-5.681,-5.684,-5.6871,-5.7148,-5.7703,-5.8577,-5.9193,-5.9562,-6.024,-6.0578,-6.0732,-6.0794,-6.0794,-6.0794,-6.0794,-6.0794,-6.0794,-6.0794,-6.0794,-6.0794,-6.0794,-6.0794,-6.0794,-6.0794,-6.0794,-6.0794,-6.0794,-6.0845,-6.0845,-6.0897,-6.1,-6.1257,-6.1582,-6.1734,-6.1633,-6.1734,-6.1582,-6.1379,-6.1226,-6.1175,-6.1,-6.0794,-6.0845,-6.0845,-6.0845,-6.1,-6.1031,-6.1204,-6.1387,-6.1477,-6.1471,-6.1433,-6.1489,-6.1834,-6.2153,-5.2147,-5.2759,-5.3781,-5.435,-5.471,-5.5797,-5.6372,-5.647,-5.6567,-5.6616,-5.6664,-5.6713,-5.681,-5.6625,-5.5992,-5.5715,-5.5622,-5.5345,-5.5376,-5.553,-5.5745,-5.5869,-5.6053,-5.6115,-5.5776,-5.553,-5.5407,-5.513,-5.4114,-5.3837,-5.3837,-5.3837,-5.4068,-5.4283,-5.436,-5.4945,-5.4822,-5.4437,-5.4252,-5.4145,-5.3929,-5.3899,-5.4145,-5.476,-5.4791,-5.5161,-5.5715,-5.6084,-5.63,-5.6378,-5.6717,-5.681,-5.681,-5.681,-5.681,-5.681,-5.681,-5.681,-5.681,-5.681,-5.684,-5.6964,-5.7179,-5.7703,-5.8362,-5.9162,-5.9809,-5.9778,-6.0393,-6.0732,-6.0794,-6.0794,-6.0794,-6.0794,-6.0794,-6.0794,-6.0794,-6.0794,-6.0794,-6.0794,-6.0794,-6.0845,-6.0897,-6.0897,-6.0897,-6.0845,-6.1,-6.1155,-6.1155,-6.1155,-6.1308,-6.1481,-6.1885,-6.2284,-6.2035,-6.1935,-6.1734,-6.1531,-6.1206,-6.1103,-6.0897,-6.0794,-6.1052,-6.1206,-6.1308,-6.143,-6.1582,-6.1683,-6.1803,-6.2103,-6.2432,-6.2207,-6.2031,-6.2386,-6.2729,-5.2384,-5.2774,-5.3856,-5.4334,-5.4589,-5.5936,-5.6484,-5.6563,-5.67,-5.681,-5.6748,-5.6625,-5.6532,-5.6317,-5.5592,-5.5161,-5.5407,-5.4945,-5.5037,-5.5161,-5.5407,-5.5653,-5.6023,-5.6023,-5.5807,-5.5222,-5.5869,-5.5715,-5.5438,-5.5191,-5.5068,-5.4714,-5.4853,-5.4945,-5.513,-5.553,-5.5653,-5.5037,-5.4714,-5.4591,-5.456,-5.4591,-5.5037,-5.5438,-5.5745,-5.6023,-5.6686,-5.6779,-5.6779,-5.6779,-5.6779,-5.681,-5.681,-5.681,-5.681,-5.681,-5.681,-5.681,-5.681,-5.684,-5.6902,-5.7241,-5.7857,-5.8577,-5.8978,-5.9624,-6.0055,-6.0116,-6.0455,-6.0732,-6.0794,-6.0794,-6.0794,-6.0794,-6.0794,-6.0794,-6.0794,-6.0794,-6.0794,-6.0794,-6.0845,-6.0949,-6.1,-6.1052,-6.1,-6.0897,-6.1103,-6.1328,-6.1531,-6.1664,-6.1885,-6.2135,-6.258,-6.2954,-6.2856,-6.2531,-6.2184,-6.1834,-6.143,-6.1277,-6.1328,-6.1379,-6.1531,-6.1683,-6.1784,-6.2035,-6.2284,-6.2234,-6.2234,-6.258,-6.2858,-6.2556,-6.2508,-6.2812,-6.2892,-5.3239,-5.2763,-5.3317,-5.388,-5.4368,-5.5326,-5.5776,-5.593,-5.6532,-5.6748,-5.6625,-5.6224,-5.5961,-5.5561,-5.4914,-5.4545,-5.4853,-5.4714,-5.4837,-5.5315,-5.593,-5.6378,-5.6563,-5.6563,-5.6594,-5.6453,-5.6563,-5.6563,-5.6546,-5.6269,-5.5715,-5.4976,-5.5468,-5.5592,-5.5807,-5.6146,-5.6207,-5.5653,-5.5284,-5.4976,-5.4945,-5.4976,-5.5222,-5.5622,-5.5776,-5.6023,-5.6748,-5.681,-5.681,-5.681,-5.681,-5.681,-5.681,-5.681,-5.681,-5.681,-5.681,-5.681,-5.681,-5.6871,-5.7179,-5.7888,-5.8701,-5.947,-5.9716,-6.0301,-6.064,-6.0609,-6.0732,-6.0763,-6.0794,-6.0794,-6.0794,-6.0794,-6.0845,-6.0897,-6.0897,-6.0794,-6.0794,-6.0794,-6.0949,-6.1155,-6.141,-6.1531,-6.1481,-6.1379,-6.1308,-6.1582,-6.2184,-6.2383,-6.2678,-6.2971,-6.3437,-6.3755,-6.3802,-6.3469,-6.2873,-6.258,-6.2284,-6.2184,-6.2135,-6.2184,-6.1985,-6.2234,-6.2383,-6.2678,-6.2971,-6.2954,-6.3002,-6.3196,-6.3228,-6.2858,-6.2458,-6.2426,-6.2389,-5.2944,-5.2715,-5.2887,-5.3346,-5.4006,-5.4775,-5.5315,-5.5715,-5.5992,-5.6115,-5.6146,-5.6238,-5.6084,-5.5622,-5.5345,-5.5037,-5.5222,-5.4806,-5.5007,-5.5315,-5.5899,-5.6378,-5.6594,-5.681,-5.681,-5.681,-5.681,-5.681,-5.6779,-5.681,-5.6625,-5.6255,-5.6224,-5.6347,-5.6563,-5.6625,-5.6563,-5.6423,-5.6115,-5.5961,-5.5992,-5.5992,-5.6115,-5.6347,-5.6361,-5.6502,-5.6779,-5.681,-5.681,-5.681,-5.681,-5.681,-5.681,-5.681,-5.681,-5.681,-5.681,-5.681,-5.684,-5.6902,-5.7303,-5.8331,-5.9224,-5.9963,-6.027,-6.0671,-6.0763,-6.0763,-6.0794,-6.0794,-6.0794,-6.0794,-6.0794,-6.0794,-6.0897,-6.1,-6.1103,-6.1052,-6.1257,-6.143,-6.143,-6.1531,-6.1834,-6.2085,-6.1985,-6.1885,-6.1784,-6.1885,-6.2531,-6.2922,-6.3116,-6.3341,-6.3755,-6.3944,-6.3976,-6.3755,-6.3484,-6.3293,-6.3019,-6.2873,-6.2678,-6.2432,-6.2333,-6.2629,-6.2954,-6.3196,-6.3389,-6.3612,-6.3578,-6.332,-6.3174,-6.3009,-6.2593,-6.2242,-6.2059,-5.2883,-5.2729,-5.2729,-5.2975,-5.3468,-5.4099,-5.4791,-5.5376,-5.5622,-5.5684,-5.5745,-5.6207,-5.6176,-5.5745,-5.5438,-5.5499,-5.5468,-5.5315,-5.5376,-5.5653,-5.5992,-5.6347,-5.6656,-5.681,-5.681,-5.681,-5.681,-5.681,-5.681,-5.681,-5.6717,-5.6717,-5.681,-5.6779,-5.6779,-5.681,-5.681,-5.681,-5.681,-5.681,-5.6779,-5.6748,-5.6748,-5.6748,-5.6748,-5.6748,-5.681,-5.681,-5.681,-5.681,-5.681,-5.681,-5.681,-5.681,-5.681,-5.681,-5.681,-5.681,-5.6871,-5.7364,-5.7795,-5.8639,-5.9655,-6.027,-6.064,-6.0794,-6.0794,-6.0794,-6.0794,-6.0794,-6.0794,-6.0794,-6.0794,-6.0794,-6.1103,-6.1308,-6.1461,-6.1512,-6.1834,-6.2085,-6.2085,-6.2066,-6.2545,-6.2839,-6.2854,-6.2675,-6.2481,-6.2661,-6.3148,-6.3389,-6.3341,-6.3532,-6.3802,-6.3929,-6.3976,-6.3802,-6.3707,-6.366,-6.3437,-6.3244,-6.3051,-6.2825,-6.2825,-6.3244,-6.3517,-6.366,-6.3755,-6.3802,-6.3476,-6.3052,-6.2858,-6.265,-6.2714,-6.2363,-6.1957,-5.3238,-5.2729,-5.2729,-5.2729,-5.2883,-5.3468,-5.4114,-5.4791,-5.5345,-5.5592,-5.5592,-5.5745,-5.5776,-5.5592,-5.5315,-5.5499,-5.5807,-5.5745,-5.5776,-5.593,-5.633,-5.6717,-5.6779,-5.681,-5.681,-5.681,-5.681,-5.681,-5.681,-5.681,-5.681,-5.681,-5.681,-5.681,-5.681,-5.681,-5.681,-5.681,-5.681,-5.681,-5.681,-5.681,-5.681,-5.681,-5.681,-5.681,-5.681,-5.681,-5.681,-5.681,-5.681,-5.681,-5.681,-5.681,-5.681,-5.681,-5.681,-5.684,-5.6933,-5.8073,-5.867,-5.9008,-5.9963,-6.0609,-6.0763,-6.0794,-6.0794,-6.0794,-6.0794,-6.0845,-6.0794,-6.0845,-6.0897,-6.1155,-6.1461,-6.189,-6.2041,-6.2186,-6.2549,-6.3281,-6.2946,-6.2643,-6.3195,-6.3565,-6.3661,-6.3581,-6.3276,-6.3389,-6.3819,-6.366,-6.3437,-6.3707,-6.3897,-6.3929,-6.4024,-6.4024,-6.3976,-6.3897,-6.385,-6.3612,-6.3612,-6.3564,-6.366,-6.3929,-6.3929,-6.385,-6.3897,-6.3944,-6.357,-6.3117,-6.2437,-6.2197,-6.2404,-6.2534,-6.2275,-5.2914,-5.2729,-5.2729,-5.2729,-5.2729,-5.2944,-5.3437,-5.4068,-5.4683,-5.5021,-5.5161,-5.5468,-5.5684,-5.5684,-5.5992,-5.6115,-5.63,-5.644,-5.644,-5.6423,-5.6717,-5.6779,-5.681,-5.681,-5.681,-5.681,-5.681,-5.681,-5.681,-5.681,-5.681,-5.681,-5.681,-5.681,-5.681,-5.681,-5.681,-5.681,-5.681,-5.681,-5.681,-5.681,-5.681,-5.681,-5.681,-5.681,-5.681,-5.681,-5.681,-5.681,-5.681,-5.681,-5.681,-5.681,-5.681,-5.681,-5.684,-5.7056,-5.7641,-5.8627,-5.9378,-5.9747,-6.0178,-6.0763,-6.0794,-6.0794,-6.0794,-6.0845,-6.0845,-6.1,-6.1257,-6.1359,-6.143,-6.1834,-6.2279,-6.2762,-6.3037,-6.3128,-6.3418,-6.4523,-6.4752,-6.4542,-6.4803,-6.4723,-6.469,-6.4481,-6.4159,-6.3854,-6.4108,-6.3676,-6.3421,-6.3755,-6.3976,-6.3976,-6.4024,-6.4024,-6.4024,-6.3976,-6.3976,-6.3929,-6.3976,-6.4024,-6.3976,-6.3976,-6.3976,-6.4024,-6.3959,-6.3894,-6.3667,-6.3246,-6.2728,-6.2502,-6.2761,-6.2987,-6.2987,-5.2729,-5.2729,-5.2729,-5.2729,-5.2729,-5.2729,-5.3098,-5.3775,-5.4375,-5.4775,-5.513,-5.553,-5.5869,-5.6146,-5.6563,-5.681,-5.681,-5.681,-5.681,-5.681,-5.681,-5.681,-5.681,-5.681,-5.681,-5.681,-5.681,-5.681,-5.681,-5.681,-5.681,-5.681,-5.681,-5.681,-5.681,-5.681,-5.681,-5.681,-5.681,-5.681,-5.681,-5.681,-5.681,-5.681,-5.681,-5.681,-5.681,-5.681,-5.681,-5.681,-5.684,-5.681,-5.681,-5.681,-5.681,-5.681,-5.7118,-5.758,-5.8596,-5.9101,-5.9778,-6.0178,-6.0609,-6.0763,-6.0794,-6.0794,-6.0794,-6.0845,-6.0949,-6.1257,-6.1582,-6.1683,-6.2035,-6.2432,-6.3027,-6.351,-6.3896,-6.3907,-6.4601,-6.5689,-6.603,-6.6047,-6.6096,-6.5934,-6.5756,-6.5401,-6.5078,-6.4851,-6.4576,-6.4255,-6.387,-6.4013,-6.425,-6.425,-6.4153,-6.4024,-6.4024,-6.4024,-6.4024,-6.4024,-6.4024,-6.4024,-6.4024,-6.4024,-6.4024,-6.3991,-6.3894,-6.3797,-6.3779,-6.3728,-6.3515,-6.3339,-6.3279,-6.3437,-6.3594,-5.2729,-5.2729,-5.2729,-5.2729,-5.2729,-5.2729,-5.3098,-5.3714,-5.4283,-5.4945,-5.5592,-5.553,-5.593,-5.6656,-5.681,-5.681,-5.681,-5.681,-5.681,-5.681,-5.681,-5.681,-5.681,-5.681,-5.681,-5.681,-5.681,-5.681,-5.681,-5.681,-5.681,-5.681,-5.681,-5.681,-5.681,-5.681,-5.681,-5.681,-5.681,-5.681,-5.681,-5.681,-5.681,-5.681,-5.681,-5.681,-5.684,-5.6933,-5.6902,-5.6871,-5.6871,-5.684,-5.684,-5.684,-5.684,-5.7087,-5.7611,-5.8516,-5.9316,-5.9747,-6.0147,-6.0517,-6.0701,-6.0794,-6.0845,-6.0897,-6.1,-6.1155,-6.1328,-6.1531,-6.1784,-6.2135,-6.2481,-6.3062,-6.3658,-6.4124,-6.4559,-6.5043,-6.582,-6.6339,-6.6436,-6.6468,-6.6565,-6.655,-6.6647,-6.6565,-6.6273,-6.6257,-6.5983,-6.5562,-6.5126,-6.4593,-6.4704,-6.4494,-6.4332,-6.4088,-6.4024,-6.4024,-6.4024,-6.4024,-6.4024,-6.4024,-6.4024,-6.4024,-6.4024,-6.3991,-6.402,-6.4067,-6.41,-6.4017,-6.3993,-6.3993,-6.3961,-6.4067,-6.408,-5.2729,-5.2729,-5.2729,-5.2729,-5.2729,-5.2729,-5.2852,-5.3037,-5.3252,-5.3899,-5.5007,-5.5007,-5.5715,-5.6748,-5.681,-5.681,-5.681,-5.681,-5.681,-5.681,-5.681,-5.681,-5.681,-5.681,-5.681,-5.681,-5.681,-5.681,-5.681,-5.681,-5.681,-5.681,-5.6902,-5.6871,-5.6902,-5.684,-5.6902,-5.6933,-5.6964,-5.6902,-5.6902,-5.6902,-5.6902,-5.6902,-5.6902,-5.6902,-5.6933,-5.7364,-5.7333,-5.6994,-5.7333,-5.7364,-5.681,-5.7241,-5.7641,-5.8239,-5.8824,-5.947,-5.9809,-6.024,-6.0578,-6.0701,-6.0845,-6.0794,-6.0897,-6.1103,-6.1308,-6.1531,-6.1834,-6.2135,-6.2432,-6.2727,-6.3051,-6.3485,-6.4127,-6.469,-6.5174,-6.5917,-6.6647,-6.7165,-6.723,-6.7197,-6.7262,-6.7359,-6.7489,-6.7553,-6.7521,-6.7424,-6.723,-6.6744,-6.6064,-6.5448,-6.5092,-6.493,-6.438,-6.4024,-6.4024,-6.4024,-6.4024,-6.4024,-6.3991,-6.3991,-6.4024,-6.4024,-6.4038,-6.4132,-6.4193,-6.424,-6.4286,-6.4504,-6.4545,-6.4564,-6.4564,-6.4669,-6.4453,-5.2729,-5.2729,-5.2729,-5.2729,-5.2729,-5.2729,-5.2729,-5.2729,-5.2729,-5.3468,-5.4591,-5.4683,-5.5499,-5.6686,-5.681,-5.681,-5.681,-5.681,-5.681,-5.681,-5.681,-5.681,-5.681,-5.681,-5.681,-5.681,-5.681,-5.681,-5.681,-5.684,-5.6871,-5.7241,-5.721,-5.7364,-5.758,-5.7765,-5.7654,-5.758,-5.7426,-5.7241,-5.721,-5.721,-5.721,-5.721,-5.721,-5.721,-5.7254,-5.7857,-5.7919,-5.7641,-5.8104,-5.7931,-5.7592,-5.8073,-5.8596,-5.9151,-5.9408,-5.987,-6.024,-6.0517,-6.0732,-6.0845,-6.1,-6.1155,-6.1175,-6.1379,-6.1633,-6.1935,-6.2383,-6.2825,-6.3116,-6.3389,-6.366,-6.3929,-6.4624,-6.5271,-6.5999,-6.6711,-6.7327,-6.7942,-6.8104,-6.8072,-6.8136,-6.8201,-6.8169,-6.8007,-6.7942,-6.791,-6.7813,-6.7553,-6.6679,-6.5837,-6.5513,-6.5254,-6.4606,-6.4024,-6.4024,-6.4024,-6.4024,-6.4024,-6.4038,-6.4085,-6.4085,-6.4085,-6.41,-6.424,-6.4426,-6.4472,-6.4564,-6.4781,-6.4918,-6.4885,-6.4918,-6.5029,-6.4667,-5.2729,-5.2729,-5.2729,-5.2729,-5.2729,-5.2729,-5.2729,-5.2729,-5.2729,-5.3422,-5.4498,-5.4683,-5.5468,-5.6625,-5.681,-5.681,-5.681,-5.681,-5.681,-5.681,-5.681,-5.681,-5.681,-5.681,-5.681,-5.681,-5.681,-5.681,-5.681,-5.684,-5.7087,-5.7734,-5.7765,-5.7857,-5.8165,-5.8393,-5.8393,-5.8331,-5.8177,-5.8104,-5.7919,-5.7888,-5.7888,-5.7888,-5.7888,-5.7869,-5.8023,-5.8393,-5.8824,-5.8793,-5.8793,-5.865,-5.8681,-5.9047,-5.9591,-5.9767,-5.9963,-6.0209,-6.0517,-6.0732,-6.0866,-6.1052,-6.1308,-6.1633,-6.1784,-6.1935,-6.2234,-6.2481,-6.2922,-6.3244,-6.3484,-6.3692,-6.3914,-6.4365,-6.498,-6.5708,-6.642,-6.7117,-6.78,-6.8286,-6.8451,-6.8451,-6.8451,-6.8501,-6.855,-6.8401,-6.8351,-6.8351,-6.8221,-6.8059,-6.7182,-6.6145,-6.561,-6.5157,-6.4477,-6.3991,-6.4071,-6.4071,-6.4071,-6.4179,-6.4286,-6.4272,-6.4132,-6.424,-6.4379,-6.4518,-6.4656,-6.4702,-6.4793,-6.4976,-6.5111,-6.5201,-6.5234,-6.5255,-6.509,-5.2729,-5.2729,-5.2729,-5.2729,-5.2729,-5.2729,-5.2729,-5.2729,-5.2729,-5.3468,-5.4498,-5.4822,-5.5499,-5.6686,-5.681,-5.681,-5.681,-5.681,-5.681,-5.681,-5.681,-5.681,-5.681,-5.681,-5.681,-5.681,-5.681,-5.681,-5.681,-5.684,-5.6871,-5.7148,-5.7549,-5.8104,-5.8381,-5.867,-5.8978,-5.9039,-5.9162,-5.8947,-5.872,-5.8627,-5.8547,-5.8547,-5.8547,-5.8547,-5.8762,-5.9162,-5.9131,-5.8947,-5.9347,-5.9439,-5.9419,-6.0105,-6.0444,-6.0537,-6.0486,-6.0609,-6.0722,-6.0949,-6.1124,-6.1328,-6.1683,-6.2184,-6.2481,-6.2678,-6.2922,-6.3148,-6.3341,-6.3612,-6.3835,-6.3962,-6.425,-6.4768,-6.5319,-6.6031,-6.6793,-6.7507,-6.8241,-6.847,-6.8666,-6.8748,-6.8748,-6.8748,-6.8797,-6.8797,-6.8847,-6.8781,-6.8536,-6.8291,-6.7362,-6.6403,-6.5497,-6.493,-6.433,-6.4132,-6.4226,-6.4319,-6.4333,-6.4472,-6.461,-6.4564,-6.4472,-6.4564,-6.4623,-6.4748,-6.4918,-6.4963,-6.5099,-6.5201,-6.5291,-6.5291,-6.5336,-6.5324,-6.5303,-5.2452,-5.2698,-5.2729,-5.2729,-5.2729,-5.2729,-5.2729,-5.2729,-5.2729,-5.3468,-5.456,-5.4775,-5.5499,-5.6686,-5.681,-5.681,-5.681,-5.681,-5.681,-5.681,-5.681,-5.681,-5.681,-5.681,-5.681,-5.681,-5.681,-5.681,-5.6871,-5.684,-5.6902,-5.7272,-5.7857,-5.8381,-5.8608,-5.9255,-5.9624,-5.9716,-6.0055,-5.9932,-5.9532,-5.9408,-5.9255,-5.9224,-5.9224,-5.9224,-5.947,-5.9839,-5.9932,-5.9809,-6.0116,-6.0209,-6.024,-6.0527,-6.0712,-6.0753,-6.0763,-6.0794,-6.0918,-6.1277,-6.1602,-6.1953,-6.2761,-6.3468,-6.3324,-6.3548,-6.3628,-6.3817,-6.3707,-6.3929,-6.3929,-6.4009,-6.4474,-6.5008,-6.5446,-6.6013,-6.7134,-6.8112,-6.8569,-6.8732,-6.8847,-6.8896,-6.8896,-6.8896,-6.8896,-6.8896,-6.8994,-6.9042,-6.8813,-6.8369,-6.7441,-6.6611,-6.5766,-6.5068,-6.4575,-6.4426,-6.4472,-6.4564,-6.4656,-6.4656,-6.4702,-6.4793,-6.4885,-6.4885,-6.4885,-6.5008,-6.5099,-6.5189,-6.5234,-6.5336,-6.5381,-6.5381,-6.5425,-6.5425,-6.5348,-5.2113,-5.2667,-5.2729,-5.2729,-5.2729,-5.2729,-5.2729,-5.2729,-5.2821,-5.356,-5.4621,-5.4853,-5.5653,-5.6392,-5.681,-5.681,-5.681,-5.681,-5.681,-5.681,-5.681,-5.681,-5.681,-5.681,-5.681,-5.681,-5.681,-5.6933,-5.7056,-5.6964,-5.7148,-5.7826,-5.8473,-5.9039,-5.9716,-6.0332,-6.0578,-6.0517,-6.064,-6.0701,-6.0517,-6.027,-6.0024,-5.9901,-5.9901,-5.9932,-6.0116,-6.0414,-6.0784,-6.0774,-6.0702,-6.0805,-6.1,-6.1133,-6.1266,-6.1379,-6.1481,-6.1481,-6.1551,-6.2171,-6.2436,-6.2923,-6.4049,-6.4453,-6.4221,-6.43,-6.4426,-6.4365,-6.4226,-6.4118,-6.4118,-6.4215,-6.4713,-6.5408,-6.5814,-6.635,-6.762,-6.8682,-6.8879,-6.9042,-6.9091,-6.9091,-6.9091,-6.9091,-6.9091,-6.9091,-6.9091,-6.9091,-6.8943,-6.8331,-6.7593,-6.6809,-6.604,-6.5417,-6.4767,-6.4748,-6.4748,-6.4793,-6.4839,-6.4839,-6.4839,-6.5021,-6.5111,-6.5144,-6.5189,-6.5234,-6.5246,-6.5336,-6.5381,-6.5425,-6.5425,-6.5425,-6.5425,-6.5425,-6.5425,-5.2082,-5.2698,-5.2729,-5.2729,-5.2729,-5.2729,-5.2729,-5.2821,-5.3283,-5.3991,-5.4668,-5.5345,-5.6023,-5.681,-5.681,-5.681,-5.681,-5.681,-5.681,-5.681,-5.681,-5.681,-5.681,-5.681,-5.681,-5.684,-5.6933,-5.7148,-5.7364,-5.7118,-5.7179,-5.7888,-5.8566,-5.8947,-5.9162,-5.9932,-6.0845,-6.0845,-6.0845,-6.0845,-6.0897,-6.0691,-6.0671,-6.0609,-6.0609,-6.0609,-6.0722,-6.0939,-6.1103,-6.1031,-6.0998,-6.1232,-6.164,-6.1966,-6.2216,-6.2319,-6.2418,-6.2583,-6.2843,-6.3228,-6.3514,-6.3923,-6.4741,-6.5,-6.491,-6.5078,-6.5111,-6.5021,-6.4839,-6.4551,-6.4504,-6.4431,-6.485,-6.597,-6.67,-6.7585,-6.8665,-6.9073,-6.922,-6.9382,-6.943,-6.9511,-6.9559,-6.9559,-6.9559,-6.9559,-6.9511,-6.9526,-6.9379,-6.8569,-6.7644,-6.7017,-6.6357,-6.5502,-6.4793,-6.4963,-6.5054,-6.5099,-6.5111,-6.5111,-6.5156,-6.5291,-6.5336,-6.5324,-6.5291,-6.5336,-6.5425,-6.5425,-6.5425,-6.5425,-6.5425,-6.5425,-6.5425,-6.5425,-6.5425]},{"header":{"parameterUnit":"m.s-1","parameterCategory":1,"la1":31.0,"la2":29.5877,"lo1":-88.7671,"lo2":-86.6584,"dy":0.0162,"dx":0.0185,"nx":115,"ny":88,"refTime":"2026-05-06T12:00:00:Z","depth":0,"parameterNumber":3,"parameterNumberName":"V-component_of_WINDS"},"data":[0.0,0.0,0.0,0.0,0.0,0.0,0.0,0.0,0.0,0.0,0.0,0.0,0.0,0.0,0.0,0.0,0.0,0.0,0.0,0.0,0.0,0.0,0.0,0.0,0.0,0.0,0.0,0.0,0.0,0.0,0.0,0.0,0.0,0.0,0.0,0.0,0.0,0.0,0.0,0.0,0.0,0.0,0.0,0.0,0.0,0.0,0.0,0.0,0.0,0.0,0.0,0.0,0.0,0.0,0.0,0.0,0.0,0.0,0.0,0.0,0.0,0.0,0.0,0.0,0.0,0.0,0.0,0.0,0.0,0.0,0.0,0.0,0.0,0.0,0.0,0.0,0.0,0.0,0.0,0.0,0.0,0.0,0.0,0.0,0.0,0.0,0.0,0.0,0.0,0.0,0.0,0.0,0.0,0.0,0.0,0.0,0.0,0.0,0.0,0.0,0.0,0.0,0.0,0.0,0.0,0.0,0.0,0.0,0.0,0.0,0.0,0.0,0.0,0.0,0.0,0.0,0.0,0.0,0.0,0.0,0.0,0.0,0.0,0.0,0.0,0.0,0.0,0.0,0.0,0.0,0.0,0.0,0.0,0.0,0.0,0.0,0.0,0.0,0.0,0.0,0.0,0.0,0.0,0.0,0.0,0.0,0.0,0.0,0.0,0.0,0.0,0.0,0.0,0.0,0.0,0.0,0.0,0.0,0.0,0.0,0.0,0.0,0.0,0.0,0.0,0.0,0.0,0.0,0.0,0.0,0.0,0.0,0.0,0.0,0.0,0.0,0.0,0.0,0.0,0.0,0.0,0.0,0.0,0.0,0.0,0.0,0.0,0.0,0.0,0.0,0.0,0.0,0.0,0.0,0.0,0.0,0.0,0.0,0.0,0.0,0.0,0.0,0.0,0.0,0.0,0.0,0.0,0.0,0.0,0.0,0.0,0.0,0.0,0.0,0.0,0.0,0.0,0.0,0.0,0.0,0.0,0.0,0.0,0.0,0.0,0.0,0.0,0.0,0.0,0.0,0.0,0.0,0.0,0.0,0.0,0.0,0.0,0.0,0.0,0.0,0.0,0.0,0.0,0.0,0.0,0.0,0.0,0.0,0.0,0.0,0.0,0.0,0.0,0.0,0.0,0.0,0.0,0.0,0.0,0.0,0.0,0.0,0.0,0.0,0.0,0.0,0.0,0.0,0.0,0.0,0.0,0.0,0.0,0.0,0.0,0.0,0.0,0.0,0.0,0.0,0.0,0.0,0.0,0.0,0.0,0.0,0.0,0.0,0.0,0.0,0.0,0.0,0.0,0.0,0.0,0.0,0.0,0.0,0.0,0.0,0.0,0.0,0.0,0.0,0.0,0.0,0.0,0.0,0.0,0.0,0.0,0.0,0.0,0.0,0.0,0.0,0.0,0.0,0.0,0.0,0.0,0.0,0.0,0.0,0.0,0.0,0.0,0.0,0.0,0.0,0.0,0.0,0.0,0.0,0.0,0.0,0.0,0.0,0.0,0.0,0.0,0.0,0.0,0.0,0.0,0.0,0.0,0.0,0.0,0.0,0.0,0.0,0.0,0.0,0.0,0.0,0.0,0.0,0.0,0.0,0.0,0.0,0.0,0.0,0.0,0.0,0.0,0.0,0.0,0.0,0.0,0.0,0.0,0.0,0.0,0.0,0.0,0.0,0.0,0.0,0.0,0.0,0.0,0.0,0.0,0.0,0.0,0.0,0.0,0.0,0.0,0.0,0.0,0.0,0.0,0.0,0.0,0.0,0.0,0.0,0.0,0.0,0.0,0.0,0.0,0.0,0.0,0.0,0.0,0.0,0.0,0.0,0.0,0.0,0.0,0.0,0.0,0.0,0.0,0.0,0.0,0.0,0.0,0.0,0.0,0.0,0.0,0.0,0.0,0.0,0.0,0.0,0.0,0.0,0.0,0.0,0.0,0.0,0.0,0.0,0.0,0.0,0.0,0.0,0.0,0.0,0.0,0.0,0.0,0.0,0.0,0.0,0.0,0.0,0.0,0.0,0.0,0.0,0.0,0.0,0.0,0.0,0.0,0.0,0.0,0.0,0.0,0.0,0.0,0.0,0.0,0.0,0.0,0.0,0.0,0.0,0.0,0.0,0.0,0.0,0.0,0.0,0.0,0.0,0.0,0.0,0.0,0.0,0.0,0.0,0.0,0.0,0.0,0.0,0.0,0.0,0.0,0.0,0.0,0.0,0.0,0.0,0.0,0.0,0.0,0.0,0.0,0.0,0.0,0.0,0.0,0.0,0.0,0.0,0.0,0.0,0.0,0.0,0.0,0.0,0.0,0.0,0.0,0.0,0.0,0.0,0.0,0.0,0.0,0.0,0.0,0.0,0.0,0.0,0.0,0.0,0.0,0.0,0.0,0.0,0.0,0.0,0.0,0.0,0.0,0.0,0.0,0.0,0.0,0.0,0.0,0.0,0.0,0.0,0.0,0.0,0.0,0.0,0.0,0.0,0.0,0.0,0.0,0.0,0.0,0.0,0.0,0.0,0.0,0.0,0.0,0.0,0.0,0.0,0.0,0.0,0.0,0.0,0.0,0.0,0.0,0.0,0.0,0.0,0.0,0.0,0.0,0.0,0.0,0.0,0.0,0.0,0.0,0.0,0.0,0.0,0.0,0.0,0.0,0.0,0.0,0.0,0.0,0.0,0.0,0.0,0.0,0.0,0.0,0.0,0.0,0.0,0.0,0.0,0.0,0.0,0.0,0.0,0.0,0.0,0.0,0.0,0.0,0.0,0.0,0.0,0.0,0.0,0.0,0.0,0.0,0.0,0.0,0.0,0.0,0.0,0.0,0.0,0.0,0.0,0.0,0.0,0.0,0.0,0.0,0.0,0.0,0.0,0.0,0.0,0.0,0.0,0.0,0.0,0.0,0.0,0.0,0.0,0.0,0.0,0.0,0.0,0.0,0.0,0.0,0.0,0.0,0.0,0.0,0.0,0.0,0.0,0.0,0.0,0.0,0.0,0.0,0.0,0.0,0.0,0.0,0.0,0.0,0.0,0.0,0.0,0.0,0.0,0.0,0.0,0.0,0.0,0.0,0.0,0.0,0.0,0.0,0.0,0.0,0.0,0.0,0.0,0.0,0.0,0.0,0.0,0.0,0.0,0.0,0.0,0.0,0.0,0.0,0.0,0.0,0.0,0.0,0.0,0.0,0.0,0.0,0.0,0.0,0.0,0.0,0.0,0.0,0.0,0.0,0.0,0.0,0.0,0.0,0.0,0.0,0.0,0.0,0.0,0.0,0.0,0.0,0.0,0.0,0.0,0.0,0.0,0.0,0.0,0.0,0.0,0.0,0.0,0.0,0.0,0.0,0.0,0.0,0.0,0.0,0.0,0.0,0.0,0.0,0.0,0.0,0.0,0.0,0.0,0.0,0.0,0.0,0.0,0.0,0.0,0.0,0.0,0.0,0.0,0.0,0.0,0.0,0.0,0.0,0.0,0.0,0.0,0.0,0.0,0.0,0.0,0.0,0.0,0.0,0.0,0.0,0.0,0.0,0.0,0.0,0.0,0.0,0.0,0.0,0.0,0.0,0.0,0.0,0.0,0.0,0.0,0.0,0.0,0.0,0.0,0.0,0.0,0.0,0.0,0.0,0.0,0.0,0.0,0.0,0.0,0.0,0.0,0.0,0.0,0.0,0.0,0.0,0.0,0.0,0.0,0.0,0.0,0.0,0.0,0.0,0.0,0.0,0.0,0.0,0.0,0.0,0.0,0.0,0.0,0.0,0.0,0.0,0.0,0.0,0.0,0.0,0.0,0.0,0.0,0.0,0.0,0.0,0.0,0.0,0.0,0.0,0.0,0.0,0.0,0.0,0.0,0.0,0.0,0.0,0.0,0.0,0.0,0.0,0.0,0.0,0.0,0.0,0.0,0.0,0.0,0.0,0.0,0.0,0.0,0.0,0.0,0.0,0.0,0.0,0.0,0.0,0.0,0.0,0.0,0.0,0.0,0.0,0.0,0.0,0.0,0.0,0.0,0.0,0.0,0.0,0.0,0.0,0.0,0.0,0.0,0.0,0.0,0.0,0.0,0.0,0.0,0.0,0.0,0.0,0.0,0.0,0.0,0.0,0.0,0.0,0.0,0.0,0.0,0.0,0.0,0.0,0.0,0.0,0.0,0.0,0.0,0.0,0.0,0.0,0.0,0.0,0.0,0.0,0.0,0.0,0.0,0.0,0.0,0.0,0.0,0.0,0.0,0.0,0.0,0.0,0.0,0.0,0.0,0.0,0.0,0.0,0.0,-3.4929,0.0,0.0,0.0,0.0,0.0,0.0,0.0,0.0,0.0,0.0,0.0,0.0,0.0,0.0,0.0,0.0,0.0,0.0,0.0,0.0,0.0,0.0,0.0,0.0,0.0,0.0,0.0,0.0,0.0,0.0,0.0,0.0,0.0,0.0,0.0,0.0,0.0,0.0,0.0,0.0,0.0,0.0,0.0,0.0,0.0,0.0,0.0,0.0,0.0,0.0,0.0,0.0,0.0,0.0,0.0,0.0,0.0,0.0,0.0,0.0,0.0,0.0,0.0,0.0,0.0,0.0,0.0,0.0,0.0,0.0,0.0,0.0,0.0,0.0,0.0,0.0,0.0,0.0,0.0,0.0,0.0,0.0,0.0,0.0,0.0,0.0,0.0,0.0,0.0,0.0,0.0,0.0,0.0,0.0,0.0,0.0,0.0,0.0,0.0,0.0,0.0,0.0,0.0,0.0,0.0,0.0,0.0,0.0,0.0,0.0,-3.8014,-3.7289,-3.6551,-3.6099,-3.5891,0.0,0.0,0.0,0.0,0.0,0.0,0.0,0.0,0.0,0.0,0.0,0.0,0.0,0.0,0.0,0.0,0.0,0.0,0.0,0.0,0.0,0.0,0.0,0.0,0.0,0.0,0.0,0.0,0.0,0.0,0.0,0.0,0.0,0.0,0.0,0.0,0.0,0.0,0.0,0.0,0.0,0.0,0.0,0.0,0.0,0.0,0.0,0.0,0.0,0.0,0.0,0.0,0.0,0.0,0.0,0.0,0.0,0.0,0.0,0.0,0.0,0.0,0.0,0.0,0.0,0.0,0.0,0.0,0.0,0.0,0.0,0.0,0.0,0.0,0.0,0.0,0.0,0.0,0.0,0.0,0.0,0.0,0.0,0.0,0.0,0.0,0.0,0.0,0.0,0.0,0.0,0.0,0.0,0.0,0.0,0.0,0.0,0.0,0.0,0.0,0.0,0.0,0.0,0.0,0.0,0.0,0.0,0.0,0.0,0.0,0.0,0.0,-3.649,-3.6212,-3.6351,0.0,0.0,0.0,0.0,0.0,0.0,0.0,0.0,0.0,0.0,0.0,0.0,0.0,0.0,0.0,0.0,0.0,0.0,0.0,0.0,0.0,0.0,0.0,0.0,0.0,0.0,0.0,0.0,0.0,0.0,0.0,0.0,0.0,0.0,0.0,0.0,0.0,0.0,0.0,0.0,0.0,0.0,0.0,0.0,0.0,0.0,0.0,0.0,0.0,0.0,0.0,0.0,0.0,0.0,0.0,0.0,0.0,0.0,0.0,0.0,0.0,0.0,0.0,0.0,0.0,0.0,0.0,0.0,0.0,0.0,0.0,0.0,0.0,0.0,0.0,0.0,0.0,0.0,0.0,0.0,0.0,0.0,0.0,0.0,0.0,0.0,0.0,0.0,0.0,0.0,0.0,0.0,0.0,0.0,0.0,0.0,0.0,0.0,0.0,0.0,0.0,0.0,0.0,0.0,0.0,0.0,0.0,0.0,0.0,0.0,-3.7749,-3.7317,-3.6677,0.0,-3.4579,0.0,0.0,0.0,0.0,0.0,0.0,0.0,0.0,0.0,0.0,0.0,0.0,0.0,0.0,0.0,0.0,0.0,0.0,0.0,0.0,0.0,0.0,0.0,0.0,0.0,0.0,0.0,0.0,0.0,0.0,0.0,0.0,0.0,0.0,0.0,0.0,0.0,0.0,0.0,0.0,0.0,0.0,0.0,0.0,0.0,0.0,0.0,0.0,0.0,0.0,0.0,0.0,0.0,0.0,0.0,0.0,0.0,0.0,0.0,0.0,0.0,0.0,0.0,0.0,0.0,0.0,0.0,0.0,0.0,0.0,0.0,0.0,0.0,0.0,0.0,0.0,0.0,0.0,0.0,0.0,0.0,0.0,0.0,0.0,0.0,0.0,0.0,0.0,0.0,0.0,0.0,0.0,0.0,0.0,0.0,0.0,0.0,0.0,0.0,0.0,0.0,0.0,0.0,0.0,0.0,0.0,0.0,0.0,0.0,0.0,-3.8127,-3.751,-3.691,-3.6039,0.0,0.0,0.0,0.0,0.0,0.0,0.0,0.0,0.0,0.0,0.0,0.0,0.0,0.0,0.0,0.0,0.0,0.0,0.0,0.0,0.0,0.0,0.0,0.0,0.0,0.0,0.0,0.0,0.0,0.0,0.0,0.0,0.0,0.0,0.0,0.0,0.0,0.0,0.0,0.0,0.0,0.0,0.0,0.0,0.0,0.0,0.0,0.0,0.0,0.0,0.0,0.0,0.0,0.0,0.0,0.0,0.0,0.0,0.0,0.0,0.0,0.0,0.0,0.0,0.0,0.0,0.0,0.0,0.0,0.0,0.0,0.0,0.0,0.0,0.0,0.0,0.0,0.0,0.0,0.0,0.0,0.0,0.0,0.0,0.0,0.0,0.0,0.0,0.0,0.0,0.0,0.0,0.0,0.0,0.0,0.0,0.0,0.0,0.0,0.0,0.0,0.0,0.0,0.0,0.0,0.0,0.0,0.0,0.0,0.0,-3.8733,-3.8501,-3.7558,-3.6627,-3.5853,-3.5151,0.0,0.0,0.0,0.0,0.0,0.0,0.0,0.0,0.0,0.0,0.0,0.0,0.0,0.0,0.0,0.0,0.0,0.0,0.0,0.0,0.0,0.0,0.0,0.0,0.0,0.0,0.0,0.0,0.0,0.0,0.0,0.0,0.0,0.0,0.0,0.0,0.0,0.0,0.0,0.0,0.0,0.0,0.0,0.0,0.0,0.0,0.0,0.0,0.0,0.0,0.0,0.0,0.0,0.0,0.0,0.0,0.0,0.0,0.0,0.0,0.0,0.0,0.0,0.0,0.0,0.0,0.0,0.0,0.0,0.0,0.0,0.0,0.0,0.0,0.0,0.0,0.0,0.0,0.0,0.0,0.0,0.0,0.0,0.0,0.0,0.0,0.0,0.0,0.0,0.0,0.0,0.0,0.0,0.0,0.0,0.0,0.0,0.0,0.0,0.0,0.0,0.0,0.0,0.0,0.0,0.0,0.0,0.0,0.0,-3.9264,-3.8716,-3.7327,-3.5731,-3.4687,0.0,0.0,0.0,0.0,0.0,0.0,0.0,0.0,0.0,0.0,0.0,0.0,0.0,0.0,0.0,0.0,0.0,0.0,0.0,0.0,0.0,0.0,0.0,0.0,0.0,0.0,0.0,0.0,0.0,0.0,0.0,0.0,0.0,0.0,0.0,0.0,0.0,0.0,0.0,0.0,0.0,0.0,0.0,0.0,0.0,0.0,0.0,0.0,0.0,0.0,0.0,0.0,0.0,0.0,0.0,0.0,0.0,0.0,0.0,0.0,0.0,0.0,0.0,0.0,0.0,0.0,0.0,0.0,0.0,0.0,0.0,0.0,0.0,0.0,0.0,0.0,0.0,0.0,0.0,0.0,0.0,0.0,0.0,0.0,0.0,0.0,0.0,0.0,0.0,0.0,0.0,0.0,0.0,0.0,0.0,0.0,0.0,0.0,0.0,0.0,0.0,0.0,0.0,0.0,0.0,0.0,0.0,0.0,0.0,-3.8375,-3.8662,-3.8277,-3.7078,-3.5767,-3.4737,0.0,0.0,0.0,0.0,0.0,0.0,0.0,0.0,0.0,0.0,0.0,0.0,0.0,0.0,0.0,0.0,0.0,0.0,0.0,0.0,0.0,0.0,0.0,0.0,0.0,0.0,0.0,0.0,0.0,0.0,0.0,0.0,0.0,0.0,0.0,0.0,0.0,0.0,0.0,0.0,0.0,0.0,0.0,0.0,0.0,0.0,0.0,0.0,0.0,0.0,0.0,0.0,0.0,0.0,0.0,0.0,0.0,0.0,0.0,0.0,0.0,0.0,0.0,0.0,0.0,0.0,0.0,0.0,0.0,0.0,0.0,0.0,0.0,0.0,0.0,0.0,0.0,0.0,0.0,0.0,0.0,0.0,0.0,0.0,0.0,0.0,0.0,0.0,0.0,0.0,0.0,0.0,0.0,0.0,0.0,0.0,0.0,0.0,0.0,0.0,0.0,0.0,0.0,0.0,0.0,0.0,0.0,0.0,0.0,-3.8478,0.0,-3.7796,0.0,-3.5619,-3.4592,0.0,0.0,0.0,0.0,0.0,0.0,0.0,0.0,0.0,0.0,0.0,0.0,0.0,0.0,0.0,0.0,0.0,0.0,0.0,0.0,0.0,0.0,0.0,0.0,0.0,0.0,0.0,0.0,0.0,0.0,0.0,0.0,0.0,0.0,0.0,0.0,0.0,0.0,0.0,0.0,0.0,0.0,0.0,0.0,0.0,0.0,0.0,0.0,0.0,0.0,0.0,0.0,0.0,0.0,0.0,0.0,0.0,0.0,0.0,0.0,0.0,0.0,0.0,0.0,0.0,0.0,0.0,0.0,0.0,0.0,0.0,0.0,0.0,0.0,0.0,0.0,0.0,0.0,0.0,0.0,0.0,0.0,0.0,0.0,0.0,0.0,0.0,0.0,0.0,0.0,0.0,0.0,0.0,0.0,0.0,0.0,0.0,0.0,0.0,0.0,0.0,0.0,0.0,0.0,0.0,0.0,0.0,0.0,-3.9082,-3.957,-3.836,-3.7586,-3.725,-3.5398,-3.4279,0.0,0.0,0.0,0.0,0.0,0.0,0.0,0.0,0.0,0.0,0.0,0.0,0.0,0.0,0.0,0.0,0.0,0.0,0.0,0.0,0.0,0.0,0.0,0.0,0.0,0.0,0.0,0.0,0.0,0.0,0.0,0.0,0.0,0.0,0.0,0.0,0.0,0.0,0.0,0.0,0.0,0.0,0.0,0.0,0.0,0.0,0.0,0.0,0.0,0.0,0.0,0.0,0.0,0.0,0.0,0.0,0.0,0.0,0.0,0.0,0.0,0.0,0.0,0.0,0.0,0.0,0.0,0.0,0.0,0.0,0.0,0.0,0.0,0.0,0.0,0.0,0.0,0.0,0.0,0.0,0.0,0.0,0.0,0.0,0.0,0.0,0.0,0.0,0.0,0.0,0.0,0.0,0.0,0.0,0.0,0.0,0.0,0.0,0.0,0.0,0.0,0.0,0.0,0.0,0.0,0.0,0.0,0.0,0.0,-3.9199,-3.8964,-3.8235,-3.705,-3.6448,-3.5603,0.0,0.0,0.0,0.0,0.0,0.0,0.0,0.0,0.0,0.0,0.0,0.0,0.0,0.0,0.0,0.0,0.0,0.0,0.0,0.0,0.0,0.0,0.0,0.0,0.0,0.0,0.0,0.0,0.0,0.0,0.0,0.0,0.0,0.0,0.0,0.0,0.0,0.0,0.0,0.0,0.0,0.0,0.0,0.0,0.0,0.0,0.0,0.0,0.0,0.0,0.0,0.0,0.0,0.0,0.0,0.0,0.0,0.0,0.0,0.0,0.0,0.0,0.0,0.0,0.0,0.0,0.0,0.0,0.0,0.0,0.0,0.0,0.0,0.0,0.0,0.0,0.0,0.0,0.0,0.0,0.0,0.0,0.0,0.0,0.0,0.0,0.0,0.0,0.0,0.0,0.0,0.0,0.0,0.0,0.0,0.0,0.0,0.0,0.0,0.0,0.0,0.0,0.0,0.0,0.0,0.0,0.0,0.0,0.0,-4.0585,-4.0007,-3.9178,-3.82,-3.7302,-3.6346,-3.5157,0.0,0.0,0.0,0.0,0.0,0.0,0.0,0.0,0.0,0.0,0.0,0.0,0.0,0.0,0.0,0.0,0.0,0.0,0.0,0.0,0.0,0.0,0.0,0.0,0.0,0.0,0.0,0.0,0.0,0.0,0.0,0.0,0.0,0.0,0.0,0.0,0.0,0.0,0.0,0.0,0.0,0.0,0.0,0.0,0.0,0.0,0.0,0.0,0.0,0.0,0.0,0.0,0.0,0.0,0.0,0.0,0.0,0.0,0.0,0.0,0.0,0.0,0.0,0.0,0.0,0.0,0.0,0.0,0.0,0.0,0.0,0.0,0.0,0.0,0.0,0.0,0.0,0.0,0.0,0.0,0.0,0.0,0.0,0.0,0.0,0.0,0.0,0.0,0.0,0.0,0.0,0.0,0.0,0.0,0.0,0.0,0.0,0.0,0.0,0.0,0.0,0.0,0.0,0.0,0.0,0.0,0.0,0.0,-4.34,-4.1412,-4.0435,-4.0368,-3.8112,-3.662,0.0,0.0,0.0,0.0,0.0,0.0,0.0,0.0,0.0,0.0,0.0,0.0,0.0,0.0,0.0,0.0,0.0,0.0,0.0,0.0,0.0,0.0,0.0,0.0,0.0,0.0,0.0,0.0,0.0,0.0,0.0,0.0,0.0,0.0,0.0,0.0,0.0,0.0,0.0,0.0,0.0,0.0,0.0,0.0,0.0,0.0,0.0,0.0,0.0,0.0,0.0,0.0,0.0,0.0,0.0,0.0,0.0,0.0,0.0,0.0,0.0,0.0,0.0,0.0,0.0,0.0,0.0,0.0,0.0,0.0,0.0,0.0,0.0,0.0,0.0,0.0,0.0,0.0,0.0,0.0,0.0,0.0,0.0,0.0,0.0,0.0,0.0,0.0,0.0,0.0,0.0,0.0,0.0,0.0,0.0,0.0,0.0,0.0,0.0,0.0,0.0,0.0,0.0,0.0,0.0,0.0,0.0,0.0,0.0,-4.4588,-4.4339,-4.3406,-4.1856,-4.0642,-3.9071,0.0,0.0,0.0,0.0,0.0,0.0,0.0,0.0,0.0,0.0,0.0,0.0,0.0,0.0,0.0,0.0,0.0,0.0,0.0,0.0,0.0,0.0,0.0,0.0,0.0,0.0,0.0,0.0,0.0,0.0,0.0,0.0,0.0,0.0,0.0,0.0,0.0,0.0,0.0,0.0,0.0,0.0,0.0,0.0,0.0,0.0,0.0,0.0,0.0,0.0,0.0,0.0,0.0,0.0,0.0,0.0,0.0,0.0,0.0,0.0,0.0,0.0,0.0,0.0,0.0,0.0,0.0,0.0,0.0,0.0,0.0,0.0,0.0,0.0,0.0,0.0,0.0,0.0,0.0,0.0,0.0,0.0,0.0,0.0,0.0,0.0,0.0,0.0,0.0,0.0,0.0,0.0,0.0,0.0,0.0,0.0,0.0,0.0,0.0,0.0,0.0,0.0,0.0,0.0,0.0,0.0,0.0,0.0,-4.5006,-4.6177,-4.6732,-4.6188,-4.4484,-4.2312,-4.0404,0.0,0.0,0.0,0.0,0.0,0.0,0.0,0.0,0.0,0.0,0.0,0.0,0.0,0.0,0.0,0.0,0.0,0.0,0.0,0.0,0.0,0.0,0.0,0.0,0.0,0.0,0.0,0.0,0.0,0.0,0.0,0.0,0.0,0.0,0.0,0.0,0.0,0.0,0.0,0.0,0.0,0.0,0.0,0.0,0.0,0.0,0.0,0.0,0.0,0.0,0.0,0.0,0.0,0.0,0.0,0.0,0.0,0.0,0.0,0.0,0.0,0.0,0.0,0.0,0.0,0.0,0.0,0.0,0.0,0.0,0.0,0.0,0.0,0.0,0.0,0.0,0.0,0.0,0.0,0.0,0.0,0.0,0.0,0.0,0.0,0.0,0.0,0.0,0.0,0.0,0.0,0.0,0.0,0.0,0.0,0.0,0.0,0.0,0.0,0.0,0.0,0.0,0.0,0.0,0.0,0.0,0.0,0.0,-4.644,-4.7722,-4.8573,-4.8492,-4.7457,-4.365,-4.1314,0.0,0.0,0.0,0.0,0.0,0.0,0.0,0.0,0.0,0.0,0.0,0.0,0.0,0.0,0.0,0.0,0.0,0.0,0.0,0.0,0.0,0.0,0.0,0.0,0.0,0.0,0.0,0.0,0.0,0.0,0.0,0.0,0.0,0.0,0.0,0.0,0.0,0.0,0.0,0.0,0.0,0.0,0.0,0.0,0.0,0.0,0.0,0.0,0.0,0.0,0.0,0.0,0.0,0.0,0.0,0.0,0.0,0.0,0.0,0.0,0.0,0.0,0.0,0.0,0.0,0.0,0.0,0.0,0.0,0.0,0.0,0.0,0.0,0.0,0.0,0.0,0.0,0.0,0.0,0.0,0.0,0.0,0.0,0.0,0.0,0.0,0.0,0.0,0.0,0.0,0.0,0.0,0.0,0.0,0.0,0.0,0.0,0.0,0.0,0.0,0.0,0.0,0.0,0.0,0.0,0.0,0.0,0.0,-4.6651,-4.8126,-4.8806,-4.8757,-4.8056,-4.57,-4.3581,0.0,0.0,0.0,0.0,0.0,0.0,0.0,0.0,0.0,0.0,0.0,0.0,0.0,0.0,0.0,0.0,0.0,0.0,0.0,0.0,0.0,0.0,0.0,0.0,0.0,0.0,0.0,0.0,0.0,0.0,0.0,0.0,0.0,0.0,0.0,0.0,0.0,0.0,0.0,0.0,0.0,0.0,0.0,0.0,0.0,0.0,0.0,0.0,-3.6907,0.0,0.0,0.0,0.0,0.0,0.0,0.0,0.0,0.0,0.0,0.0,0.0,0.0,0.0,0.0,0.0,0.0,0.0,0.0,0.0,0.0,0.0,0.0,0.0,0.0,0.0,0.0,0.0,0.0,0.0,0.0,0.0,0.0,0.0,0.0,0.0,0.0,0.0,0.0,0.0,0.0,0.0,0.0,0.0,0.0,0.0,0.0,0.0,0.0,0.0,0.0,0.0,0.0,0.0,0.0,0.0,0.0,0.0,0.0,-4.7362,-4.872,-4.9218,-4.9083,-4.8165,-4.6821,-4.5062,0.0,0.0,0.0,0.0,0.0,0.0,0.0,0.0,0.0,0.0,0.0,0.0,0.0,0.0,0.0,0.0,0.0,0.0,0.0,0.0,0.0,0.0,0.0,0.0,0.0,0.0,0.0,0.0,0.0,0.0,0.0,0.0,0.0,0.0,0.0,0.0,0.0,0.0,0.0,0.0,0.0,0.0,0.0,0.0,0.0,0.0,0.0,0.0,0.0,0.0,0.0,0.0,0.0,0.0,0.0,0.0,0.0,0.0,0.0,0.0,0.0,0.0,0.0,0.0,0.0,0.0,0.0,0.0,0.0,0.0,0.0,0.0,0.0,0.0,0.0,0.0,0.0,0.0,0.0,0.0,0.0,0.0,0.0,0.0,0.0,0.0,0.0,0.0,0.0,0.0,0.0,0.0,0.0,0.0,0.0,0.0,0.0,0.0,0.0,0.0,0.0,0.0,0.0,0.0,0.0,0.0,0.0,-4.6476,-4.8151,-4.9483,-4.9876,-4.9463,-4.8246,-4.7346,-4.6059,-4.419,0.0,0.0,0.0,0.0,0.0,0.0,0.0,0.0,0.0,0.0,0.0,0.0,0.0,0.0,0.0,0.0,0.0,0.0,0.0,0.0,0.0,0.0,0.0,0.0,0.0,0.0,0.0,0.0,0.0,0.0,0.0,0.0,0.0,0.0,0.0,0.0,0.0,0.0,-3.8215,-3.8325,0.0,0.0,0.0,0.0,0.0,0.0,0.0,0.0,-3.6747,0.0,0.0,0.0,0.0,0.0,0.0,0.0,0.0,0.0,0.0,0.0,0.0,0.0,0.0,0.0,0.0,0.0,0.0,0.0,0.0,0.0,0.0,0.0,0.0,0.0,0.0,0.0,0.0,0.0,0.0,0.0,0.0,0.0,0.0,0.0,0.0,0.0,0.0,0.0,0.0,0.0,0.0,0.0,0.0,0.0,0.0,0.0,0.0,0.0,0.0,0.0,0.0,0.0,0.0,0.0,0.0,-4.5253,-4.682,-4.8554,-5.0491,-5.0653,-4.9968,-4.8273,-4.7621,-4.6243,-4.4038,0.0,0.0,0.0,0.0,0.0,0.0,0.0,0.0,0.0,0.0,0.0,0.0,0.0,0.0,0.0,0.0,0.0,0.0,0.0,0.0,0.0,0.0,0.0,0.0,0.0,0.0,0.0,0.0,0.0,0.0,0.0,0.0,0.0,0.0,0.0,0.0,0.0,0.0,0.0,-4.0506,-4.1156,0.0,0.0,0.0,0.0,0.0,0.0,0.0,0.0,-3.6751,0.0,0.0,0.0,0.0,0.0,0.0,0.0,0.0,0.0,0.0,0.0,0.0,0.0,0.0,0.0,0.0,0.0,0.0,0.0,0.0,0.0,0.0,0.0,0.0,0.0,0.0,0.0,0.0,0.0,0.0,0.0,0.0,0.0,0.0,0.0,0.0,0.0,0.0,0.0,0.0,0.0,0.0,0.0,0.0,0.0,0.0,0.0,0.0,0.0,0.0,0.0,0.0,0.0,0.0,0.0,-4.5258,-4.7648,-4.9465,-5.0772,-5.0831,-4.9987,-4.8219,-4.7017,-4.5331,0.0,0.0,0.0,0.0,0.0,0.0,0.0,0.0,0.0,0.0,0.0,0.0,0.0,0.0,0.0,0.0,0.0,0.0,0.0,0.0,0.0,0.0,0.0,0.0,0.0,0.0,0.0,0.0,0.0,0.0,0.0,0.0,0.0,0.0,0.0,0.0,0.0,0.0,0.0,0.0,-4.1315,-4.1668,-4.2979,0.0,0.0,0.0,0.0,0.0,0.0,-3.9097,-3.8309,0.0,0.0,0.0,0.0,0.0,0.0,0.0,0.0,0.0,0.0,0.0,0.0,0.0,0.0,0.0,0.0,0.0,0.0,0.0,0.0,0.0,0.0,0.0,0.0,0.0,0.0,0.0,0.0,0.0,0.0,0.0,0.0,0.0,0.0,0.0,0.0,0.0,0.0,0.0,0.0,0.0,0.0,0.0,0.0,0.0,0.0,0.0,0.0,0.0,0.0,0.0,0.0,0.0,0.0,0.0,-4.5391,-4.846,-5.0406,-5.1101,-5.1043,-5.0202,-4.8571,-4.6582,-4.4462,0.0,0.0,0.0,0.0,0.0,0.0,0.0,0.0,0.0,0.0,0.0,0.0,0.0,0.0,0.0,0.0,0.0,0.0,0.0,0.0,0.0,0.0,0.0,0.0,0.0,0.0,0.0,0.0,0.0,0.0,0.0,0.0,0.0,0.0,0.0,0.0,0.0,0.0,0.0,0.0,0.0,-4.2035,-4.3764,-4.2479,0.0,0.0,0.0,0.0,-4.1387,-4.0637,0.0,0.0,0.0,0.0,0.0,0.0,0.0,0.0,0.0,0.0,0.0,0.0,0.0,0.0,0.0,0.0,0.0,0.0,0.0,0.0,0.0,0.0,0.0,0.0,0.0,0.0,0.0,0.0,0.0,0.0,0.0,0.0,0.0,0.0,0.0,0.0,0.0,0.0,0.0,0.0,0.0,0.0,0.0,0.0,0.0,0.0,0.0,0.0,0.0,0.0,0.0,0.0,0.0,0.0,0.0,0.0,-4.6004,-4.8693,-5.0788,-5.2395,-5.1937,-5.0995,-4.9693,-4.6962,-4.4657,0.0,0.0,0.0,0.0,0.0,0.0,0.0,0.0,0.0,0.0,0.0,0.0,0.0,0.0,0.0,0.0,0.0,0.0,0.0,0.0,0.0,0.0,0.0,0.0,0.0,0.0,0.0,0.0,0.0,0.0,0.0,0.0,0.0,0.0,0.0,0.0,0.0,0.0,0.0,0.0,0.0,-4.3216,-4.4594,-4.3726,-4.2903,0.0,0.0,-4.2753,-4.2774,-4.2027,0.0,0.0,0.0,0.0,0.0,0.0,0.0,0.0,0.0,0.0,0.0,0.0,0.0,0.0,0.0,0.0,0.0,0.0,0.0,0.0,0.0,0.0,0.0,0.0,0.0,0.0,0.0,0.0,0.0,0.0,0.0,0.0,0.0,0.0,0.0,0.0,0.0,0.0,0.0,0.0,0.0,0.0,0.0,0.0,0.0,0.0,0.0,0.0,0.0,0.0,0.0,0.0,0.0,0.0,0.0,-4.2998,-4.603,-4.9262,-5.1468,-5.2591,-5.1995,-5.1104,-4.9904,-4.694,-4.4359,0.0,0.0,0.0,0.0,0.0,0.0,0.0,0.0,0.0,0.0,0.0,0.0,0.0,0.0,0.0,0.0,0.0,0.0,0.0,0.0,0.0,0.0,0.0,0.0,0.0,0.0,0.0,0.0,0.0,0.0,0.0,0.0,0.0,0.0,0.0,0.0,0.0,0.0,0.0,0.0,0.0,0.0,-4.4432,-4.4573,0.0,0.0,0.0,-4.5181,-4.4388,0.0,0.0,0.0,0.0,0.0,0.0,0.0,0.0,0.0,0.0,0.0,0.0,0.0,0.0,0.0,0.0,0.0,0.0,0.0,0.0,0.0,0.0,0.0,0.0,0.0,0.0,0.0,0.0,0.0,0.0,0.0,0.0,0.0,0.0,0.0,0.0,0.0,0.0,0.0,0.0,0.0,0.0,0.0,0.0,0.0,0.0,0.0,0.0,0.0,0.0,0.0,0.0,0.0,0.0,0.0,0.0,0.0,-4.5895,-4.9669,-5.1931,-5.2521,-5.1937,-5.112,-5.0091,-4.707,0.0,0.0,0.0,0.0,0.0,0.0,0.0,0.0,0.0,0.0,0.0,0.0,0.0,0.0,0.0,0.0,0.0,0.0,0.0,0.0,0.0,0.0,0.0,0.0,0.0,0.0,0.0,-3.5122,0.0,0.0,0.0,0.0,0.0,0.0,0.0,0.0,0.0,0.0,0.0,0.0,0.0,0.0,-4.4226,-4.4933,-4.5846,-4.625,0.0,0.0,-4.713,-4.5928,-4.5874,-4.5236,0.0,0.0,0.0,0.0,0.0,0.0,0.0,0.0,0.0,0.0,0.0,0.0,0.0,0.0,0.0,0.0,0.0,0.0,0.0,0.0,0.0,0.0,0.0,0.0,0.0,0.0,0.0,0.0,0.0,0.0,0.0,0.0,0.0,0.0,0.0,0.0,0.0,0.0,0.0,0.0,0.0,0.0,0.0,0.0,0.0,0.0,0.0,0.0,0.0,0.0,0.0,0.0,0.0,0.0,0.0,-4.5924,-4.9669,-5.1911,-5.2549,-5.1962,-5.1302,-5.0614,-4.7655,-4.5201,0.0,0.0,0.0,0.0,0.0,0.0,0.0,0.0,0.0,0.0,0.0,0.0,0.0,0.0,0.0,0.0,0.0,0.0,0.0,0.0,0.0,0.0,0.0,0.0,0.0,0.0,0.0,0.0,0.0,0.0,0.0,0.0,0.0,0.0,0.0,0.0,0.0,0.0,0.0,0.0,0.0,-4.5435,-4.6811,-4.8076,-4.8651,0.0,0.0,-4.792,-4.7271,-4.6213,-4.5037,-4.364,0.0,0.0,0.0,0.0,0.0,0.0,0.0,0.0,0.0,0.0,0.0,0.0,0.0,0.0,0.0,0.0,0.0,0.0,0.0,0.0,0.0,0.0,0.0,0.0,0.0,0.0,0.0,0.0,0.0,0.0,0.0,0.0,0.0,0.0,0.0,0.0,0.0,0.0,0.0,0.0,0.0,0.0,0.0,0.0,0.0,0.0,0.0,0.0,0.0,0.0,0.0,0.0,0.0,-4.351,-4.6075,-4.9717,-5.1933,-5.2514,-5.1933,-5.1323,-5.0685,-4.7969,-4.5734,0.0,0.0,0.0,0.0,0.0,0.0,0.0,0.0,0.0,0.0,0.0,0.0,0.0,0.0,0.0,0.0,0.0,0.0,0.0,0.0,0.0,0.0,0.0,0.0,0.0,0.0,0.0,0.0,-4.1279,-4.157,-4.0815,0.0,0.0,0.0,0.0,0.0,0.0,0.0,0.0,0.0,0.0,-4.649,-4.7235,-4.7866,0.0,0.0,-4.7271,-4.7127,-4.6787,-4.6648,-4.5943,-4.4045,-4.3023,0.0,0.0,0.0,0.0,0.0,0.0,0.0,0.0,0.0,0.0,0.0,0.0,0.0,0.0,0.0,0.0,0.0,0.0,0.0,0.0,0.0,0.0,0.0,0.0,0.0,0.0,0.0,0.0,0.0,0.0,0.0,0.0,0.0,0.0,0.0,0.0,0.0,0.0,0.0,0.0,0.0,0.0,0.0,0.0,0.0,0.0,0.0,0.0,0.0,0.0,0.0,0.0,-4.3478,-4.5872,-4.9475,-5.1556,-5.2042,-5.1556,-5.1033,-5.0336,-4.8449,-4.6483,0.0,0.0,0.0,0.0,0.0,0.0,0.0,0.0,0.0,0.0,0.0,0.0,0.0,0.0,0.0,0.0,0.0,0.0,0.0,0.0,0.0,0.0,0.0,0.0,0.0,0.0,0.0,0.0,-4.2063,-4.2092,-4.1192,0.0,0.0,0.0,0.0,0.0,0.0,0.0,0.0,0.0,0.0,-4.7243,-4.7812,-4.8092,-4.8175,-4.7947,-4.7691,-4.7481,-4.7268,-4.7249,-4.6694,-4.5023,0.0,0.0,0.0,0.0,0.0,0.0,0.0,0.0,0.0,0.0,0.0,0.0,0.0,0.0,0.0,0.0,0.0,0.0,0.0,0.0,0.0,0.0,0.0,0.0,0.0,0.0,0.0,-3.8446,0.0,0.0,-3.7523,0.0,0.0,0.0,0.0,0.0,0.0,0.0,0.0,0.0,0.0,0.0,0.0,0.0,0.0,0.0,0.0,0.0,0.0,0.0,0.0,0.0,0.0,-4.3274,-4.5274,-4.8912,-5.0714,-5.0793,-5.0714,-5.0394,-4.9727,-4.903,-4.7538,-4.5201,0.0,0.0,0.0,0.0,0.0,0.0,0.0,0.0,0.0,0.0,0.0,0.0,0.0,0.0,0.0,0.0,0.0,0.0,0.0,0.0,0.0,0.0,0.0,0.0,0.0,0.0,-3.8609,-4.0031,-4.1134,0.0,0.0,0.0,0.0,0.0,0.0,0.0,0.0,0.0,0.0,-4.6468,-4.7647,-4.8813,-4.9306,-4.9673,-5.0237,-4.987,-4.9371,-4.9002,-4.8023,-4.7188,0.0,0.0,0.0,0.0,0.0,0.0,0.0,0.0,0.0,0.0,0.0,0.0,0.0,0.0,0.0,0.0,0.0,0.0,0.0,0.0,0.0,0.0,0.0,0.0,0.0,0.0,0.0,-4.0125,-3.9797,0.0,0.0,0.0,0.0,0.0,0.0,0.0,0.0,0.0,0.0,0.0,-4.2793,-4.3337,0.0,0.0,0.0,0.0,0.0,0.0,0.0,0.0,0.0,0.0,0.0,0.0,-4.4099,-4.6094,-4.9135,-5.0656,-5.0656,-5.0656,-5.0386,-4.9717,-4.9059,-4.741,-4.466,0.0,0.0,0.0,0.0,0.0,0.0,0.0,0.0,0.0,0.0,0.0,0.0,0.0,0.0,0.0,0.0,0.0,0.0,0.0,0.0,0.0,0.0,0.0,0.0,0.0,-4.0757,0.0,0.0,0.0,0.0,0.0,0.0,0.0,0.0,0.0,0.0,0.0,-4.5995,-4.7836,-4.8573,-4.9197,-4.9886,-4.988,-4.9673,0.0,0.0,0.0,0.0,0.0,0.0,0.0,0.0,0.0,0.0,0.0,0.0,0.0,0.0,-4.2598,-4.1621,-4.1723,-4.1693,-4.087,0.0,0.0,0.0,0.0,0.0,0.0,0.0,0.0,0.0,0.0,0.0,0.0,0.0,0.0,-4.246,0.0,-4.1024,0.0,0.0,0.0,0.0,0.0,0.0,0.0,0.0,-4.4822,-4.5529,-4.5371,-4.5784,-4.5375,0.0,-4.3474,-4.1194,0.0,0.0,0.0,0.0,0.0,0.0,0.0,0.0,-4.4667,-4.6226,-4.892,-5.0336,-5.0336,-5.0386,-5.0133,-4.9717,-4.8856,-4.7294,-4.4924,-4.2873,-4.0535,0.0,0.0,0.0,0.0,0.0,0.0,0.0,0.0,0.0,0.0,0.0,0.0,0.0,0.0,0.0,0.0,0.0,0.0,0.0,0.0,0.0,0.0,0.0,-4.1889,0.0,0.0,0.0,0.0,0.0,0.0,0.0,0.0,0.0,-4.4383,-4.6217,-4.7983,-4.9117,-4.955,-4.993,-5.0463,0.0,0.0,0.0,0.0,0.0,0.0,0.0,-4.8861,-4.8378,-4.8681,-4.89,-4.8736,-4.808,-4.756,-4.7338,0.0,0.0,-4.3808,-4.3755,-4.3809,-4.311,-4.3016,-4.3059,-4.3278,-4.3292,-4.3436,0.0,0.0,0.0,0.0,0.0,0.0,0.0,0.0,-4.4629,-4.5331,0.0,-4.3828,0.0,0.0,0.0,0.0,0.0,-4.4755,0.0,0.0,-4.8693,-4.9413,-4.815,-4.8243,-4.7508,-4.5982,-4.4763,-4.3528,-4.2133,-3.9446,0.0,0.0,0.0,0.0,0.0,0.0,-4.4932,-4.5667,-4.8337,-4.9746,-4.9746,-4.9746,-4.9746,-4.964,-4.8526,-4.723,-4.5924,-4.4095,-4.2179,-4.0234,-3.8957,0.0,0.0,0.0,0.0,0.0,0.0,0.0,0.0,0.0,0.0,0.0,0.0,0.0,0.0,0.0,0.0,0.0,0.0,0.0,0.0,-4.1424,0.0,0.0,0.0,0.0,0.0,0.0,0.0,0.0,0.0,0.0,-4.5331,-4.737,-4.8998,-4.9137,0.0,0.0,0.0,0.0,-5.0121,-5.1211,-5.1128,-5.0934,-5.0923,-5.0712,-5.065,-5.0797,0.0,0.0,-5.0385,-5.0101,-4.961,-4.901,-4.8526,-4.7639,-4.5132,-4.4793,-4.4895,-4.5278,-4.5024,-4.4943,-4.5374,-4.5514,-4.5648,-4.9819,0.0,0.0,0.0,0.0,-4.8278,-4.8443,-4.824,-4.7979,-4.7875,-4.7826,-4.6284,0.0,0.0,0.0,0.0,0.0,0.0,-4.6919,-4.7486,-4.9238,-4.9737,-4.9253,-4.9737,-4.9533,-4.8595,-4.7782,-4.6708,-4.5459,-4.4311,-4.2081,-3.8743,0.0,0.0,0.0,0.0,-4.5741,-4.6767,-4.865,-4.9746,-4.9746,-4.9746,-4.9746,-4.9746,-4.8885,-4.7869,-4.6621,-4.5605,-4.395,-4.1628,-4.0728,0.0,0.0,0.0,0.0,0.0,0.0,0.0,0.0,0.0,0.0,0.0,0.0,0.0,0.0,0.0,0.0,0.0,0.0,0.0,-4.2702,-4.4037,-4.4298,0.0,0.0,0.0,0.0,0.0,0.0,0.0,0.0,0.0,-4.7612,-4.9269,-5.0701,0.0,0.0,-5.0875,-5.11,-5.1349,-5.1569,-5.1681,-5.1985,0.0,-5.1927,-5.2008,-5.2116,-5.2166,-5.1882,-5.168,-5.168,-5.065,-4.9629,-4.9006,-4.8137,-4.7256,-4.6662,-4.6754,-4.6923,-4.6713,-4.6809,-4.6979,-4.7187,-4.7216,-4.7255,-5.2888,-5.1874,-5.0365,-4.9929,-5.0245,-5.0878,-5.1042,-5.0887,-5.0483,-5.0496,-5.0636,-4.8604,-4.7879,-4.8163,-4.702,0.0,0.0,0.0,-4.8635,-4.9543,-5.0661,-5.1029,-5.0859,-5.1075,-5.0813,-5.0075,-4.9175,-4.8286,-4.7532,-4.6891,-4.5245,-4.2638,0.0,0.0,-4.3266,-4.5404,-4.69,-4.7583,-4.897,-4.9746,-4.9746,-4.9746,-4.9746,-4.9717,-4.9059,-4.8246,-4.723,-4.6592,-4.5314,-4.3311,-4.2586,-4.1308,0.0,0.0,0.0,0.0,0.0,0.0,0.0,0.0,0.0,0.0,0.0,-3.7447,-3.6577,0.0,0.0,0.0,-4.1947,-4.334,-4.5663,-4.6007,0.0,0.0,0.0,0.0,0.0,0.0,0.0,-4.5534,-4.7715,-4.9202,-4.9259,-5.0202,-5.1063,-5.1456,-5.1206,-5.1067,-5.1155,0.0,-5.1902,-5.1818,-5.2285,-5.2641,-5.2468,-5.2486,-5.247,-5.2301,-5.2118,-5.1873,-5.1566,-5.0701,-4.9834,-4.896,-4.8055,-4.738,-4.7179,-4.7435,-4.777,-4.7744,-4.8033,-4.8309,-4.851,-4.8586,-4.8586,-5.4955,-5.494,-5.2124,-5.1176,-5.1571,-5.2797,-5.306,-5.2614,-5.2364,-5.301,-5.4038,-5.0857,-5.0202,-5.1366,-4.971,0.0,-4.9472,-5.0172,-5.0905,-5.173,-5.2625,-5.2887,-5.2594,-5.2187,-5.1633,-5.0851,-4.9494,-4.8914,-4.8885,-4.7882,-4.7437,-4.7437,-4.6358,-4.5741,-4.5712,-4.7265,-4.8092,-4.8179,-4.9155,-4.9746,-4.9746,-4.9746,-4.9717,-4.9582,-4.903,-4.8391,-4.7724,-4.7143,-4.6243,-4.5024,-4.4356,-4.3427,-4.2179,0.0,0.0,0.0,0.0,0.0,0.0,0.0,0.0,0.0,0.0,0.0,0.0,0.0,0.0,0.0,-4.4966,0.0,-4.8653,-4.7499,0.0,0.0,0.0,-4.6622,-4.6851,-4.7543,-4.79,-4.7675,0.0,0.0,-5.0319,-5.0487,-5.0546,-5.0625,-5.0569,-5.0599,-5.0906,-5.1316,-5.1587,-5.1897,-5.2451,-5.2779,-5.2801,-5.243,-5.2084,-5.1759,-5.157,-5.1242,-5.079,-5.0422,-4.999,-4.8901,-4.8209,-4.7707,-4.7205,-4.7129,-4.7456,-4.8435,-4.8636,-4.8837,-4.9264,-4.9389,-4.9389,-5.5057,-5.4896,-5.4341,-5.4052,-5.3982,-5.448,-5.463,-5.4529,-5.4277,-5.4057,-5.3841,-5.285,-5.2308,-5.2122,-5.1483,-5.1561,-5.2076,-5.2071,-5.2151,-5.242,-5.303,-5.3088,-5.2623,-5.25,-5.2355,-5.2049,-5.083,-5.0452,-5.0859,-4.9688,-4.9359,-4.9795,-4.9087,-4.8045,-4.6884,-4.7641,-4.8278,-4.8555,-4.934,-4.9746,-4.9746,-4.9746,-4.9436,-4.8972,-4.8798,-4.8141,-4.7114,-4.6911,-4.6475,-4.5663,-4.4589,-4.3631,-4.2789,-4.0234,0.0,0.0,0.0,0.0,0.0,0.0,0.0,0.0,0.0,-3.9625,-3.8289,0.0,-4.3427,0.0,-4.6824,-4.8972,-4.9388,-4.917,0.0,0.0,-4.7765,-4.7369,-4.6783,-4.7921,-4.852,-4.803,-4.961,-5.0739,-5.0435,-5.1232,-5.1749,-5.154,-5.1119,-5.096,-5.1514,-5.1864,-5.2297,-5.2794,-5.308,-5.3397,-5.3223,-5.2527,-5.1774,-5.1616,-5.0857,-5.029,-5.0511,-4.985,-4.8951,-4.8209,-4.7682,-4.7305,-4.7068,-4.7068,-4.7355,-4.7958,-4.8109,-4.8284,-4.8837,-4.8962,-4.9088,-5.5078,-5.5006,-5.4976,-5.4976,-5.5006,-5.5275,-5.5394,-5.5424,-5.5115,-5.4878,-5.4624,-5.4073,-5.3545,-5.304,-5.2815,-5.2865,-5.3215,-5.303,-5.2978,-5.3007,-5.3355,-5.3326,-5.2978,-5.2739,-5.2623,-5.2594,-5.1556,-5.1265,-5.1556,-5.0888,-5.0598,-5.0656,-5.0357,-4.9533,-4.8377,-4.8639,-4.8941,-4.9146,-4.9494,-4.9746,-4.9717,-4.9407,-4.9088,-4.8692,-4.8141,-4.7311,-4.6264,-4.5945,-4.5557,-4.4891,-4.4196,-4.3719,-4.3427,-4.1279,-3.9741,0.0,0.0,0.0,0.0,0.0,0.0,0.0,0.0,0.0,0.0,0.0,-4.5053,-4.5634,-4.7864,-4.9421,-4.9709,-4.9421,-4.9178,-4.9167,-4.9117,-4.8949,-4.8523,-4.933,-4.9693,-4.9419,-5.043,-5.1135,-5.1053,-5.1625,-5.2003,-5.1828,-5.152,-5.1391,-5.1747,-5.2178,-5.2638,-5.2934,-5.3091,-5.2788,-5.2085,-5.1373,-5.0698,-5.0017,-4.9402,-4.905,-4.933,-4.8838,-4.8209,-4.7657,-4.733,-4.6993,-4.6828,-4.6778,-4.6878,-4.7104,-4.7205,-4.7481,-4.8209,-4.8385,-4.851,-5.5128,-5.5078,-5.4824,-5.4875,-5.5138,-5.5418,-5.5553,-5.5553,-5.5345,-5.5345,-5.5442,-5.4672,-5.4149,-5.3971,-5.3658,-5.3553,-5.3553,-5.353,-5.35,-5.35,-5.35,-5.35,-5.3471,-5.2949,-5.2688,-5.2659,-5.2049,-5.1788,-5.1875,-5.1701,-5.1352,-5.0801,-5.0714,-5.0336,-4.9698,-4.9746,-4.9746,-4.9746,-4.9746,-4.964,-4.9553,-4.9001,-4.8605,-4.8402,-4.7358,-4.6338,-4.5463,-4.4886,-4.431,-4.3675,-4.3488,-4.3589,-4.3907,-4.217,-4.1175,0.0,-3.9632,0.0,0.0,0.0,0.0,0.0,0.0,0.0,0.0,-4.5299,-4.6558,-4.7804,-4.8542,-4.9193,-4.9842,-4.9234,-4.9342,-5.0642,-5.054,-5.049,-5.0712,-5.085,-5.0874,-5.0908,-5.1014,-5.1339,-5.1855,-5.1991,-5.2072,-5.2126,-5.2099,-5.2072,-5.1981,-5.2366,-5.2723,-5.2685,-5.252,-5.1725,-5.024,-4.9687,-4.9234,-4.817,-4.792,-4.7832,-4.7958,-4.7857,-4.7657,-4.7255,-4.7018,-4.6792,-4.6376,-4.6326,-4.6326,-4.6376,-4.6401,-4.6702,-4.7556,-4.7745,-4.777,-5.4722,-5.4458,-5.4406,-5.4436,-5.4487,-5.4525,-5.4716,-5.4981,-5.493,-5.4797,-5.4584,-5.4363,-5.4252,-5.42,-5.3971,-5.3815,-5.3815,-5.3605,-5.35,-5.35,-5.35,-5.35,-5.35,-5.3384,-5.3326,-5.3297,-5.2688,-5.2659,-5.3152,-5.2107,-5.1556,-5.141,-5.0917,-5.0386,-4.9776,0.0,0.0,0.0,-4.9746,-4.9436,-4.8914,-4.875,-4.817,-4.7184,-4.6923,0.0,-4.5096,-4.4744,-4.431,-4.3603,-4.2912,0.0,0.0,0.0,0.0,0.0,0.0,0.0,0.0,0.0,0.0,0.0,-4.3652,-4.4129,-4.4704,-4.5947,-4.7214,-4.8473,-4.9274,-4.9953,-5.0544,-5.0513,-5.0574,-5.0851,-5.038,-5.0126,-5.0179,-5.0587,-5.0911,-5.0878,-5.1747,-5.2398,-5.2533,-5.2968,-5.3239,-5.3185,-5.3266,-5.3025,-5.2486,-5.2554,-5.2674,-5.2539,-5.1795,-5.0646,-4.9312,-4.8717,-4.8421,-4.7918,-4.7531,-4.7456,-4.7732,-4.7506,-4.728,-4.7043,-4.6778,-4.6451,-4.6326,-4.6326,-4.6326,-4.6326,-4.6326,-4.6502,-4.7068,-4.7034,-4.7035,-5.4487,-5.4304,-5.4149,-5.42,0.0,-5.4149,-5.42,-5.4363,-5.4487,-5.4436,-5.4304,-5.4149,-5.4097,-5.4097,-5.3785,-5.371,-5.371,-5.3553,-5.35,-5.35,-5.35,-5.35,-5.35,-5.35,-5.35,-5.35,-5.3181,-5.321,-5.3471,-5.2862,-5.2397,-5.2078,-5.1468,-5.0801,-5.0211,-4.9892,-4.9746,-4.9746,-4.9746,-4.9524,-4.9204,-4.8595,-4.7956,-4.7317,-4.6679,0.0,0.0,0.0,0.0,0.0,0.0,0.0,0.0,0.0,0.0,-4.287,-4.2214,-4.2426,-4.3854,-4.4054,-4.4401,-4.4982,-4.5315,-4.5657,-4.593,-4.7377,-4.8717,-4.9636,-5.011,-5.0474,-5.0791,-5.0602,-5.046,-5.046,-5.0179,-5.001,-5.0064,-5.0525,-5.1014,-5.1394,-5.2154,-5.2805,-5.313,-5.3375,-5.3592,-5.3592,-5.3592,-5.3349,-5.2773,-5.2593,-5.2479,-5.1731,-5.0914,-4.9848,-4.8691,-4.8201,-4.7759,-4.7241,-4.6903,-4.6853,-4.7079,-4.6903,-4.6728,-4.6702,-4.6476,-4.6326,-4.6326,-4.6326,-4.6326,-4.6326,-4.6326,-4.6376,-4.6677,-4.6545,-4.6534,-5.42,-5.4149,-5.3919,-5.3971,-5.4149,-5.3919,-5.3867,-5.3867,0.0,0.0,0.0,-5.3919,-5.3815,-5.3785,-5.3605,-5.35,-5.35,-5.35,-5.35,-5.35,-5.35,-5.35,-5.35,-5.35,-5.35,-5.35,-5.35,-5.35,-5.35,-5.35,-5.3181,-5.2623,-5.1933,-5.1236,-5.0511,-4.9979,-4.9746,-4.9746,-4.9746,-4.9611,-4.9494,-4.8315,-4.763,-4.7514,-4.6247,-4.5171,-4.4359,-4.3726,-4.2861,-4.1783,-4.0813,-4.0371,-4.0632,-4.0329,-4.083,-4.2351,-4.2349,-4.3226,-4.5403,-4.5111,-4.5291,-4.6424,-4.6692,-4.6933,-4.7157,-4.8666,-4.9808,-5.0332,-5.0581,-5.0654,-5.0684,-5.0292,-5.001,-5.001,-5.001,-5.0037,-5.02,-5.0688,-5.1312,-5.1909,-5.2533,-5.2989,-5.3302,-5.3531,-5.347,-5.3288,-5.3288,-5.3078,-5.2465,-5.213,-5.1741,-5.0699,-4.9999,-4.9189,-4.8245,-4.7945,-4.7531,-4.6728,-4.6527,-4.6426,-4.6351,-4.6326,-4.6301,-4.623,-4.618,-4.618,-4.612,-4.612,-4.618,-4.618,-4.6266,-4.6326,-4.6326,-4.6326,-4.6291,-5.3815,-5.3605,-5.3553,-5.3553,-5.3605,-5.3553,-5.3553,-5.3553,-5.3605,-5.3605,-5.3605,-5.3553,-5.3553,-5.3553,-5.353,-5.35,-5.35,-5.35,-5.35,-5.35,-5.35,-5.35,-5.35,-5.35,-5.35,-5.35,-5.35,-5.35,-5.35,-5.35,-5.3181,-5.2623,-5.1933,-5.1033,-4.9901,-4.9776,-4.9746,-4.9746,-4.9746,-4.9407,-4.8856,-4.7702,-4.688,-4.6336,-4.5016,-4.392,-4.324,-4.2759,-4.1937,-4.0754,-4.0394,-4.0165,-4.0073,-4.0395,-4.1075,-4.2087,-4.2551,-4.3517,-4.5023,-4.4676,-4.4701,-4.5395,-4.6357,-4.7187,-4.7865,-4.844,-4.8892,-4.9255,-4.9829,-5.0014,-4.984,-4.9953,-5.001,-5.001,-5.001,-5.02,-5.0661,-5.1312,-5.1851,-5.242,-5.3103,-5.3214,-5.2868,-5.3227,-5.3105,-5.228,-5.2342,-5.228,-5.1346,-5.0905,-5.0636,-4.9999,-4.938,-4.8724,-4.8109,-4.7933,-4.7682,-4.7068,-4.6918,-4.6803,-4.6376,-4.6326,-4.618,-4.5939,-4.5939,-4.5817,-4.5574,-4.5696,-4.5817,-4.5878,-4.6059,-4.624,-4.624,-4.618,-4.612,-5.3605,-5.35,-5.35,-5.35,-5.35,-5.35,-5.35,-5.35,-5.35,-5.35,-5.35,-5.35,-5.35,-5.35,-5.35,-5.35,-5.35,-5.35,-5.35,-5.35,-5.35,-5.35,-5.35,-5.35,-5.35,-5.35,-5.35,-5.35,-5.35,-5.35,-5.3355,-5.3036,-5.2107,-5.1149,-5.0249,-4.9843,-4.9746,-4.9746,-4.9746,-4.9524,-4.9233,-4.777,-4.6805,-4.6348,-4.4827,-4.3665,-4.2936,-4.2624,-4.1962,-4.0848,-4.0435,-4.0277,-4.0415,-4.0362,-4.1126,-4.2701,-4.2903,-4.3504,-4.4778,-4.4396,-4.4387,-4.5138,-4.5674,-4.648,-4.7588,-4.8436,-4.89,-4.9005,-4.9742,-5.0066,-4.967,-4.984,-5.001,-5.001,-5.0281,-5.0607,-5.0932,-5.1774,-5.222,-5.2218,-5.2668,-5.2773,-5.2156,-5.2342,-5.2342,-5.1659,-5.1659,-5.122,-5.0652,-5.027,-5.0002,-4.9685,-4.9153,-4.8749,-4.8435,-4.8385,-4.8033,-4.728,-4.7068,-4.6903,-4.6426,-4.6301,-4.624,-4.612,-4.5963,-4.5757,-4.5574,-4.5514,-4.5514,-4.5574,-4.5817,-4.5939,-4.5817,-4.5635,-4.5514,-5.35,-5.35,-5.35,-5.35,-5.35,-5.35,-5.35,-5.35,-5.35,-5.35,-5.35,-5.35,-5.35,-5.35,-5.35,-5.35,-5.35,-5.35,-5.35,-5.35,-5.35,-5.35,-5.35,-5.35,-5.35,-5.35,-5.35,-5.35,-5.35,-5.35,-5.3355,-5.3007,-5.1962,-5.1091,-5.0452,-4.993,-4.9746,-4.9746,-4.9746,-4.9746,-4.964,-4.8057,-4.7003,-4.6356,-4.4823,-4.3539,-4.2708,-4.2484,-4.201,-4.1181,-4.0645,-4.046,-4.0704,-4.0429,-4.1121,-4.2926,-4.2859,-4.3114,-4.4071,-4.4442,-4.4591,-4.4948,-4.5512,-4.6143,-4.7033,-4.8213,-4.8913,-4.894,-4.9626,-4.998,-4.964,-4.9945,-5.02,-5.0254,-5.0607,-5.0956,-5.1165,-5.1809,-5.2164,-5.1748,-5.2077,-5.2094,-5.1596,-5.1534,-5.1534,-5.1346,-5.0778,-5.0397,-5.027,-4.9912,-4.959,-4.9515,-4.9238,-4.9012,-4.8962,-4.8812,-4.836,-4.7431,-4.7205,-4.6903,-4.6416,-4.624,-4.612,-4.5999,-4.5757,-4.5514,-4.5453,-4.5331,-4.5208,-4.5208,-4.5453,-4.5574,-4.5392,-4.511,-4.4926,-5.35,-5.35,-5.35,-5.35,-5.35,-5.35,-5.35,-5.35,-5.35,-5.35,-5.3559,-5.35,-5.353,-5.35,-5.35,-5.35,-5.35,-5.35,-5.35,-5.35,-5.35,-5.35,-5.35,-5.35,-5.35,-5.35,-5.35,-5.35,-5.35,-5.35,-5.292,-5.1846,-5.1091,-5.0481,-4.9892,-4.9776,-4.9746,-4.9746,-4.9746,-4.9746,-4.964,-4.8517,-4.7313,-4.6008,-4.4543,-4.333,-4.2189,-4.1898,-4.1607,-4.1288,-4.0993,-4.0749,-4.0577,-4.0667,-4.1207,-4.2267,-4.1997,-4.2012,-4.2843,-4.4944,-4.5613,-4.4633,-4.6295,-4.7122,-4.6669,-4.7574,-4.8268,-4.8442,-4.9121,-4.9519,-4.9236,-5.0071,-5.0658,-5.0628,-5.0763,-5.108,-5.1442,-5.1236,-5.1156,-5.1626,-5.1669,-5.1408,-5.0905,-5.1094,-5.1283,-5.0715,-5.0232,-4.9783,-4.9783,-4.9719,-4.959,-4.959,-4.9515,-4.949,-4.9414,-4.9063,-4.851,-4.7908,-4.7405,-4.6954,-4.6441,-4.6059,-4.5757,-4.5696,-4.527,-4.4963,-4.4717,-4.4594,-4.484,-4.4902,-4.5086,-4.5331,-4.527,-4.4975,-4.4814,-5.35,-5.35,-5.35,-5.35,-5.35,-5.35,-5.35,-5.35,-5.35,-5.3733,-5.4081,-5.411,-5.3878,-5.353,-5.35,-5.35,-5.35,-5.35,-5.35,-5.35,-5.35,-5.35,-5.35,-5.35,-5.35,-5.35,-5.35,-5.35,-5.3442,-5.3152,-5.2484,-5.1643,-5.0975,-5.0589,-5.0299,-4.9872,-4.9746,-4.9746,-4.9746,-4.9473,-4.8873,-4.7559,-4.6394,-4.5551,-4.3831,-4.2368,-4.1569,-4.1739,-4.1752,-4.134,-4.1472,-4.1645,-4.1676,-4.1954,-4.2413,-4.3127,-4.3554,-4.372,-4.3745,-4.493,-4.5474,-4.4893,-4.6187,-4.6947,-4.6905,-4.7306,-4.7637,-4.7762,-4.8632,-4.9196,-4.9086,-4.9525,-4.9982,-5.0189,-5.0329,-5.0519,-5.1123,-5.1179,-5.1249,-5.1105,-5.1031,-5.0778,-5.0232,-5.0206,-5.027,-5.004,-4.9719,-4.959,-4.959,-4.959,-4.959,-4.959,-4.959,-4.959,-4.954,-4.9138,-4.856,-4.8008,-4.7481,-4.6954,-4.6416,-4.618,-4.5999,-4.5635,-4.527,-4.4902,-4.4717,-4.447,-4.4532,-4.4532,-4.4594,-4.4779,-4.4963,-4.4766,-4.4581,-5.35,-5.35,-5.35,-5.35,-5.35,-5.35,-5.35,-5.35,-5.35,-5.3878,-5.4458,-5.4313,-5.4081,-5.382,-5.3791,-5.3704,-5.353,-5.35,-5.35,-5.35,-5.35,-5.3413,-5.3297,-5.3442,-5.3413,-5.3268,-5.3239,-5.3239,-5.3181,-5.2601,-5.2078,-5.1556,-5.0801,-5.0444,-5.0365,-4.9921,-4.9746,-4.9698,-4.9473,-4.9029,-4.8145,-4.6507,-4.5434,-4.4908,-4.3206,-4.1785,-4.0952,-4.1584,-4.1883,-4.1577,-4.2152,-4.2538,-4.2737,-4.3073,-4.3482,-4.4045,-4.5089,-4.5318,-4.4667,-4.5119,-4.537,-4.5219,-4.5927,-4.6619,-4.6832,-4.7019,-4.7223,-4.7265,-4.8114,-4.8674,-4.8525,-4.9007,-4.9493,-4.969,-4.989,-5.0259,-5.0311,-5.062,-5.0488,-5.0001,-4.9951,-4.9939,-4.9492,-4.9339,-4.9275,-4.9403,-4.9425,-4.9525,-4.959,-4.959,-4.959,-4.9461,-4.9461,-4.945,-4.9364,-4.8862,-4.8335,-4.772,-4.7168,-4.6606,-4.6255,-4.6145,-4.5939,-4.5392,-4.5208,-4.4963,-4.4594,-4.4409,-4.4285,-4.4285,-4.4347,-4.4409,-4.4594,-4.4409,-4.4347,-5.35,-5.35,-5.35,-5.35,-5.35,-5.35,-5.35,-5.35,-5.35,-5.3878,-5.44,-5.3907,-5.3907,-5.4429,-5.4429,-5.411,-5.3559,-5.35,-5.35,-5.35,-5.35,-5.3181,-5.2688,-5.321,-5.321,-5.2804,-5.2768,-5.2659,-5.2572,-5.1991,-5.1643,-5.1527,-5.0365,-4.9756,-4.9756,-4.9727,-4.9669,-4.9571,-4.893,-4.8252,-4.7457,-4.5714,-4.4438,-4.3834,-4.2995,-4.2049,-4.116,-4.1444,-4.1883,-4.2183,-4.2907,-4.3351,-4.3381,-4.3602,-4.3938,-4.4336,-4.5801,-4.6082,-4.4933,-4.5646,-4.5742,-4.4928,-4.5924,-4.655,-4.6155,-4.6695,-4.7112,-4.7205,-4.7442,-4.7611,-4.7511,-4.8649,-4.9435,-4.9265,-5.0009,-4.9973,-4.9116,-4.9148,-4.8753,-4.8383,-4.8636,-4.8888,-4.8786,-4.8582,-4.8632,-4.886,-4.9007,-4.9267,-4.9461,-4.959,-4.9461,-4.9202,-4.9112,-4.9028,-4.8823,-4.8334,-4.7758,-4.717,-4.6536,-4.5978,-4.5867,-4.5696,-4.5392,-4.5147,-4.484,-4.4594,-4.4409,-4.4285,-4.4285,-4.4285,-4.4285,-4.4409,-4.447,-4.4347,-4.4285,-5.35,-5.35,-5.35,-5.35,-5.35,-5.35,-5.35,-5.35,-5.35,-5.3878,-5.44,-5.4255,-5.4517,-5.5068,-5.4691,-5.4139,-5.3559,-5.35,-5.35,-5.35,-5.35,-5.3384,-5.3239,-5.3413,-5.3413,-5.3152,-5.2746,-5.2339,-5.1962,-5.173,-5.141,-5.0917,-5.0133,-4.9746,-4.962,-4.9326,-4.9178,-4.9079,-4.805,-4.705,-4.6188,-4.4492,-4.3293,-4.2761,-4.2587,-4.2359,-4.1941,-4.2307,-4.274,-4.3263,-4.336,-4.3572,-4.3955,-4.4015,-4.4015,-4.4124,-4.5221,-4.5497,-4.4724,-4.5435,-4.564,-4.4853,-4.5729,-4.6421,-4.624,-4.6421,-4.6661,-4.6636,-4.6516,-4.6396,-4.6601,-4.747,-4.8418,-4.8885,-4.8669,-4.866,-4.8759,-4.8553,-4.8156,-4.7995,-4.8134,-4.8209,-4.8221,-4.8308,-4.8469,-4.8773,-4.8982,-4.9152,-4.9202,-4.9267,-4.9137,-4.8902,-4.8747,-4.8516,-4.764,-4.7417,-4.7071,-4.6526,-4.5995,-4.5662,-4.5453,-4.5392,-4.5208,-4.5025,-4.4656,-4.447,-4.4409,-4.4285,-4.4285,-4.4285,-4.4285,-4.4285,-4.4285,-4.4285,-4.4285,-5.35,-5.35,-5.35,-5.35,-5.35,-5.35,-5.35,-5.35,-5.353,-5.3994,-5.4633,-5.44,-5.4749,-5.5416,-5.4662,-5.411,-5.382,-5.3617,-5.35,-5.35,-5.35,-5.3413,-5.3268,-5.3413,-5.3384,-5.3181,-5.2804,-5.2252,-5.1672,-5.1643,-5.1215,-5.0556,-4.9994,-4.9528,-4.9186,-4.8731,-4.8431,-4.792,-4.6867,-4.5767,-4.4727,-4.3467,-4.2524,-4.2102,-4.2314,-4.2395,-4.2152,-4.261,-4.3098,-4.3508,-4.3526,-4.3657,-4.3955,-4.4056,-4.4099,-4.4199,-4.492,-4.5285,-4.5006,-4.5437,-4.5574,-4.5086,-4.5635,-4.612,-4.612,-4.6266,-4.6326,-4.624,-4.612,-4.5939,-4.6059,-4.6576,-4.724,-4.7927,-4.7658,-4.7546,-4.8019,-4.7803,-4.7693,-4.7606,-4.7456,-4.7481,-4.762,-4.777,-4.7981,-4.8296,-4.86,-4.8787,-4.8877,-4.8967,-4.8837,-4.8486,-4.8183,-4.7653,-4.6944,-4.649,-4.635,-4.5896,-4.5552,-4.5245,-4.5147,-4.5086,-4.5025,-4.484,-4.4656,-4.4532,-4.4409,-4.4347,-4.4285,-4.4285,-4.4285,-4.4285,-4.4285,-4.4285,-4.4285,-5.35,-5.35,-5.35,-5.35,-5.35,-5.35,-5.35,-5.35,-5.35,-5.411,-5.4836,-5.4052,-5.4546,-5.562,-5.4371,-5.3878,-5.4255,-5.3791,-5.35,-5.35,-5.35,-5.321,-5.2804,-5.321,-5.3094,-5.2601,-5.2572,-5.2252,-5.1708,-5.149,-5.0991,-5.0321,-4.9687,-4.8855,-4.8078,-4.7694,-4.7153,-4.6399,-4.5502,-4.4481,-4.3441,-4.2749,-4.2157,-4.1761,-4.2174,-4.209,-4.1472,-4.2171,-4.2747,-4.3099,-4.3457,-4.3657,-4.3457,-4.3588,-4.3979,-4.4402,-4.5062,-4.5495,-4.5693,-4.5732,-4.5635,-4.5392,-4.5635,-4.5878,-4.5999,-4.612,-4.6291,-4.6401,-4.6291,-4.6266,-4.6291,-4.6386,-4.6436,-4.6461,-4.7227,-4.7399,-4.6859,-4.6853,-4.7068,-4.7018,-4.6767,-4.6627,-4.6906,-4.7172,-4.7244,-4.759,-4.7936,-4.8223,-4.851,-4.8576,-4.8379,-4.8019,-4.7783,-4.728,-4.6344,-4.5565,-4.5459,-4.5269,-4.5048,-4.484,-4.484,-4.484,-4.4717,-4.4594,-4.4532,-4.4409,-4.4409,-4.4285,-4.4285,-4.4285,-4.4285,-4.4285,-4.4285,-4.4285,-4.4285,-5.35,-5.35,-5.35,-5.35,-5.35,-5.35,-5.35,-5.35,-5.35,-5.3733,-5.3994,-5.3675,-5.411,-5.4691,-5.3965,-5.3878,-5.4429,-5.382,-5.35,-5.35,-5.35,-5.3384,-5.3181,-5.2978,-5.2543,-5.2027,-5.2162,-5.2145,-5.1782,-5.0914,-5.0105,-4.9378,-4.8076,-4.7243,-4.6816,-4.6032,-4.5555,-4.5555,-4.4126,-4.3103,-4.2712,-4.2004,-4.1631,-4.1606,-4.1777,-4.1833,-4.1842,-4.2301,-4.2766,-4.3237,-4.3028,-4.2768,-4.2644,-4.2953,-4.321,-4.3423,-4.4081,-4.468,-4.511,-4.5514,-4.5757,-4.5696,-4.5757,-4.5939,-4.6059,-4.5999,-4.6234,-4.6667,-4.6552,-4.6426,-4.6728,-4.6527,-4.6451,-4.6828,-4.6884,-4.692,-4.6813,-4.6677,-4.6577,-4.6541,-4.6484,-4.6561,-4.6737,-4.692,-4.7219,-4.7509,-4.7849,-4.8092,-4.8158,-4.8182,-4.805,-4.7738,-4.7406,-4.7165,-4.648,-4.5886,-4.5595,-4.5251,-4.4898,-4.4618,-4.4594,-4.4594,-4.447,-4.4409,-4.4347,-4.4285,-4.4285,-4.4285,-4.4285,-4.4285,-4.4285,-4.4285,-4.4285,-4.4285,-4.4285,-5.35,-5.35,-5.35,-5.35,-5.35,-5.35,-5.35,-5.35,-5.35,-5.3646,-5.382,-5.3617,-5.4023,-5.4517,-5.3936,-5.3907,-5.4371,-5.382,-5.35,-5.3442,-5.3239,-5.3181,-5.3123,-5.2775,-5.2439,-5.2059,-5.2041,-5.1838,-5.136,-5.0319,-4.9103,-4.781,-4.6705,-4.5849,-4.5395,-4.4589,-4.4289,-4.4071,-4.3017,-4.2256,-4.1972,-4.1459,-4.1287,-4.1435,-4.1549,-4.172,-4.1915,-4.2061,-4.2513,-4.2967,-4.2724,-4.2308,-4.1859,-4.2086,-4.2399,-4.2842,-4.3312,-4.3893,-4.4695,-4.5331,-4.5635,-4.5635,-4.5817,-4.5999,-4.612,-4.5939,-4.632,-4.6617,-4.6527,-4.6451,-4.6677,-4.6552,-4.6502,-4.6692,-4.6527,-4.6476,-4.6728,-4.6527,-4.6416,-4.647,-4.655,-4.6613,-4.6772,-4.6978,-4.728,-4.7499,-4.7685,-4.7828,-4.7828,-4.7828,-4.763,-4.7491,-4.725,-4.701,-4.6704,-4.6271,-4.5814,-4.5285,-4.4866,-4.4601,-4.4409,-4.4409,-4.4347,-4.4347,-4.4285,-4.4285,-4.4285,-4.4285,-4.4285,-4.4285,-4.4285,-4.4285,-4.4285,-4.4285,-4.4285,-5.3395,-5.3395,-5.3395,-5.329,-5.3343,-5.3343,-5.3343,-5.3343,-5.35,-5.3767,-5.4033,-5.3709,-5.411,-5.4778,-5.3936,-5.3849,-5.4255,-5.382,-5.35,-5.3355,-5.2926,-5.2555,-5.2555,-5.2393,-5.2172,-5.2035,-5.1827,-5.1233,-5.024,-4.9388,-4.8109,-4.6075,-4.5697,-4.5109,-4.3955,-4.3436,-4.2905,-4.2481,-4.2167,-4.1769,-4.1311,-4.1326,-4.122,-4.1254,-4.1508,-4.1622,-4.1631,-4.1606,-4.1923,-4.2606,-4.2438,-4.2015,-4.1386,-4.1196,-4.1856,-4.2747,-4.2843,-4.3651,-4.4597,-4.5147,-4.5331,-4.5392,-4.5757,-4.6145,-4.5878,-4.5939,-4.6134,-4.6466,-4.6341,-4.6291,-4.6366,-4.6351,-4.6376,-4.6266,-4.6205,-4.623,-4.6316,-4.628,-4.6348,-4.6588,-4.665,-4.671,-4.6914,-4.7102,-4.7237,-4.7278,-4.743,-4.7557,-4.7563,-4.7563,-4.7497,-4.7377,-4.7209,-4.7112,-4.6968,-4.6559,-4.615,-4.591,-4.5342,-4.4957,-4.4621,-4.4549,-4.4333,-4.4333,-4.4333,-4.4309,-4.4285,-4.4285,-4.4285,-4.4285,-4.4285,-4.4285,-4.4285,-4.4285,-4.4285,-5.2221,-5.2221,-5.2221,-5.2275,-5.2329,-5.2652,-5.2652,-5.2383,-5.3131,-5.3299,-5.3226,-5.3377,-5.3651,-5.3965,-5.3651,-5.3617,-5.3598,-5.3482,-5.35,-5.3308,-5.2416,-5.1971,-5.1814,-5.1498,-5.0916,-5.0379,-5.0077,-4.9528,-4.8873,-4.7831,-4.643,-4.4922,-4.4143,-4.34,-4.2556,-4.2142,-4.1972,-4.1972,-4.1655,-4.1402,-4.1302,-4.1615,-4.1557,-4.1244,-4.1649,-4.1683,-4.1335,-4.1287,-4.1344,-4.1573,-4.159,-4.1452,-4.1278,-4.1557,-4.2062,-4.2747,-4.3385,-4.3941,-4.4646,-4.5086,-4.527,-4.527,-4.5331,-4.5392,-4.5757,-4.5392,-4.5833,-4.6398,-4.642,-4.6174,-4.6606,-4.6491,-4.6255,-4.5999,-4.5978,-4.6041,-4.6105,-4.6192,-4.6328,-4.6721,-4.6974,-4.7027,-4.7126,-4.7254,-4.7401,-4.7371,-4.7443,-4.7497,-4.7497,-4.7497,-4.7497,-4.7497,-4.7401,-4.7353,-4.7209,-4.68,-4.6535,-4.6463,-4.6102,-4.5742,-4.5405,-4.5213,-4.4765,-4.4429,-4.4453,-4.4453,-4.4357,-4.4285,-4.4285,-4.4285,-4.4285,-4.4285,-4.4285,-4.4285,-4.4285,-5.1595,-5.1595,-5.1458,-5.1513,-5.1595,-5.1922,-5.1976,-5.195,-5.2437,-5.2598,-5.2383,-5.2598,-5.2812,-5.2759,-5.2759,-5.2623,-5.238,-5.238,-5.2218,-5.1837,-5.093,-5.0543,-5.0403,-5.0048,-4.9529,-4.9106,-4.8854,-4.8391,-4.7684,-4.6623,-4.5456,-4.4234,-4.3183,-4.2461,-4.2135,-4.1671,-4.1516,-4.1802,-4.1631,-4.1541,-4.1426,-4.1692,-4.1577,-4.1326,-4.1509,-4.1461,-4.122,-4.1196,-4.1196,-4.1196,-4.1196,-4.1293,-4.1533,-4.1787,-4.2292,-4.3,-4.3542,-4.3989,-4.451,-4.4902,-4.5025,-4.4963,-4.4902,-4.5086,-4.527,-4.5086,-4.5589,-4.6018,-4.5845,-4.5894,-4.619,-4.6251,-4.6043,-4.5847,-4.5933,-4.6044,-4.6104,-4.6339,-4.6581,-4.692,-4.7158,-4.7215,-4.732,-4.7461,-4.7449,-4.7473,-4.7449,-4.7497,-4.7497,-4.7497,-4.7497,-4.7497,-4.7497,-4.7449,-4.7425,-4.7112,-4.6968,-4.6896,-4.6776,-4.6391,-4.6006,-4.5742,-4.5221,-4.4837,-4.4717,-4.4573,-4.4453,-4.4357,-4.4285,-4.4285,-4.4285,-4.4285,-4.4285,-4.4285,-4.4285,-5.1072,-5.1017,-5.0823,-5.0823,-5.1017,-5.1183,-5.1293,-5.1513,-5.1787,-5.1841,-5.1732,-5.1787,-5.1896,-5.1732,-5.1759,-5.1348,-5.0796,-5.0934,-5.0462,-4.9987,-4.926,-4.8792,-4.8642,-4.8749,-4.8512,-4.8284,-4.8274,-4.7489,-4.6552,-4.5901,-4.4938,-4.377,-4.2899,-4.2452,-4.219,-4.1861,-4.1743,-4.1776,-4.1915,-4.1785,-4.1565,-4.1604,-4.1595,-4.1278,-4.122,-4.1268,-4.1196,-4.1196,-4.1196,-4.1196,-4.122,-4.1509,-4.1942,-4.1992,-4.2544,-4.3252,-4.3601,-4.389,-4.4251,-4.4594,-4.4656,-4.4532,-4.4902,-4.5086,-4.4963,-4.4963,-4.5172,-4.549,-4.527,-4.5404,-4.5638,-4.5871,-4.5906,-4.5865,-4.6178,-4.629,-4.6284,-4.6606,-4.6969,-4.7223,-4.7256,-4.7303,-4.7437,-4.7497,-4.7497,-4.7497,-4.7497,-4.7497,-4.7497,-4.7497,-4.7497,-4.7497,-4.7497,-4.7497,-4.7473,-4.7449,-4.7401,-4.7329,-4.7281,-4.7016,-4.6511,-4.6175,-4.5702,-4.5414,-4.5221,-4.4933,-4.4573,-4.4477,-4.4429,-4.4285,-4.4285,-4.4285,-4.4285,-4.4285,-4.4285,-4.9556,-4.9556,-4.9499,-4.9499,-4.967,-5.0293,-5.0376,-5.0179,-5.1265,-5.1348,-5.1238,-5.1568,-5.143,-5.0989,-5.0879,-5.0685,-5.0041,-4.9901,-4.9732,-4.9053,-4.7801,-4.7068,-4.6959,-4.756,-4.773,-4.7272,-4.6883,-4.6225,-4.5354,-4.4951,-4.4281,-4.3602,-4.3229,-4.3012,-4.2578,-4.2372,-4.23,-4.1987,-4.2006,-4.1798,-4.1547,-4.1683,-4.1625,-4.1244,-4.1196,-4.1196,-4.1196,-4.1196,-4.1196,-4.1268,-4.1581,-4.1952,-4.2134,-4.276,-4.3265,-4.3553,-4.3962,-4.4141,-4.4261,-4.4409,-4.4409,-4.4347,-4.447,-4.4594,-4.4779,-4.4594,-4.484,-4.5086,-4.5086,-4.5244,-4.5735,-4.5757,-4.5949,-4.6212,-4.6456,-4.6641,-4.6609,-4.6657,-4.6971,-4.7268,-4.7437,-4.7443,-4.7473,-4.7497,-4.7497,-4.7497,-4.7497,-4.7497,-4.7497,-4.7497,-4.7497,-4.7497,-4.7497,-4.7497,-4.7497,-4.7497,-4.7497,-4.7497,-4.7497,-4.7473,-4.6992,-4.668,-4.6319,-4.603,-4.5726,-4.5366,-4.5005,-4.4813,-4.4789,-4.4549,-4.4381,-4.4453,-4.4525,-4.4429,-4.4501,-4.8895,-4.8895,-4.8721,-4.8811,-4.9125,-4.9301,-4.9358,-4.9415,-4.9643,-4.9983,-4.9983,-4.9983,-4.9899,-4.9928,-4.9673,-4.9133,-4.8474,-4.8094,-4.7802,-4.7365,-4.6637,-4.618,-4.5968,-4.6348,-4.6415,-4.571,-4.5668,-4.5245,-4.484,-4.4398,-4.4096,-4.3505,-4.3289,-4.2843,-4.2458,-4.2383,-4.2031,-4.1895,-4.1953,-4.1783,-4.1523,-4.1644,-4.1625,-4.1302,-4.1196,-4.1196,-4.1196,-4.1196,-4.1196,-4.1365,-4.1918,-4.2351,-4.2447,-4.3072,-4.3577,-4.3938,-4.413,-4.4285,-4.4285,-4.4285,-4.4347,-4.4285,-4.4285,-4.4409,-4.4532,-4.4409,-4.447,-4.4766,-4.496,-4.5237,-4.5896,-4.6197,-4.6287,-4.6464,-4.6817,-4.7064,-4.7088,-4.7088,-4.7161,-4.7425,-4.7473,-4.7473,-4.7497,-4.7497,-4.7497,-4.7497,-4.7497,-4.7497,-4.7497,-4.7497,-4.7497,-4.7497,-4.7497,-4.7497,-4.7497,-4.7497,-4.7497,-4.7497,-4.7497,-4.7497,-4.7305,-4.7088,-4.6896,-4.6607,-4.6271,-4.6006,-4.5606,-4.539,-4.5221,-4.5173,-4.5077,-4.4933,-4.4933,-4.5101,-4.5261,-4.8663,-4.8663,-4.8373,-4.8489,-4.8837,-4.8463,-4.8521,-4.8669,-4.8029,-4.8379,-4.8669,-4.7971,-4.8262,-4.8437,-4.8146,-4.7383,-4.667,-4.6155,-4.6095,-4.5949,-4.5629,-4.5434,-4.5338,-4.5217,-4.496,-4.441,-4.4621,-4.4597,-4.4439,-4.4205,-4.3697,-4.3361,-4.306,-4.2723,-4.2252,-4.1934,-4.1847,-4.1832,-4.1922,-4.1858,-4.1541,-4.1541,-4.1369,-4.1254,-4.1196,-4.1196,-4.122,-4.1293,-4.1341,-4.1365,-4.2303,-4.2784,-4.3,-4.3361,-4.3818,-4.4261,-4.4261,-4.4285,-4.4285,-4.4285,-4.4285,-4.4285,-4.4285,-4.4285,-4.4347,-4.4371,-4.4419,-4.4659,-4.4948,-4.5477,-4.6006,-4.6383,-4.6631,-4.6872,-4.7257,-4.7449,-4.7497,-4.7497,-4.7473,-4.7473,-4.7497,-4.7497,-4.7497,-4.7497,-4.7497,-4.7497,-4.7497,-4.7497,-4.7497,-4.7497,-4.7497,-4.7497,-4.7497,-4.7497,-4.7497,-4.7497,-4.7497,-4.7497,-4.7497,-4.7497,-4.7497,-4.7353,-4.7161,-4.7016,-4.6752,-4.6487,-4.6223,-4.5958,-4.5862,-4.5886,-4.5718,-4.5453,-4.5573,-4.5886,-4.5822,-4.8431,-4.869,-4.8373,-4.823,-4.8373,-4.823,-4.8055,-4.7938,-4.7677,-4.7762,-4.7795,-4.7442,-4.7027,-4.6909,-4.673,-4.6215,-4.5671,-4.5453,-4.5392,-4.5232,-4.4816,-4.445,-4.4475,-4.4354,-4.3928,-4.366,-4.3843,-4.388,-4.3589,-4.318,-4.3072,-4.2904,-4.2819,-4.2675,-4.2554,-4.2589,-4.2155,-4.1852,-4.1934,-4.1813,-4.1417,-4.1287,-4.1335,-4.1244,-4.1268,-4.1293,-4.1365,-4.1629,-4.1846,-4.1942,-4.2856,-4.3265,-4.3433,-4.3842,-4.4117,-4.4237,-4.4285,-4.4285,-4.4285,-4.4285,-4.4285,-4.4285,-4.4285,-4.4285,-4.4285,-4.4333,-4.4501,-4.4981,-4.5477,-4.6006,-4.6535,-4.6728,-4.6944,-4.7233,-4.7401,-4.7497,-4.7497,-4.7497,-4.7497,-4.7497,-4.7497,-4.7497,-4.7497,-4.7497,-4.7497,-4.7497,-4.7497,-4.7497,-4.7497,-4.7497,-4.7497,-4.7497,-4.7497,-4.7497,-4.7497,-4.7497,-4.7497,-4.7497,-4.7497,-4.7497,-4.7497,-4.7497,-4.7377,-4.7233,-4.7161,-4.7016,-4.6752,-4.6439,-4.6189,-4.6077,-4.5926,-4.5774,-4.5909,-4.6019,-4.6005,-4.8257,-4.8632,-4.8172,-4.7997,-4.7997,-4.729,-4.6993,-4.6909,-4.6431,-4.6491,-4.667,-4.6311,-4.613,-4.6155,-4.5914,-4.5514,-4.5123,-4.5025,-4.5025,-4.4903,-4.4342,-4.3989,-4.3953,-4.3832,-4.324,-4.2925,-4.307,-4.3384,-4.3176,-4.2963,-4.2651,-4.2434,-4.241,-4.223,-4.2086,-4.2217,-4.2038,-4.1749,-4.1798,-4.1725,-4.1244,-4.1196,-4.1293,-4.1533,-4.1605,-4.1725,-4.2014,-4.2241,-4.2375,-4.2519,-4.3096,-4.3433,-4.3673,-4.3925,-4.4285,-4.4285,-4.4285,-4.4285,-4.4285,-4.4285,-4.4285,-4.4285,-4.4285,-4.4285,-4.4285,-4.4357,-4.4717,-4.5366,-4.603,-4.6535,-4.7064,-4.7088,-4.7257,-4.7401,-4.7497,-4.7497,-4.7497,-4.7497,-4.7497,-4.7497,-4.7497,-4.7497,-4.7497,-4.7497,-4.7497,-4.7497,-4.7497,-4.7497,-4.7497,-4.7497,-4.7497,-4.7298,-4.7298,-4.7165,-4.7165,-4.7165,-4.7298,-4.7364,-4.7364,-4.7364,-4.7497,-4.7497,-4.7497,-4.7425,-4.7401,-4.7353,-4.7185,-4.6848,-4.6556,-4.6264,-4.6186,-4.6114,-4.6133,-4.6162,-4.6019,-4.8015,-4.839,-4.7886,-4.7736,-4.7619,-4.6396,-4.5939,-4.5914,-4.5245,-4.5306,-4.5793,-4.5184,-4.5184,-4.55,-4.5244,-4.4768,-4.4548,-4.4523,-4.4499,-4.4451,-4.4281,-4.4063,-4.4002,-4.3759,-4.3289,-4.2795,-4.2867,-4.289,-4.2621,-4.2421,-4.2217,-4.2049,-4.1928,-4.1798,-4.1605,-4.2121,-4.1725,-4.1629,-4.1701,-4.1677,-4.1317,-4.122,-4.1437,-4.1918,-4.199,-4.2241,-4.2627,-4.2891,-4.2904,-4.3048,-4.3385,-4.3697,-4.377,-4.4045,-4.4261,-4.4285,-4.4285,-4.4285,-4.4285,-4.4285,-4.4285,-4.4285,-4.4285,-4.4333,-4.4597,-4.4837,-4.5221,-4.5982,-4.6559,-4.6992,-4.7353,-4.7473,-4.7473,-4.7473,-4.7497,-4.7497,-4.7497,-4.7497,-4.7497,-4.7497,-4.7497,-4.7497,-4.7497,-4.7497,-4.7497,-4.7497,-4.7497,-4.7497,-4.7497,-4.7497,-4.7431,-4.7165,-4.6965,-4.6808,-4.6741,-4.6607,-4.6808,-4.6965,-4.7098,-4.7098,-4.7298,-4.7497,-4.7497,-4.7431,-4.7473,-4.7425,-4.7305,-4.7059,-4.6608,-4.6357,-4.6442,-4.6376,-4.6272,-4.61,-4.5919,-4.7643,-4.7466,-4.7587,-4.7383,-4.6764,-4.6035,-4.5635,-4.5392,-4.4963,-4.484,-4.5,-4.4594,-4.447,-4.4497,-4.4062,-4.3771,-4.3686,-4.3662,-4.3771,-4.3843,-4.3951,-4.4071,-4.424,-4.4251,-4.3697,-4.312,-4.3241,-4.2567,-4.2107,-4.176,-4.1533,-4.1533,-4.1952,-4.2,-4.1966,-4.2399,-4.2434,-4.2049,-4.1966,-4.1774,-4.1365,-4.1293,-4.1581,-4.1918,-4.211,-4.2375,-4.2928,-4.3265,-4.3433,-4.3481,-4.3938,-4.4141,-4.4213,-4.4237,-4.4285,-4.4285,-4.4285,-4.4285,-4.4285,-4.4285,-4.4285,-4.4309,-4.4333,-4.4549,-4.4981,-4.5766,-4.6247,-4.6535,-4.7064,-4.7329,-4.7449,-4.7497,-4.7497,-4.7497,-4.7497,-4.7497,-4.7497,-4.7497,-4.7497,-4.7497,-4.7497,-4.7497,-4.7497,-4.7497,-4.7497,-4.7497,-4.7497,-4.7431,-4.7431,-4.7364,-4.7232,-4.6898,-4.6405,-4.6204,-4.6338,-4.6204,-4.6405,-4.6674,-4.6874,-4.6941,-4.7232,-4.7497,-4.7431,-4.7431,-4.7431,-4.7232,-4.6936,-4.6646,-4.6469,-4.6221,-4.5903,-4.6083,-4.6335,-4.6069,-4.5572,-4.5933,-4.6065,-4.6137,-4.6011,-4.5704,-4.5183,-4.484,-4.4717,-4.4594,-4.4532,-4.447,-4.4409,-4.4285,-4.4141,-4.3746,-4.3529,-4.3457,-4.3241,-4.3265,-4.3385,-4.3553,-4.3649,-4.3794,-4.3842,-4.3577,-4.3385,-4.3289,-4.3072,-4.2279,-4.2062,-4.2062,-4.2062,-4.2338,-4.2506,-4.2471,-4.2928,-4.2832,-4.2627,-4.2482,-4.2303,-4.2134,-4.211,-4.2303,-4.2784,-4.2808,-4.3096,-4.3529,-4.3818,-4.3986,-4.3949,-4.4213,-4.4285,-4.4285,-4.4285,-4.4285,-4.4285,-4.4285,-4.4285,-4.4285,-4.4285,-4.4309,-4.4405,-4.4573,-4.4981,-4.5597,-4.6223,-4.6728,-4.6704,-4.7185,-4.7449,-4.7497,-4.7497,-4.7497,-4.7497,-4.7497,-4.7497,-4.7497,-4.7497,-4.7497,-4.7497,-4.7497,-4.7431,-4.7364,-4.7364,-4.7364,-4.7431,-4.7232,-4.7032,-4.7032,-4.7032,-4.6831,-4.654,-4.6001,-4.546,-4.5799,-4.5934,-4.6204,-4.6473,-4.6965,-4.7098,-4.7364,-4.7497,-4.7165,-4.6965,-4.6831,-4.6607,-4.6405,-4.6271,-4.6046,-4.564,-4.5256,-4.53,-4.5275,-4.5119,-4.4641,-4.3858,-4.4184,-4.4593,-4.469,-4.4502,-4.4196,-4.413,-4.4093,-4.4299,-4.4285,-4.4237,-4.4141,-4.4069,-4.3901,-4.3433,-4.3096,-4.3289,-4.2928,-4.3,-4.3096,-4.3289,-4.3481,-4.377,-4.377,-4.3601,-4.3144,-4.3649,-4.3529,-4.3313,-4.312,-4.3024,-4.2843,-4.2856,-4.2928,-4.3072,-4.3385,-4.3481,-4.3,-4.2843,-4.2747,-4.2723,-4.2747,-4.3,-4.3313,-4.3553,-4.377,-4.4189,-4.4261,-4.4261,-4.4261,-4.4261,-4.4285,-4.4285,-4.4285,-4.4285,-4.4285,-4.4285,-4.4285,-4.4285,-4.4309,-4.4357,-4.4621,-4.5101,-4.5766,-4.6078,-4.6583,-4.692,-4.6968,-4.7233,-4.7449,-4.7497,-4.7497,-4.7497,-4.7497,-4.7497,-4.7497,-4.7497,-4.7497,-4.7497,-4.7497,-4.7431,-4.7298,-4.7232,-4.7165,-4.7232,-4.7364,-4.7098,-4.6741,-4.6473,-4.6362,-4.6001,-4.5663,-4.5051,-4.4594,-4.4732,-4.5119,-4.5595,-4.6069,-4.6607,-4.6808,-4.6741,-4.6674,-4.6473,-4.6271,-4.6136,-4.5799,-4.546,-4.5528,-4.5528,-4.5051,-4.4527,-4.421,-4.4074,-4.3982,-4.3731,-4.1876,-4.1595,-4.3465,-4.3826,-4.3343,-4.3518,-4.3577,-4.3697,-4.4069,-4.4237,-4.4141,-4.3829,-4.3721,-4.3409,-4.2904,-4.2615,-4.2856,-4.2843,-4.294,-4.3216,-4.3697,-4.3949,-4.4093,-4.4093,-4.4117,-4.4106,-4.4093,-4.4093,-4.4178,-4.3962,-4.3529,-4.2952,-4.3337,-4.3433,-4.3601,-4.3866,-4.3914,-4.3481,-4.3192,-4.2952,-4.2928,-4.2952,-4.3144,-4.3457,-4.3577,-4.377,-4.4237,-4.4285,-4.4285,-4.4285,-4.4285,-4.4285,-4.4285,-4.4285,-4.4285,-4.4285,-4.4285,-4.4285,-4.4285,-4.4333,-4.4573,-4.5125,-4.5862,-4.6463,-4.6655,-4.7112,-4.7377,-4.7353,-4.7449,-4.7473,-4.7497,-4.7497,-4.7497,-4.7497,-4.7431,-4.7364,-4.7364,-4.7497,-4.7497,-4.7497,-4.7298,-4.7032,-4.6697,-4.6473,-4.654,-4.6674,-4.6831,-4.6405,-4.5595,-4.5324,-4.4914,-4.4503,-4.3905,-4.3511,-4.3441,-4.3927,-4.464,-4.5051,-4.546,-4.5595,-4.5663,-4.5595,-4.5866,-4.5528,-4.5324,-4.4914,-4.4503,-4.4594,-4.4526,-4.425,-4.3863,-4.3505,-4.3329,-4.3306,-4.2879,-4.1365,-4.1278,-4.2068,-4.2433,-4.248,-4.2891,-4.3216,-4.3529,-4.3746,-4.3842,-4.3866,-4.3938,-4.3818,-4.3457,-4.3241,-4.3,-4.3144,-4.2916,-4.2976,-4.3216,-4.3673,-4.3949,-4.4117,-4.4285,-4.4285,-4.4285,-4.4285,-4.4285,-4.4261,-4.4285,-4.4141,-4.3853,-4.3829,-4.3925,-4.4093,-4.4141,-4.4093,-4.4082,-4.3842,-4.3721,-4.3746,-4.3746,-4.3842,-4.3925,-4.4034,-4.4045,-4.4261,-4.4285,-4.4285,-4.4285,-4.4285,-4.4285,-4.4285,-4.4285,-4.4285,-4.4285,-4.4285,-4.4285,-4.4309,-4.4357,-4.4669,-4.5573,-4.6271,-4.6848,-4.7088,-4.7401,-4.7473,-4.7473,-4.7497,-4.7497,-4.7497,-4.7497,-4.7497,-4.7497,-4.7364,-4.7232,-4.7098,-4.7165,-4.6898,-4.6607,-4.6607,-4.6473,-4.6069,-4.5731,-4.5866,-4.6001,-4.6136,-4.6001,-4.5119,-4.4572,-4.4297,-4.4043,-4.3511,-4.3232,-4.3254,-4.3511,-4.3836,-4.4112,-4.4434,-4.464,-4.4914,-4.5256,-4.5392,-4.4983,-4.4594,-4.425,-4.3974,-4.3719,-4.3492,-4.3316,-4.3115,-4.2801,-4.2718,-4.2678,-4.2254,-4.1317,-4.1196,-4.1196,-4.1389,-4.1774,-4.2362,-4.2808,-4.3265,-4.3457,-4.3505,-4.3553,-4.3914,-4.389,-4.3553,-4.3313,-4.3361,-4.3337,-4.3216,-4.3265,-4.3481,-4.3746,-4.3925,-4.4165,-4.4285,-4.4285,-4.4285,-4.4285,-4.4285,-4.4285,-4.4285,-4.4213,-4.4213,-4.4285,-4.4261,-4.4261,-4.4285,-4.4285,-4.4285,-4.4285,-4.4285,-4.4261,-4.4237,-4.4237,-4.4237,-4.4237,-4.4237,-4.4285,-4.4285,-4.4285,-4.4285,-4.4285,-4.4285,-4.4285,-4.4285,-4.4285,-4.4285,-4.4285,-4.4285,-4.4333,-4.4717,-4.5053,-4.5814,-4.6607,-4.7088,-4.7377,-4.7497,-4.7497,-4.7497,-4.7497,-4.7497,-4.7497,-4.7497,-4.7497,-4.7497,-4.7098,-4.6831,-4.663,-4.6563,-4.6069,-4.5731,-4.5731,-4.5822,-4.5233,-4.4823,-4.4937,-4.5119,-4.5187,-4.5006,-4.4319,-4.3974,-4.4043,-4.3767,-4.3441,-4.3324,-4.3254,-4.3441,-4.358,-4.365,-4.3905,-4.4181,-4.4457,-4.4709,-4.4709,-4.4181,-4.3858,-4.365,-4.3511,-4.3441,-4.3017,-4.2529,-4.2398,-4.2357,-4.2401,-4.2362,-4.1987,-4.1687,-4.1196,-4.1196,-4.1196,-4.1317,-4.1774,-4.2279,-4.2808,-4.3241,-4.3433,-4.3433,-4.3553,-4.3577,-4.3433,-4.3216,-4.3361,-4.3601,-4.3553,-4.3577,-4.3697,-4.401,-4.4213,-4.4261,-4.4285,-4.4285,-4.4285,-4.4285,-4.4285,-4.4285,-4.4285,-4.4285,-4.4285,-4.4285,-4.4285,-4.4285,-4.4285,-4.4285,-4.4285,-4.4285,-4.4285,-4.4285,-4.4285,-4.4285,-4.4285,-4.4285,-4.4285,-4.4285,-4.4285,-4.4285,-4.4285,-4.4285,-4.4285,-4.4285,-4.4285,-4.4285,-4.4285,-4.4285,-4.4309,-4.4381,-4.5269,-4.5838,-4.6102,-4.6848,-4.7353,-4.7473,-4.7497,-4.7497,-4.7497,-4.7497,-4.7431,-4.7497,-4.7431,-4.7364,-4.7032,-4.663,-4.6321,-4.6118,-4.612,-4.5758,-4.5347,-4.5211,-4.5097,-4.4456,-4.3994,-4.4061,-4.4108,-4.4204,-4.3974,-4.3555,-4.365,-4.3905,-4.358,-4.3302,-4.3324,-4.3184,-4.3184,-4.3254,-4.3302,-4.3372,-4.3719,-4.3719,-4.3789,-4.365,-4.3324,-4.3324,-4.3372,-4.3302,-4.3232,-4.2879,-4.2573,-4.2114,-4.2051,-4.2092,-4.218,-4.2005,-4.1341,-4.1196,-4.1196,-4.1196,-4.1196,-4.1365,-4.1749,-4.2338,-4.2819,-4.3084,-4.3096,-4.3337,-4.3505,-4.3505,-4.3746,-4.3842,-4.3986,-4.3997,-4.3997,-4.4082,-4.4213,-4.4261,-4.4285,-4.4285,-4.4285,-4.4285,-4.4285,-4.4285,-4.4285,-4.4285,-4.4285,-4.4285,-4.4285,-4.4285,-4.4285,-4.4285,-4.4285,-4.4285,-4.4285,-4.4285,-4.4285,-4.4285,-4.4285,-4.4285,-4.4285,-4.4285,-4.4285,-4.4285,-4.4285,-4.4285,-4.4285,-4.4285,-4.4285,-4.4285,-4.4285,-4.4285,-4.4309,-4.4477,-4.4933,-4.5702,-4.6391,-4.668,-4.7016,-4.7473,-4.7497,-4.7497,-4.7497,-4.7431,-4.7431,-4.7232,-4.6898,-4.6764,-4.6607,-4.6069,-4.5665,-4.5599,-4.5485,-4.576,-4.5759,-4.5284,-4.5025,-4.4984,-4.4538,-4.4172,-4.415,-4.411,-4.4302,-4.3988,-4.3547,-4.3764,-4.3997,-4.3511,-4.3254,-4.3254,-4.3184,-4.3184,-4.3184,-4.3254,-4.3254,-4.3324,-4.3254,-4.3184,-4.3254,-4.3254,-4.3254,-4.3184,-4.3141,-4.3097,-4.2944,-4.266,-4.2311,-4.2158,-4.2333,-4.2485,-4.2485,-4.1196,-4.1196,-4.1196,-4.1196,-4.1196,-4.1196,-4.1485,-4.2014,-4.2578,-4.2891,-4.3072,-4.3385,-4.3649,-4.3866,-4.4093,-4.4285,-4.4285,-4.4285,-4.4285,-4.4285,-4.4285,-4.4285,-4.4285,-4.4285,-4.4285,-4.4285,-4.4285,-4.4285,-4.4285,-4.4285,-4.4285,-4.4285,-4.4285,-4.4285,-4.4285,-4.4285,-4.4285,-4.4285,-4.4285,-4.4285,-4.4285,-4.4285,-4.4285,-4.4285,-4.4285,-4.4285,-4.4285,-4.4285,-4.4285,-4.4285,-4.4309,-4.4285,-4.4285,-4.4285,-4.4285,-4.4285,-4.4525,-4.4885,-4.5678,-4.6175,-4.6704,-4.7016,-4.7353,-4.7473,-4.7497,-4.7497,-4.7497,-4.7431,-4.7298,-4.6898,-4.6405,-4.6271,-4.5799,-4.5256,-4.5165,-4.5093,-4.5157,-4.5479,-4.5445,-4.5042,-4.4958,-4.4864,-4.4792,-4.4683,-4.4458,-4.4425,-4.4414,-4.4052,-4.3762,-4.3955,-4.4102,-4.3687,-4.3337,-4.3337,-4.3272,-4.3184,-4.3184,-4.3184,-4.3184,-4.3184,-4.3184,-4.3184,-4.3184,-4.3184,-4.3184,-4.3163,-4.3097,-4.3032,-4.2918,-4.2783,-4.254,-4.2522,-4.2682,-4.2587,-4.2492,-4.1196,-4.1196,-4.1196,-4.1196,-4.1196,-4.1196,-4.1485,-4.1966,-4.2506,-4.2928,-4.3433,-4.3385,-4.3697,-4.4165,-4.4285,-4.4285,-4.4285,-4.4285,-4.4285,-4.4285,-4.4285,-4.4285,-4.4285,-4.4285,-4.4285,-4.4285,-4.4285,-4.4285,-4.4285,-4.4285,-4.4285,-4.4285,-4.4285,-4.4285,-4.4285,-4.4285,-4.4285,-4.4285,-4.4285,-4.4285,-4.4285,-4.4285,-4.4285,-4.4285,-4.4285,-4.4285,-4.4309,-4.4381,-4.4357,-4.4333,-4.4333,-4.4309,-4.4309,-4.4309,-4.4309,-4.4501,-4.4909,-4.5718,-4.6343,-4.668,-4.6992,-4.7281,-4.7425,-4.7497,-4.7431,-4.7364,-4.7232,-4.7032,-4.6741,-4.6473,-4.6136,-4.5663,-4.5187,-4.4982,-4.4885,-4.49,-4.4891,-4.5017,-4.492,-4.4851,-4.4917,-4.4939,-4.5005,-4.4888,-4.4954,-4.5005,-4.5018,-4.4902,-4.4611,-4.4326,-4.4343,-4.3877,-4.3643,-4.3604,-4.3495,-4.3228,-4.3184,-4.3184,-4.3184,-4.3184,-4.3184,-4.3184,-4.3184,-4.3184,-4.3184,-4.3163,-4.2979,-4.2909,-4.2931,-4.2774,-4.2457,-4.2457,-4.2435,-4.2204,-4.2113,-4.1196,-4.1196,-4.1196,-4.1196,-4.1196,-4.1196,-4.1293,-4.1437,-4.1605,-4.211,-4.2976,-4.2976,-4.3529,-4.4237,-4.4285,-4.4285,-4.4285,-4.4285,-4.4285,-4.4285,-4.4285,-4.4285,-4.4285,-4.4285,-4.4285,-4.4285,-4.4285,-4.4285,-4.4285,-4.4285,-4.4285,-4.4285,-4.4357,-4.4333,-4.4357,-4.4309,-4.4357,-4.4381,-4.4405,-4.4357,-4.4357,-4.4357,-4.4357,-4.4357,-4.4357,-4.4357,-4.4381,-4.4717,-4.4693,-4.4429,-4.4693,-4.4717,-4.4285,-4.4621,-4.4933,-4.5501,-4.5958,-4.6463,-4.6728,-4.7064,-4.7329,-4.7425,-4.7431,-4.7497,-4.7364,-4.7098,-4.6831,-4.6473,-4.6069,-4.5663,-4.5256,-4.4846,-4.4457,-4.4246,-4.428,-4.4564,-4.4688,-4.4986,-4.4954,-4.5303,-4.5347,-4.5325,-4.5369,-4.5434,-4.5522,-4.5565,-4.5544,-4.5478,-4.5347,-4.5019,-4.4561,-4.4146,-4.3905,-4.3796,-4.3425,-4.3184,-4.3184,-4.3184,-4.3184,-4.3184,-4.3163,-4.3163,-4.3184,-4.3184,-4.3093,-4.2953,-4.2791,-4.2721,-4.2651,-4.2392,-4.2116,-4.2229,-4.2229,-4.1997,-4.1756,-4.1196,-4.1196,-4.1196,-4.1196,-4.1196,-4.1196,-4.1196,-4.1196,-4.1196,-4.1774,-4.2747,-4.2819,-4.3361,-4.4189,-4.4285,-4.4285,-4.4285,-4.4285,-4.4285,-4.4285,-4.4285,-4.4285,-4.4285,-4.4285,-4.4285,-4.4285,-4.4285,-4.4285,-4.4285,-4.4309,-4.4333,-4.4621,-4.4597,-4.4717,-4.4885,-4.5029,-4.5044,-4.4885,-4.4765,-4.4621,-4.4597,-4.4597,-4.4597,-4.4597,-4.4597,-4.4597,-4.4732,-4.5101,-4.5149,-4.4933,-4.5293,-4.5261,-4.4996,-4.5269,-4.5678,-4.611,-4.6415,-4.6776,-4.7064,-4.7281,-4.7449,-4.7431,-4.7232,-4.7032,-4.6941,-4.6674,-4.6338,-4.5934,-4.5324,-4.4709,-4.4297,-4.3974,-4.365,-4.3324,-4.3692,-4.4129,-4.4517,-4.4997,-4.5412,-4.5828,-4.5937,-4.5915,-4.5959,-4.6002,-4.598,-4.5871,-4.5828,-4.5806,-4.574,-4.5565,-4.4976,-4.4408,-4.4189,-4.4014,-4.3578,-4.3184,-4.3184,-4.3184,-4.3184,-4.3184,-4.3093,-4.3023,-4.3023,-4.3023,-4.2931,-4.2721,-4.2441,-4.237,-4.2229,-4.1969,-4.1756,-4.1735,-4.1756,-4.1728,-4.1496,-4.1196,-4.1196,-4.1196,-4.1196,-4.1196,-4.1196,-4.1196,-4.1196,-4.1196,-4.1832,-4.2675,-4.2819,-4.3337,-4.4141,-4.4285,-4.4285,-4.4285,-4.4285,-4.4285,-4.4285,-4.4285,-4.4285,-4.4285,-4.4285,-4.4285,-4.4285,-4.4285,-4.4285,-4.4285,-4.4309,-4.4501,-4.5005,-4.5029,-4.5101,-4.5342,-4.5621,-4.5621,-4.5573,-4.5453,-4.5293,-4.5149,-4.5125,-4.5125,-4.5125,-4.5125,-4.5213,-4.5333,-4.5621,-4.5958,-4.5934,-4.5934,-4.5926,-4.595,-4.5926,-4.6244,-4.659,-4.6848,-4.704,-4.7281,-4.7449,-4.734,-4.7165,-4.6831,-4.6338,-4.6136,-4.5934,-4.5528,-4.5187,-4.4572,-4.4181,-4.3836,-4.3672,-4.3416,-4.3517,-4.3933,-4.432,-4.4801,-4.5165,-4.5409,-4.5735,-4.563,-4.563,-4.563,-4.5555,-4.548,-4.5704,-4.5779,-4.5779,-4.5692,-4.5583,-4.5208,-4.451,-4.4255,-4.3949,-4.349,-4.3163,-4.3115,-4.3115,-4.3115,-4.2883,-4.2651,-4.2743,-4.2953,-4.2721,-4.2511,-4.23,-4.2089,-4.2018,-4.1877,-4.1594,-4.1381,-4.1239,-4.1259,-4.1372,-4.1268,-4.1196,-4.1196,-4.1196,-4.1196,-4.1196,-4.1196,-4.1196,-4.1196,-4.1196,-4.1774,-4.2675,-4.2832,-4.3361,-4.4189,-4.4285,-4.4285,-4.4285,-4.4285,-4.4285,-4.4285,-4.4285,-4.4285,-4.4285,-4.4285,-4.4285,-4.4285,-4.4285,-4.4285,-4.4285,-4.4309,-4.4333,-4.4549,-4.4861,-4.5293,-4.551,-4.5838,-4.6078,-4.6126,-4.6223,-4.6054,-4.5774,-4.5702,-4.5742,-4.5742,-4.5742,-4.5742,-4.591,-4.6223,-4.6199,-4.6054,-4.6367,-4.6439,-4.6528,-4.6538,-4.6801,-4.7191,-4.7257,-4.7353,-4.7335,-4.7298,-4.7008,-4.6741,-4.6271,-4.5595,-4.5187,-4.4914,-4.4572,-4.4319,-4.4043,-4.3719,-4.3463,-4.3346,-4.3337,-4.3687,-4.4058,-4.4539,-4.4946,-4.5214,-4.5382,-4.5319,-4.5234,-4.5181,-4.5181,-4.5181,-4.5106,-4.5106,-4.5031,-4.4988,-4.4934,-4.488,-4.4798,-4.4265,-4.4074,-4.3796,-4.3289,-4.2953,-4.2813,-4.2673,-4.2581,-4.237,-4.2159,-4.2229,-4.237,-4.2229,-4.2067,-4.1947,-4.1756,-4.1686,-4.1473,-4.1239,-4.1096,-4.1096,-4.1025,-4.1117,-4.1004,-4.098,-4.1172,-4.1196,-4.1196,-4.1196,-4.1196,-4.1196,-4.1196,-4.1196,-4.1774,-4.2723,-4.2891,-4.3361,-4.4189,-4.4285,-4.4285,-4.4285,-4.4285,-4.4285,-4.4285,-4.4285,-4.4285,-4.4285,-4.4285,-4.4285,-4.4285,-4.4285,-4.4285,-4.4333,-4.4309,-4.4357,-4.4645,-4.5101,-4.551,-4.579,-4.6295,-4.6583,-4.6655,-4.692,-4.6824,-4.6511,-4.6415,-4.6295,-4.6271,-4.6271,-4.6271,-4.6463,-4.6752,-4.6824,-4.6728,-4.6968,-4.704,-4.7064,-4.7077,-4.7221,-4.7359,-4.7473,-4.7497,-4.7274,-4.6808,-4.6315,-4.5843,-4.4664,-4.3722,-4.393,-4.3675,-4.3628,-4.335,-4.358,-4.3324,-4.3324,-4.3276,-4.3284,-4.354,-4.3729,-4.4005,-4.4435,-4.4869,-4.4956,-4.5063,-4.5031,-4.4955,-4.4955,-4.4955,-4.4955,-4.4955,-4.4805,-4.473,-4.4581,-4.4188,-4.4111,-4.388,-4.353,-4.3169,-4.264,-4.2441,-4.237,-4.2229,-4.2089,-4.2089,-4.2018,-4.1877,-4.1735,-4.1735,-4.1735,-4.1615,-4.1473,-4.1331,-4.1259,-4.1025,-4.0954,-4.0954,-4.0882,-4.0882,-4.0933,-4.0715,-4.1148,-4.1196,-4.1196,-4.1196,-4.1196,-4.1196,-4.1196,-4.1268,-4.1846,-4.2771,-4.2856,-4.3481,-4.4058,-4.4285,-4.4285,-4.4285,-4.4285,-4.4285,-4.4285,-4.4285,-4.4285,-4.4285,-4.4285,-4.4285,-4.4285,-4.4285,-4.4381,-4.4477,-4.4405,-4.4549,-4.5077,-4.5582,-4.6126,-4.6655,-4.7136,-4.7329,-4.7281,-4.7377,-4.7425,-4.7281,-4.7088,-4.6896,-4.68,-4.68,-4.6824,-4.6968,-4.7095,-4.7383,-4.7269,-4.7106,-4.6974,-4.6913,-4.6803,-4.6693,-4.6674,-4.654,-4.654,-4.6382,-4.5481,-4.5051,-4.4367,-4.2796,-4.2257,-4.2608,-4.2559,-4.2441,-4.2603,-4.2813,-4.3045,-4.3045,-4.311,-4.3138,-4.3292,-4.3458,-4.3708,-4.4123,-4.4496,-4.4623,-4.473,-4.4654,-4.4654,-4.4654,-4.4654,-4.4654,-4.4654,-4.4654,-4.4654,-4.4452,-4.3742,-4.3373,-4.3076,-4.2682,-4.228,-4.2061,-4.1947,-4.1947,-4.1877,-4.1806,-4.1806,-4.1806,-4.1523,-4.1381,-4.1402,-4.1331,-4.1259,-4.1167,-4.1025,-4.0954,-4.0882,-4.0882,-4.0882,-4.0882,-4.0882,-4.0882,-4.0691,-4.1172,-4.1196,-4.1196,-4.1196,-4.1196,-4.1196,-4.1268,-4.1629,-4.2182,-4.2711,-4.3241,-4.377,-4.4285,-4.4285,-4.4285,-4.4285,-4.4285,-4.4285,-4.4285,-4.4285,-4.4285,-4.4285,-4.4285,-4.4285,-4.4309,-4.4381,-4.4549,-4.4717,-4.4525,-4.4573,-4.5125,-4.5654,-4.6054,-4.6223,-4.6824,-4.7431,-4.7431,-4.7431,-4.7431,-4.7364,-4.7311,-4.7401,-4.7353,-4.7353,-4.7353,-4.7335,-4.7184,-4.7098,-4.6936,-4.6594,-4.6351,-4.6133,-4.5957,-4.5619,-4.5278,-4.5142,-4.4846,-4.4413,-4.3863,-4.3448,-4.2914,-4.1742,-4.141,-4.1551,-4.136,-4.1381,-4.1523,-4.1806,-4.2321,-4.2392,-4.2646,-4.272,-4.3149,-4.3316,-4.389,-4.4379,-4.4323,-4.431,-4.4201,-4.4125,-4.4071,-4.3995,-4.3995,-4.3995,-4.3995,-4.4071,-4.3974,-4.3987,-4.3368,-4.2784,-4.2387,-4.1969,-4.1931,-4.1877,-4.1686,-4.1544,-4.1473,-4.1381,-4.1381,-4.131,-4.1096,-4.1025,-4.1117,-4.1096,-4.1025,-4.0882,-4.0882,-4.0882,-4.0882,-4.0882,-4.0882,-4.0882,-4.0882,-4.0882]}]]